[[{"header":{"parameterUnit":"m.s-1","parameterCategory":1,"la1":30.6,"la2":29.2853,"lo1":-89.7004,"lo2":-87.6739,"dy":0.0162,"dx":0.0183,"nx":112,"ny":82,"refTime":"2024-03-11T00:00:00:Z","depth":0,"parameterNumber":2,"parameterNumberName":"U-component_of_WINDS"},"data":[0.0,0.0,0.0,0.0,0.0,0.0,0.0,0.0,0.0,0.0,0.0,0.0,0.0,0.0,0.0,0.0,0.0,0.0,0.0,0.0,0.0,0.0,0.0,0.0,0.0,0.0,0.0,0.0,0.0,0.0,0.0,0.0,0.0,0.0,0.0,0.0,0.0,0.0,0.0,0.0,0.0,0.0,0.0,0.0,0.0,0.0,0.0,0.0,0.0,0.0,0.0,0.0,0.0,0.0,0.0,0.0,0.0,0.0,0.0,0.0,0.0,0.0,0.0,0.0,0.0,0.0,0.0,0.0,0.0,0.0,0.0,0.0,0.0,0.0,0.0,0.0,0.0,0.0,0.0,0.0,0.0,0.0,0.0,0.0,0.0,0.0,0.0,0.0,0.0,0.0,-2.4565,-2.5015,-2.5379,-2.5887,-2.6561,-2.5929,-2.5011,-2.389,0.0,0.0,0.0,0.0,0.0,0.0,0.0,0.0,0.0,0.0,0.0,0.0,0.0,0.0,0.0,0.0,0.0,0.0,0.0,0.0,0.0,0.0,0.0,0.0,0.0,0.0,0.0,0.0,0.0,0.0,0.0,0.0,0.0,0.0,0.0,0.0,0.0,0.0,0.0,0.0,0.0,0.0,0.0,0.0,0.0,0.0,0.0,0.0,0.0,0.0,0.0,0.0,0.0,0.0,0.0,0.0,0.0,0.0,0.0,0.0,0.0,0.0,0.0,0.0,0.0,0.0,0.0,0.0,0.0,0.0,0.0,0.0,0.0,0.0,0.0,0.0,0.0,0.0,0.0,0.0,0.0,0.0,0.0,0.0,0.0,0.0,0.0,0.0,0.0,0.0,0.0,0.0,0.0,0.0,0.0,0.0,0.0,0.0,0.0,0.0,0.0,0.0,0.0,0.0,-2.4586,-2.5275,-2.5494,-2.564,-2.5767,-2.5615,-2.4776,-2.3083,0.0,0.0,0.0,0.0,0.0,0.0,0.0,0.0,0.0,0.0,0.0,0.0,0.0,0.0,0.0,0.0,0.0,0.0,0.0,0.0,0.0,0.0,0.0,0.0,0.0,0.0,0.0,0.0,0.0,0.0,0.0,0.0,0.0,0.0,0.0,0.0,0.0,0.0,0.0,0.0,0.0,0.0,0.0,0.0,0.0,0.0,0.0,0.0,0.0,0.0,0.0,0.0,0.0,0.0,0.0,0.0,0.0,0.0,0.0,0.0,0.0,0.0,0.0,0.0,0.0,0.0,0.0,0.0,0.0,0.0,0.0,0.0,0.0,0.0,0.0,0.0,0.0,0.0,0.0,0.0,0.0,0.0,0.0,0.0,0.0,0.0,0.0,0.0,0.0,0.0,0.0,0.0,0.0,0.0,0.0,0.0,0.0,0.0,0.0,0.0,0.0,0.0,0.0,-2.4354,-2.4822,-2.534,-2.5513,-2.5604,-2.559,-2.5565,-2.4978,-2.3646,-2.313,0.0,0.0,0.0,0.0,0.0,0.0,0.0,0.0,0.0,0.0,0.0,0.0,0.0,0.0,0.0,0.0,0.0,0.0,0.0,0.0,0.0,0.0,0.0,0.0,0.0,0.0,0.0,0.0,0.0,0.0,0.0,0.0,0.0,0.0,0.0,0.0,0.0,0.0,0.0,0.0,0.0,0.0,0.0,0.0,0.0,0.0,0.0,0.0,0.0,0.0,0.0,0.0,0.0,0.0,0.0,0.0,0.0,0.0,0.0,0.0,0.0,0.0,0.0,0.0,0.0,0.0,0.0,0.0,0.0,0.0,0.0,0.0,0.0,0.0,0.0,0.0,0.0,0.0,0.0,0.0,0.0,0.0,0.0,0.0,0.0,0.0,0.0,0.0,0.0,0.0,0.0,0.0,0.0,0.0,0.0,0.0,0.0,0.0,0.0,0.0,0.0,0.0,-2.4625,-2.502,-2.5339,-2.5513,-2.5605,-2.5591,-2.5604,-2.5213,-2.4265,-2.3586,0.0,0.0,0.0,0.0,0.0,0.0,0.0,0.0,0.0,0.0,0.0,0.0,0.0,0.0,0.0,0.0,0.0,0.0,0.0,0.0,0.0,0.0,0.0,0.0,0.0,0.0,0.0,0.0,0.0,0.0,0.0,0.0,0.0,0.0,0.0,0.0,0.0,0.0,0.0,0.0,0.0,0.0,0.0,0.0,0.0,0.0,0.0,0.0,0.0,0.0,0.0,0.0,0.0,0.0,0.0,0.0,0.0,0.0,0.0,0.0,0.0,0.0,0.0,0.0,0.0,0.0,0.0,0.0,0.0,0.0,0.0,0.0,0.0,0.0,0.0,0.0,0.0,0.0,0.0,0.0,0.0,0.0,0.0,0.0,0.0,0.0,0.0,0.0,0.0,0.0,0.0,0.0,0.0,0.0,0.0,0.0,0.0,0.0,0.0,0.0,0.0,0.0,-2.4542,-2.5002,-2.5274,-2.5479,-2.5592,-2.5593,-2.5654,-2.5264,-2.4264,-2.4195,0.0,0.0,0.0,0.0,0.0,0.0,0.0,0.0,0.0,0.0,0.0,0.0,0.0,0.0,0.0,0.0,0.0,0.0,0.0,0.0,0.0,0.0,0.0,0.0,0.0,0.0,0.0,0.0,0.0,0.0,0.0,0.0,0.0,0.0,0.0,0.0,0.0,0.0,0.0,0.0,0.0,0.0,0.0,0.0,0.0,0.0,0.0,0.0,0.0,0.0,0.0,0.0,0.0,0.0,0.0,0.0,0.0,0.0,0.0,0.0,0.0,0.0,0.0,0.0,0.0,0.0,0.0,0.0,0.0,0.0,0.0,0.0,0.0,0.0,0.0,0.0,0.0,0.0,0.0,0.0,0.0,0.0,0.0,0.0,0.0,0.0,0.0,0.0,0.0,0.0,0.0,0.0,0.0,0.0,0.0,0.0,0.0,0.0,0.0,0.0,0.0,0.0,-2.4545,-2.4967,0.0,-2.5474,-2.577,-2.6366,-2.5965,-2.5744,-2.5885,0.0,0.0,0.0,0.0,0.0,0.0,0.0,0.0,0.0,0.0,0.0,0.0,0.0,0.0,0.0,0.0,0.0,0.0,0.0,0.0,0.0,0.0,0.0,0.0,0.0,0.0,0.0,0.0,0.0,0.0,0.0,0.0,0.0,0.0,0.0,0.0,0.0,0.0,0.0,0.0,0.0,0.0,0.0,0.0,0.0,0.0,0.0,0.0,0.0,0.0,0.0,0.0,0.0,0.0,0.0,0.0,0.0,0.0,0.0,0.0,0.0,0.0,0.0,0.0,0.0,0.0,0.0,0.0,0.0,0.0,0.0,0.0,0.0,0.0,0.0,0.0,0.0,0.0,0.0,0.0,0.0,0.0,0.0,0.0,0.0,0.0,0.0,0.0,0.0,0.0,0.0,0.0,0.0,0.0,0.0,0.0,0.0,0.0,0.0,0.0,0.0,0.0,-2.3976,-2.4452,-2.4878,0.0,-2.5404,-2.5862,-2.6828,-2.6152,-2.6048,-2.6886,0.0,0.0,0.0,0.0,0.0,0.0,0.0,0.0,0.0,0.0,0.0,0.0,0.0,0.0,0.0,0.0,0.0,0.0,0.0,0.0,0.0,0.0,0.0,0.0,0.0,0.0,0.0,0.0,0.0,0.0,0.0,0.0,0.0,0.0,0.0,0.0,0.0,0.0,0.0,0.0,0.0,0.0,0.0,0.0,0.0,0.0,0.0,0.0,0.0,0.0,0.0,0.0,0.0,0.0,0.0,0.0,0.0,0.0,0.0,0.0,0.0,0.0,0.0,0.0,0.0,0.0,0.0,0.0,0.0,0.0,0.0,0.0,0.0,0.0,0.0,0.0,0.0,0.0,0.0,0.0,0.0,0.0,0.0,0.0,0.0,0.0,0.0,0.0,0.0,0.0,0.0,0.0,0.0,0.0,0.0,0.0,0.0,0.0,0.0,0.0,0.0,0.0,-2.367,-2.4256,-2.476,-2.5077,-2.5297,-2.5809,-2.6833,-2.6163,-2.6086,0.0,0.0,0.0,0.0,0.0,0.0,0.0,0.0,0.0,0.0,0.0,0.0,0.0,0.0,0.0,0.0,0.0,0.0,0.0,0.0,0.0,0.0,0.0,0.0,0.0,0.0,0.0,0.0,0.0,0.0,0.0,0.0,0.0,0.0,0.0,0.0,0.0,0.0,0.0,0.0,0.0,0.0,0.0,0.0,0.0,0.0,0.0,0.0,0.0,0.0,0.0,0.0,0.0,0.0,0.0,0.0,0.0,0.0,0.0,0.0,0.0,0.0,0.0,0.0,0.0,0.0,0.0,0.0,0.0,0.0,0.0,0.0,0.0,0.0,0.0,0.0,0.0,0.0,0.0,0.0,0.0,0.0,0.0,0.0,0.0,0.0,0.0,0.0,0.0,0.0,0.0,0.0,0.0,0.0,0.0,0.0,0.0,0.0,0.0,0.0,0.0,0.0,0.0,-2.435,-2.5393,-2.5989,-2.5761,-2.5958,-2.6528,-2.7601,-2.6889,-2.6813,-2.7797,0.0,0.0,0.0,0.0,0.0,0.0,0.0,0.0,0.0,0.0,0.0,0.0,0.0,0.0,0.0,0.0,0.0,0.0,0.0,0.0,0.0,0.0,0.0,0.0,0.0,0.0,0.0,0.0,0.0,0.0,0.0,0.0,0.0,0.0,0.0,0.0,0.0,0.0,0.0,0.0,0.0,0.0,0.0,0.0,0.0,0.0,0.0,0.0,0.0,0.0,0.0,0.0,0.0,0.0,0.0,0.0,0.0,0.0,0.0,0.0,0.0,0.0,0.0,0.0,0.0,0.0,0.0,0.0,0.0,0.0,0.0,0.0,0.0,0.0,0.0,0.0,0.0,0.0,0.0,0.0,0.0,0.0,0.0,0.0,0.0,0.0,0.0,0.0,0.0,0.0,0.0,0.0,0.0,0.0,0.0,0.0,0.0,0.0,0.0,0.0,0.0,0.0,-2.4492,-2.5426,-2.6086,-2.6255,-2.6529,-2.709,-2.8115,-2.7464,-2.7451,-2.8462,0.0,0.0,0.0,0.0,0.0,0.0,0.0,0.0,0.0,0.0,0.0,0.0,0.0,0.0,0.0,0.0,0.0,0.0,0.0,0.0,0.0,0.0,0.0,0.0,0.0,0.0,0.0,0.0,0.0,0.0,0.0,0.0,0.0,0.0,0.0,0.0,0.0,0.0,0.0,0.0,0.0,0.0,0.0,0.0,0.0,0.0,0.0,0.0,0.0,0.0,0.0,0.0,0.0,0.0,0.0,0.0,0.0,0.0,0.0,0.0,0.0,0.0,0.0,0.0,0.0,0.0,0.0,0.0,0.0,0.0,0.0,0.0,0.0,0.0,0.0,0.0,0.0,0.0,0.0,0.0,0.0,0.0,0.0,0.0,0.0,0.0,0.0,0.0,0.0,0.0,0.0,0.0,0.0,0.0,0.0,0.0,0.0,0.0,0.0,0.0,0.0,0.0,-2.431,-2.4884,-2.5582,-2.6653,-2.6982,-2.7499,-2.8373,-2.7901,-2.7955,-2.8896,0.0,0.0,0.0,0.0,0.0,0.0,0.0,0.0,0.0,0.0,0.0,0.0,0.0,0.0,0.0,0.0,0.0,0.0,0.0,0.0,0.0,0.0,0.0,0.0,0.0,0.0,0.0,0.0,0.0,0.0,0.0,0.0,0.0,0.0,0.0,0.0,0.0,0.0,0.0,0.0,0.0,0.0,0.0,0.0,0.0,0.0,0.0,0.0,0.0,0.0,0.0,0.0,0.0,0.0,0.0,0.0,0.0,0.0,0.0,0.0,-3.0229,0.0,0.0,0.0,0.0,0.0,0.0,0.0,0.0,0.0,0.0,0.0,0.0,0.0,0.0,0.0,0.0,0.0,0.0,0.0,0.0,0.0,0.0,0.0,0.0,0.0,0.0,0.0,0.0,0.0,0.0,0.0,0.0,0.0,0.0,0.0,0.0,0.0,0.0,0.0,0.0,0.0,-2.4798,-2.5839,-2.6686,-2.7197,-2.7398,-2.766,-2.8063,-2.8068,-2.8194,-2.8514,-2.8367,0.0,0.0,0.0,0.0,0.0,0.0,0.0,0.0,0.0,0.0,0.0,0.0,0.0,0.0,0.0,0.0,0.0,0.0,0.0,0.0,0.0,0.0,0.0,0.0,0.0,0.0,0.0,0.0,0.0,0.0,0.0,0.0,0.0,0.0,0.0,0.0,0.0,0.0,0.0,0.0,0.0,0.0,0.0,0.0,0.0,0.0,0.0,0.0,0.0,0.0,0.0,0.0,0.0,0.0,0.0,0.0,0.0,0.0,0.0,0.0,-2.9897,0.0,0.0,0.0,0.0,0.0,0.0,0.0,0.0,0.0,0.0,0.0,0.0,0.0,0.0,0.0,0.0,0.0,0.0,0.0,0.0,0.0,0.0,0.0,0.0,0.0,0.0,0.0,0.0,0.0,0.0,0.0,0.0,0.0,0.0,0.0,0.0,0.0,0.0,0.0,0.0,-2.4611,-2.5787,-2.677,-2.7437,-2.7756,-2.8015,-2.8189,-2.8349,-2.853,-2.8727,-2.8499,0.0,0.0,0.0,0.0,0.0,0.0,0.0,0.0,0.0,0.0,0.0,0.0,0.0,0.0,0.0,0.0,0.0,0.0,0.0,0.0,0.0,0.0,0.0,0.0,0.0,0.0,0.0,0.0,0.0,0.0,0.0,0.0,0.0,0.0,0.0,0.0,0.0,0.0,0.0,0.0,0.0,0.0,0.0,0.0,0.0,0.0,0.0,0.0,0.0,0.0,0.0,0.0,0.0,-2.9776,-2.9691,-2.9583,-2.9741,-2.9753,-2.9601,-2.9496,-2.9877,-3.0516,-2.9241,0.0,0.0,0.0,0.0,0.0,0.0,0.0,0.0,0.0,0.0,0.0,0.0,0.0,0.0,0.0,0.0,0.0,0.0,0.0,0.0,0.0,0.0,0.0,0.0,-2.4824,-2.4535,0.0,0.0,0.0,0.0,0.0,0.0,0.0,0.0,0.0,0.0,0.0,0.0,-2.3987,-2.5168,-2.6208,-2.6989,-2.767,-2.8061,-2.8027,-2.8343,-2.8634,-2.8877,-2.8381,-2.8093,0.0,0.0,0.0,0.0,0.0,0.0,0.0,0.0,0.0,0.0,0.0,0.0,0.0,0.0,0.0,0.0,0.0,0.0,0.0,0.0,0.0,0.0,0.0,0.0,0.0,0.0,0.0,0.0,0.0,0.0,0.0,0.0,-2.7865,-2.7624,0.0,0.0,0.0,0.0,0.0,0.0,0.0,0.0,0.0,0.0,0.0,0.0,0.0,-2.753,-2.8357,-2.8533,-2.87,-2.8876,-2.9326,-2.9227,-2.8687,-2.9509,-2.9816,-2.9658,-2.8768,0.0,-3.0565,-2.9256,0.0,0.0,0.0,0.0,0.0,0.0,0.0,0.0,0.0,0.0,0.0,0.0,0.0,0.0,0.0,0.0,0.0,0.0,0.0,0.0,0.0,0.0,-2.4409,-2.394,-2.342,-2.3176,0.0,-2.3687,-2.3592,-2.3699,-2.3169,0.0,0.0,0.0,0.0,0.0,0.0,0.0,-2.293,-2.4264,-2.5175,-2.5022,-2.631,-2.6983,-2.6528,-2.7377,-2.7964,-2.8047,-2.8288,-2.813,-2.7467,-2.7417,0.0,0.0,0.0,0.0,0.0,0.0,0.0,0.0,0.0,0.0,0.0,0.0,0.0,0.0,0.0,0.0,0.0,0.0,0.0,0.0,0.0,0.0,0.0,0.0,0.0,0.0,0.0,0.0,0.0,-2.8611,-2.8748,-2.7624,-2.8246,-2.8222,0.0,0.0,0.0,0.0,0.0,0.0,0.0,0.0,0.0,-2.6965,-2.7266,-2.7538,-2.7838,-2.7926,-2.8152,-2.8478,-2.8642,-2.8568,-2.8285,-2.8688,-2.8801,-2.8625,-2.841,-2.8886,-2.9694,-2.8437,-2.8071,-2.8183,0.0,0.0,0.0,0.0,-2.5531,-2.575,-2.5485,-2.5887,0.0,-2.6016,0.0,0.0,0.0,0.0,0.0,0.0,0.0,0.0,0.0,0.0,-2.3544,-2.3501,-2.3329,-2.3202,-2.3225,-2.3405,-2.3627,0.0,-2.3549,-2.3183,-2.3061,0.0,0.0,0.0,0.0,-2.3083,-2.3099,-2.4295,-2.5106,-2.5007,-2.5898,-2.6404,-2.6215,-2.6779,-2.7173,-2.728,-2.7546,-2.7589,-2.7315,-2.7396,-2.6945,0.0,0.0,0.0,0.0,0.0,0.0,0.0,0.0,0.0,0.0,0.0,0.0,0.0,0.0,0.0,0.0,0.0,0.0,0.0,0.0,0.0,0.0,0.0,0.0,0.0,0.0,0.0,0.0,-2.9002,-2.9067,-2.764,-2.8629,-2.8733,0.0,0.0,0.0,0.0,0.0,0.0,-2.6488,-2.6059,-2.618,-2.7072,-2.722,-2.7259,-2.7259,-2.7288,-2.7526,-2.7962,-2.7881,-2.7818,-2.7818,-2.7836,-2.7773,-2.762,-2.7857,-2.8206,-2.857,-2.7882,-2.779,-2.8014,-2.691,-2.6393,-2.6188,-2.5528,-2.5283,-2.529,-2.512,-2.547,-2.5865,-2.5211,0.0,-2.4883,-2.4188,0.0,0.0,0.0,0.0,-2.2627,-2.3017,-2.296,-2.2807,-2.2922,-2.296,-2.2795,-2.2334,-2.2483,-2.288,0.0,-2.3501,-2.3386,-2.3113,0.0,0.0,0.0,0.0,-2.3031,-2.2862,-2.4021,-2.4768,-2.4449,-2.5222,-2.5701,-2.5595,-2.6044,-2.6352,-2.6455,-2.6672,-2.6937,-2.7238,-2.7117,-2.6747,-2.6145,0.0,0.0,0.0,0.0,0.0,0.0,0.0,0.0,0.0,0.0,0.0,0.0,0.0,0.0,0.0,0.0,0.0,0.0,0.0,0.0,0.0,0.0,0.0,0.0,0.0,0.0,0.0,0.0,0.0,-2.7732,-2.8263,0.0,0.0,0.0,0.0,-2.6465,-2.6405,-2.6279,-2.6038,-2.6012,-2.6056,-2.6263,-2.6321,-2.6531,-2.6839,-2.6966,-2.7031,-2.7056,-2.7056,-2.7056,-2.7056,-2.7191,-2.7191,-2.7031,-2.6805,-2.6929,-2.7345,-2.8033,-2.8351,-2.8309,-2.7421,-2.7055,-2.6957,-2.6235,-2.5958,-2.5875,-2.5383,-2.5301,-2.537,-2.5024,-2.424,-2.3276,-2.2533,-2.216,0.0,0.0,-2.215,-2.2429,-2.2598,-2.2528,-2.2302,-2.1888,-2.1447,-2.1104,-2.1025,-2.0772,-2.0825,0.0,-2.2456,-2.27,-2.2226,0.0,-2.2141,-2.1647,-2.2432,-2.2673,-2.1451,-2.2855,-2.3483,-2.2213,-2.3698,-2.4544,-2.3973,-2.493,-2.5559,-2.5561,-2.5821,-2.6316,-2.7068,-2.6456,-2.6372,-2.7017,-2.588,0.0,0.0,0.0,0.0,0.0,0.0,0.0,0.0,0.0,0.0,0.0,0.0,0.0,0.0,0.0,0.0,0.0,0.0,0.0,0.0,0.0,0.0,0.0,0.0,0.0,0.0,0.0,0.0,-2.7341,-2.7716,0.0,-2.6604,-2.648,-2.617,-2.5471,-2.546,-2.5449,-2.5363,-2.5375,-2.5638,-2.6192,-2.6228,-2.6329,-2.6552,-2.6587,-2.662,-2.662,-2.638,-2.6277,-2.6277,-2.6057,-2.5884,-2.5732,-2.5971,-2.6133,-2.6205,-2.6716,-2.7046,-2.7188,-2.645,-2.6162,-2.6012,-2.5616,-2.5383,-2.5213,-2.4693,-2.4437,-2.4296,-2.3785,-2.3263,-2.2703,-2.1861,-2.1743,-2.1834,-2.1479,-2.144,-2.1583,-2.2043,-2.1646,-2.1141,-2.1236,-2.1214,-2.097,-2.0162,-2.0477,-2.0696,-2.0039,-2.0715,-2.137,-2.1288,-2.1296,-2.1325,-2.1321,-2.1769,-2.2025,-2.1755,-2.2473,-2.2841,-2.246,-2.3202,-2.3637,-2.3432,-2.3989,-2.4353,-2.4353,-2.4625,-2.514,-2.5851,-2.567,-2.5577,-2.5628,-2.4997,-2.4173,0.0,0.0,0.0,0.0,0.0,0.0,0.0,0.0,0.0,0.0,0.0,0.0,0.0,0.0,0.0,0.0,0.0,0.0,0.0,0.0,0.0,0.0,0.0,0.0,0.0,0.0,-2.6942,-2.6662,-2.6955,-2.6848,-2.6007,-2.5902,-2.5611,-2.4983,-2.4988,-2.4978,-2.4909,-2.484,-2.5031,-2.5569,-2.5476,-2.5464,-2.5569,-2.5499,-2.5429,-2.5358,-2.5146,-2.5004,-2.4909,-2.4731,-2.4587,-2.4551,-2.5063,-2.5193,-2.5134,-2.5417,-2.5615,-2.5753,-2.5679,-2.547,-2.5163,-2.4961,-2.4549,-2.3979,-2.3317,-2.2995,-2.279,-2.2283,-2.2039,-2.1825,-2.1235,-2.1222,-2.1307,-2.0958,-2.0773,-2.0792,-2.1252,-2.0896,-2.0431,-2.0514,-2.0652,-2.0509,-1.9472,-1.9796,-1.9989,-1.9051,-1.9658,-2.0335,-2.0283,-2.0371,-2.0497,-2.0646,-2.0981,-2.1288,-2.1506,-2.1789,-2.2058,-2.2235,-2.2498,-2.2752,-2.2991,-2.3196,-2.3427,-2.379,-2.3777,-2.4201,-2.5159,-2.4739,-2.4604,-2.4828,-2.4033,-2.3143,-2.2208,0.0,0.0,0.0,0.0,0.0,0.0,0.0,0.0,0.0,0.0,0.0,0.0,0.0,0.0,0.0,0.0,0.0,0.0,0.0,0.0,0.0,0.0,0.0,-2.4971,-2.5556,-2.5892,-2.5706,-2.5881,-2.5918,-2.5606,-2.5535,-2.5382,-2.4981,-2.4945,-2.4826,-2.4636,-2.4456,-2.4337,-2.4337,-2.4022,-2.3852,-2.3888,-2.3692,-2.3482,-2.3298,-2.3261,-2.3165,-2.2995,-2.3176,-2.3335,-2.3556,-2.3973,-2.4143,-2.4154,-2.4276,-2.4228,-2.4156,-2.5146,-2.5149,-2.454,-2.4324,-2.3501,-2.2336,-2.1394,-2.1083,-2.0996,-2.0655,-2.0549,-2.0571,-2.0539,-2.0463,-2.0366,-2.0366,-2.0226,-2.0096,-2.0302,-2.0366,-2.0245,-1.9706,-1.9678,-1.9596,-1.8948,-1.8592,-1.8527,-1.8896,-1.939,-1.9636,-1.9267,-1.9537,-1.9745,-1.9603,-2.0054,0.0,-2.0561,-2.0823,-2.1095,-2.1353,-2.1509,-2.1859,-2.2495,-2.2512,-2.2898,-2.3876,-2.3266,-2.3536,-2.5069,-2.3688,-2.349,-2.4781,-2.3125,-2.1659,-2.0455,0.0,0.0,0.0,0.0,0.0,0.0,0.0,0.0,0.0,0.0,0.0,0.0,0.0,0.0,0.0,0.0,0.0,0.0,0.0,0.0,0.0,-2.3201,-2.3992,-2.4884,-2.4908,-2.4969,-2.5371,-2.5133,-2.4909,-2.4802,-2.4419,-2.402,-2.3801,-2.3497,-2.3239,-2.3054,-2.2979,-2.3016,-2.3165,-2.3091,-2.3091,-2.3254,-2.3191,-2.3202,-2.3298,-2.2718,-2.2558,-2.2767,-2.2252,-2.2101,-2.2327,-2.258,-2.2692,-2.2692,-2.3016,-2.3054,-2.2936,-2.3705,-2.391,-2.3712,-2.356,-2.2787,-2.1721,-2.0818,-2.0292,-1.9977,-1.9726,-1.9661,-1.9639,-1.9528,-1.9495,-1.9462,-1.9462,-1.9429,-1.9396,-1.9419,-1.9462,-1.942,-1.9402,-1.9403,-1.934,-1.8965,-1.8812,-1.8693,-1.8457,-1.8608,-1.891,-1.9345,-1.9636,-1.9705,-1.942,-1.9948,0.0,-2.012,-2.0686,-2.1002,-2.077,-2.1208,-2.1443,-2.1251,-2.1733,-2.2126,-2.2323,-2.2326,-2.2671,-2.3441,-2.2902,-2.2532,-2.2363,-2.1571,-2.0478,0.0,0.0,0.0,0.0,0.0,0.0,0.0,0.0,0.0,0.0,0.0,0.0,0.0,0.0,0.0,0.0,0.0,0.0,0.0,0.0,0.0,0.0,-2.2793,-2.336,-2.3955,-2.399,-2.4024,-2.4301,-2.3973,-2.3717,-2.3644,-2.3287,-2.3001,-2.2815,-2.259,-2.2365,-2.2138,-2.2063,-2.2025,-2.2063,-2.1987,-2.1966,-2.1983,-2.1983,-2.2069,-2.2166,-2.1624,-2.1471,-2.1672,-2.1223,-2.1146,-2.1454,-2.1721,-2.1807,-2.1769,-2.2063,-2.1901,0.0,0.0,0.0,0.0,0.0,-2.1204,-2.0557,-1.9637,-1.9215,-1.9008,-1.871,-1.8677,-1.8754,-1.8664,-1.864,-1.864,-1.864,-1.8532,-1.8431,-1.859,-1.8522,-1.8464,-1.879,-1.8875,-1.8836,-1.8733,-1.8591,-1.8446,-1.8351,-1.8291,0.0,-1.9109,-1.9304,-1.9292,-1.9049,-1.9465,-1.9744,-1.9629,-2.0032,-2.0316,-2.0277,-2.0548,-2.0763,-2.0874,-2.1088,0.0,0.0,0.0,-2.1383,-2.1626,-2.1745,0.0,0.0,0.0,-1.9638,-1.8485,0.0,0.0,0.0,-1.8014,-1.7939,0.0,0.0,0.0,0.0,0.0,0.0,0.0,0.0,0.0,0.0,0.0,0.0,0.0,0.0,0.0,0.0,-2.2574,-2.2692,-2.2515,-2.2767,-2.2953,-2.2841,-2.2708,-2.2531,-2.2252,-2.2252,-2.2176,-2.1987,-2.1911,-2.1807,-2.1655,0.0,0.0,0.0,0.0,-2.0634,-2.045,-2.045,-2.044,-2.0479,-2.0264,-2.0186,-2.0216,-2.0186,-2.0411,-2.0789,-2.1146,-2.1233,-2.1089,-2.1272,-2.0885,-2.0285,-2.1544,-2.169,-2.1026,-1.9762,-1.9318,-1.9193,-1.8277,0.0,0.0,-1.775,-1.7759,-1.7906,-1.7872,-1.7872,-1.7872,-1.7872,-1.7624,-1.7444,-1.7765,-1.7614,-1.7477,-1.8035,-1.8168,-1.8202,-1.8371,-1.8148,-1.7988,-1.8378,-1.825,-1.8198,-1.8603,-1.8776,-1.8799,-1.8613,-1.8827,-1.9058,-1.913,-1.925,-1.9452,-1.9725,0.0,0.0,-2.0756,-2.0484,-2.0641,-2.1573,-2.0702,-2.009,-1.9901,-2.0368,-2.028,-1.9606,-1.9387,-1.8927,-1.8126,-1.7743,-1.7327,-1.6862,-1.7606,-1.7771,0.0,0.0,0.0,0.0,0.0,0.0,0.0,0.0,0.0,0.0,0.0,0.0,0.0,0.0,0.0,-2.114,-2.1223,-2.128,-2.1242,-2.1175,-2.128,-2.1728,-2.203,-2.1919,-2.1185,-2.1165,-2.1175,-2.1136,-2.0838,-2.0615,-2.0576,-2.0186,-1.9951,-1.9921,-1.9696,-1.9578,-1.9539,-1.9539,-1.9608,-1.9805,0.0,0.0,-1.9726,-1.9578,-1.9627,-1.9872,-2.0098,-2.0177,-2.0177,-2.042,-2.0323,-1.9991,-2.0185,-2.0118,-1.9795,-1.9017,-1.8776,-1.8709,-1.789,-1.7632,-1.7608,-1.7185,-1.7176,-1.7304,-1.6959,-1.6968,0.0,-1.7107,-1.7051,-1.7005,-1.7088,-1.7051,-1.7083,-1.7354,-1.7407,-1.7476,-1.7784,-1.7784,-1.7823,-1.8056,-1.8041,-1.8002,-1.7935,-1.8545,-1.8909,-1.85,-1.8891,-1.9126,-1.8765,-1.919,-1.9404,-1.9047,-1.9371,-1.9522,-1.926,-1.964,-1.9944,-2.0042,-1.9994,-1.9751,-1.9303,-1.9367,-1.909,-1.8375,-1.8138,-1.773,-1.7091,-1.7326,-1.7135,-1.6586,-1.6801,-1.6804,0.0,0.0,0.0,0.0,0.0,0.0,0.0,0.0,0.0,0.0,0.0,-2.0068,-2.0007,0.0,-2.0197,-2.0472,-2.0372,-2.0235,-2.0235,-2.027,-2.0446,-2.0848,-2.1065,-2.0997,-2.0411,-2.0401,-2.0401,-2.0401,-2.0216,-2.0108,-2.0108,-1.9794,-1.9699,-1.9894,-1.9703,-1.9613,-1.9613,-1.9483,-1.9503,-1.9578,-1.9082,-1.9073,-1.945,-1.9152,-1.9161,-1.9487,-1.9881,-1.9942,-1.9754,-1.9676,-1.9584,-1.9436,-1.931,-1.9304,-1.9336,-1.8853,-1.8471,-1.8156,-1.7439,-1.7073,-1.6874,-1.6665,-1.6656,-1.6691,-1.6438,-1.6412,-1.6447,-1.6272,-1.6061,-1.5912,-1.6,-1.5983,-1.5981,-1.6384,-1.6577,-1.6751,-1.7088,-1.7157,-1.717,-1.7133,-1.7129,-1.7096,-1.6893,-1.723,-1.7656,-1.8009,-1.8211,-1.8305,-1.8184,-1.8355,-1.8429,-1.8263,-1.8478,-1.8596,-1.8418,-1.8611,-1.8677,-1.8529,-1.8584,-1.8458,-1.8012,-1.7992,-1.7726,-1.7173,-1.7054,-1.6755,-1.6314,-1.6513,-1.6331,-1.5851,-1.5895,-1.6008,0.0,0.0,0.0,0.0,0.0,0.0,0.0,0.0,-2.0059,-1.9696,-1.9345,-1.9199,-1.9571,-1.9364,-1.9351,-1.9875,-1.9648,-1.9411,-1.9411,-1.969,-1.9909,-2.0063,-2.022,-2.0148,-1.986,-1.9869,-1.9909,-1.9949,-1.9909,-1.9872,-1.9827,-1.9672,-1.9709,-1.9947,-1.9834,-1.9756,-1.9756,-1.9542,-1.9385,-1.9359,-1.8807,-1.8723,-1.8984,-1.8883,-1.8963,-1.921,-1.974,-1.9783,-1.9408,-1.9042,-1.8882,-1.8843,-1.8652,-1.8734,-1.897,-1.8665,-1.8237,-1.7707,-1.7114,-1.6643,-1.6334,-1.6193,-1.6132,-1.6061,-1.5885,-1.5815,-1.5744,-1.5355,-1.5025,-1.4825,-1.498,-1.4911,-1.4937,-1.5448,-1.57,-1.5877,-1.6184,-1.6289,-1.6227,-1.612,-1.6125,-1.6091,-1.5863,-1.5872,-1.6242,-1.7316,-1.7329,-1.726,-1.7467,-1.7295,-1.726,-1.7398,-1.7432,-1.7491,-1.7653,-1.7526,-1.7364,-1.7201,-1.7241,-1.7102,-1.6698,-1.6692,-1.6482,-1.6026,-1.5974,-1.5842,-1.5551,-1.5515,-1.5338,-1.5018,-1.4991,-1.5303,-2.0046,-2.0265,-2.0588,-2.0332,-2.0693,-2.1085,0.0,0.0,-1.9857,-1.9494,-1.9203,-1.8994,-1.9001,-1.9029,-1.9067,-1.9112,-1.8962,-1.8812,-1.8812,-1.9092,-1.9315,-1.9311,-1.9841,-2.0057,-1.9576,-1.972,-1.9889,-2.0048,-1.9931,-1.9779,-1.9657,-1.9558,-1.936,-1.907,-1.9184,-1.9281,-1.9281,-1.8885,-1.8612,-1.8454,-1.8203,-1.7991,-1.791,-1.8833,-1.906,-1.8772,-1.9016,-1.9007,-1.8772,-1.8563,-1.8482,-1.8442,-1.8201,-1.8006,-1.7912,-1.8096,-1.8032,-1.7707,-1.7102,-1.6747,-1.6451,-1.5784,-1.5461,-1.524,-1.4892,-1.4784,-1.4713,-1.4489,-1.4386,-1.4363,-1.4402,-1.4378,-1.4434,-1.4661,-1.4748,-1.4812,-1.5046,-1.5081,-1.5136,-1.5288,-1.5465,-1.5535,-1.5323,-1.5429,-1.5834,-1.6603,-1.6559,-1.649,-1.6707,-1.6559,-1.6446,-1.6446,-1.6446,-1.6481,-1.6481,-1.6481,-1.6446,-1.6411,-1.6643,-1.6509,-1.5956,-1.5927,-1.5663,-1.5081,-1.4883,-1.4784,-1.474,-1.4553,-1.4446,-1.4418,-1.4274,-1.4597,-1.9321,-1.9277,-1.9377,0.0,-2.0017,-2.0107,-2.006,-1.9466,-1.8929,-1.904,-1.8544,-1.821,-1.8642,-1.8477,-1.8345,0.0,-1.8442,-1.8282,-1.8282,-1.8412,-1.8681,-1.9132,-1.9249,-1.9293,-1.9418,-1.9674,-1.9759,-1.9699,-1.9614,-1.9544,-1.9503,-1.9238,-1.9196,-1.935,-1.9332,-1.9349,-1.9376,-1.9092,-1.8666,-1.8108,-1.8027,-1.7951,-1.7878,-1.8357,-1.8641,-1.8865,-1.87,-1.8735,-1.8816,-1.8377,-1.8161,-1.8161,-1.791,-1.7781,-1.7723,-1.7843,-1.7576,-1.7156,-1.6707,-1.6302,-1.5883,-1.5336,-1.4927,-1.4669,-1.4533,-1.431,-1.4093,-1.3884,-1.3739,-1.3622,-1.3513,-1.3659,-1.3848,-1.3928,-1.4137,-1.4346,-1.4561,-1.4597,-1.4605,-1.4582,-1.4646,-1.4576,-1.4269,-1.4382,-1.4622,-1.4906,-1.5267,-1.5515,-1.5613,-1.5436,-1.5294,-1.5294,-1.5294,-1.5294,-1.5294,-1.5294,-1.5294,-1.5294,-1.5416,-1.5289,-1.4848,-1.4913,-1.4704,-1.4101,-1.4238,-1.4129,-1.3775,-1.3811,-1.3695,-1.3477,-1.3483,-1.3636,-1.8254,-1.8196,0.0,-1.9084,-1.9247,-1.9151,-1.9079,-1.8485,-1.8091,-1.8469,-1.7843,-1.7466,-1.8337,-1.8042,-1.7821,-1.8233,-1.8121,-1.8,-1.8,-1.8179,-1.8519,-1.8998,-1.8948,-1.9007,-1.9213,-1.9557,-1.9713,-1.9531,-1.954,-1.9453,-1.9307,-1.9114,-1.9127,-1.9362,-1.9323,-1.9276,-1.9204,-1.8888,-1.844,-1.7819,-1.7759,-1.7708,-1.7668,-1.7829,-1.8245,-1.8763,-1.8365,-1.8316,-1.8434,-1.7867,-1.7627,-1.7546,-1.7343,-1.7253,-1.7253,-1.7253,-1.7089,-1.6811,-1.6427,-1.5877,-1.5327,-1.4867,-1.4387,-1.3985,-1.3992,-1.3768,-1.3513,-1.3229,-1.3083,-1.2973,-1.279,-1.2973,-1.3273,-1.3309,-1.3557,-1.3804,-1.3956,-1.3992,-1.3952,-1.3815,-1.3796,-1.3769,-1.3459,-1.3573,-1.3684,-1.3658,-1.4101,-1.4497,-1.4661,-1.4561,-1.4461,-1.4461,-1.4461,-1.4425,-1.4397,-1.4397,-1.4392,-1.4413,-1.4336,-1.4212,-1.3975,-1.3965,-1.3739,-1.3273,-1.3477,-1.3404,-1.2936,-1.3046,-1.2973,-1.2716,-1.2743,-1.2725,-1.6179,0.0,-1.7355,-1.7846,-1.8287,-1.8563,-1.821,-1.7762,-1.7515,-1.7858,-1.729,-1.7047,-1.8021,-1.7952,-1.7781,-1.8,-1.8,-1.8,-1.8,-1.8674,-1.905,-1.8648,-1.9256,-1.9433,0.0,-1.9329,-1.9739,-1.9869,-1.9894,-1.9644,-1.9018,-1.9356,-1.9269,-1.8558,-1.8836,-1.8844,-1.8516,-1.7948,-1.755,-1.7307,-1.7178,-1.6976,-1.6771,-1.7416,-1.7951,-1.8296,-1.7909,-1.7505,-1.7155,-1.6861,-1.6607,-1.6435,-1.6245,-1.6128,-1.6128,-1.6128,-1.6566,-1.7025,-1.6389,-1.5725,-1.5042,-1.4502,-1.3844,-1.32,-1.301,-1.2936,-1.2826,-1.2452,-1.2489,-1.2562,-1.2378,-1.2489,-1.2673,-1.2863,-1.2936,-1.2936,-1.2936,-1.2936,-1.2929,-1.2922,-1.3105,-1.3222,-1.3215,-1.3368,-1.3448,-1.3236,-1.3229,-1.3448,-1.4057,-1.4129,-1.4129,-1.4129,-1.4129,-1.4029,-1.3826,-1.3826,-1.3851,-1.3938,-1.3667,-1.3557,-1.3599,-1.3165,-1.2863,-1.2636,-1.2452,-1.2342,-1.2342,-1.215,-1.215,-1.2305,-1.2127,-1.2016,-1.5111,0.0,-1.6192,-1.6965,-1.7614,-1.7957,-1.7878,-1.7561,-1.7424,-1.7942,-1.7154,-1.6676,-1.7669,-1.7741,-1.7664,-1.7782,-1.8155,-1.8355,-1.8276,-1.8336,-1.8509,-1.8745,-1.8647,0.0,0.0,0.0,0.0,-1.9326,-1.953,-1.9521,-1.9154,-1.8859,-1.8644,-1.8394,-1.8113,-1.7933,-1.7709,-1.7504,-1.7185,-1.6731,-1.6983,-1.7228,-1.7497,-1.7499,-1.749,-1.7483,-1.7024,-1.6763,-1.6599,-1.6409,-1.6245,-1.6162,-1.5948,-1.5824,-1.5782,-1.5325,-1.5318,-1.5516,-1.5514,-1.5293,-1.4843,-1.4097,-1.3511,-1.3009,-1.2772,-1.2526,-1.2268,-1.215,-1.204,-1.2003,-1.1929,-1.215,-1.2378,-1.2335,-1.2526,-1.2673,-1.2526,-1.2489,-1.2489,-1.2489,-1.2562,-1.2562,-1.2415,-1.2562,-1.2636,-1.2415,-1.2746,-1.3083,-1.3295,-1.3295,-1.3295,-1.3295,-1.3185,-1.3076,-1.301,-1.2863,-1.2795,-1.2854,-1.2735,-1.2647,-1.2557,-1.2506,-1.2342,-1.2003,-1.1929,-1.1855,-1.1706,-1.1484,-1.1521,-1.1713,-1.1532,-1.1542,-1.4116,-1.4663,-1.5246,-1.6331,-1.6807,-1.7012,-1.7012,-1.6907,-1.6916,-1.7305,-1.6751,-1.6473,-1.7392,-1.7395,-1.7366,-1.7539,-1.7983,-1.8307,-1.8376,-1.8196,-1.8249,-1.8621,-1.8259,-1.822,0.0,0.0,0.0,-1.9001,-1.9044,-1.8958,-1.8717,-1.8321,-1.8057,-1.7938,-1.7498,-1.7235,-1.7143,-1.6891,-1.6544,-1.6147,-1.6685,-1.7117,-1.7431,-1.7199,-1.7004,-1.6739,-1.6324,-1.6064,-1.5948,-1.5797,-1.5673,-1.5582,-1.5409,-1.5318,-1.5193,-1.4734,-1.4566,-1.4538,-1.4716,-1.4621,-1.4223,-1.366,-1.3113,-1.2636,-1.2488,-1.2162,-1.1892,-1.1818,-1.1744,-1.1669,-1.1521,-1.1744,-1.1966,-1.1818,-1.1966,-1.2157,-1.2114,-1.2077,-1.2077,-1.2077,-1.2077,-1.204,-1.1929,-1.1929,-1.1892,-1.1706,-1.2003,-1.2342,-1.2562,-1.2636,-1.2673,-1.2673,-1.2562,-1.2415,-1.2298,-1.2157,-1.2085,-1.204,-1.1987,-1.1937,-1.1853,-1.1875,-1.1706,-1.1372,-1.1298,-1.1186,-1.0962,-1.0925,-1.0962,-1.108,-1.1071,-1.1115,-1.3211,-1.3782,-1.4468,-1.5812,-1.594,-1.5758,-1.5785,-1.5937,-1.6053,-1.6092,-1.6147,-1.6413,0.0,0.0,-1.6885,-1.7343,-1.7588,-1.7885,-1.8288,-1.8305,-1.8297,0.0,0.0,0.0,0.0,0.0,0.0,-1.8866,0.0,-1.8099,-1.7814,-1.7798,-1.7596,-1.7286,-1.7027,-1.6842,-1.6842,-1.6058,-1.5699,-1.5763,-1.6363,-1.6635,-1.6598,-1.6571,-1.642,-1.6147,-1.5807,-1.5465,-1.509,-1.509,-1.4915,-1.4692,-1.4692,-1.4524,-1.4356,-1.4314,-1.4181,-1.4019,-1.4033,-1.3693,-1.3292,-1.3279,-1.2748,-1.2151,-1.2081,-1.1872,-1.1651,-1.1416,-1.1484,-1.1558,-1.1186,-1.1223,-1.1372,-1.1372,-1.1372,-1.1409,-1.1595,-1.1632,-1.1632,-1.1632,-1.1632,-1.1632,-1.1632,-1.1484,-1.1298,-1.1074,-1.1037,-1.126,-1.1892,-1.2114,-1.2224,-1.2224,-1.2224,-1.2077,-1.1706,-1.1632,-1.1596,-1.155,-1.1401,-1.1414,-1.1557,-1.125,-1.0962,-1.0775,-1.0556,-1.0368,-1.018,-1.0368,-1.0443,-1.0481,-1.0625,-1.0738,-1.2654,-1.3228,-1.3666,-1.4965,-1.5265,-1.5305,-1.5393,-1.5517,-1.5642,-1.5963,-1.5995,-1.6141,0.0,0.0,0.0,-1.7546,-1.8112,0.0,-1.8871,-1.8581,0.0,-1.8846,0.0,-1.8283,-1.8201,-1.7909,0.0,0.0,-1.8037,-1.8099,-1.7814,-1.7583,-1.7315,-1.7008,-1.6549,-1.6209,-1.6027,-1.582,-1.5951,-1.6384,-1.6329,-1.6316,-1.6385,-1.6242,-1.5872,-1.538,-1.5362,-1.512,-1.4783,-1.4783,-1.4776,-1.465,-1.437,-1.4117,-1.3815,-1.3343,-1.3082,-1.3039,-1.2875,-1.3178,-1.351,-1.2959,-1.276,-1.2612,-1.1883,-1.1595,-1.1459,-1.0871,-1.0775,-1.0775,-1.0663,-1.0812,-1.0925,-1.0775,-1.085,-1.0925,-1.0812,-1.0925,-1.0999,-1.085,-1.0812,-1.0812,-1.0812,-1.0775,-1.0663,-1.0475,-1.0438,-1.0663,-1.126,-1.1372,-1.1409,-1.1409,-1.126,-1.1149,-1.1037,-1.0887,-1.0804,-1.0793,-1.0741,-1.0729,-1.0799,-1.0697,-1.055,-1.0368,-1.0143,-0.9954,-0.9771,-0.9657,-0.9771,-1.003,-0.9647,-0.9609,-1.1865,-1.2469,-1.3104,-1.4354,-1.4604,-1.4656,-1.4938,-1.5129,-1.5274,-1.5453,-1.5539,0.0,-1.6005,-1.6438,0.0,0.0,0.0,0.0,-1.8458,-1.8239,-1.8212,0.0,-1.8382,0.0,-1.8205,-1.7897,-1.7541,0.0,-1.7294,-1.7326,-1.7071,-1.6891,-1.6705,-1.6572,-1.6046,-1.5616,-1.5276,-1.5559,-1.5739,-1.5771,-1.5929,-1.5901,-1.5813,-1.569,-1.5403,-1.4993,0.0,-1.4527,-1.4237,-1.4153,-1.4153,-1.4104,-1.3779,-1.3568,-1.3398,-1.2875,-1.2705,-1.2662,-1.2448,-1.2705,-1.3063,-1.2662,-1.2451,-1.2299,-1.1721,-1.147,-1.1274,-1.0929,-1.0734,-1.0672,-1.0565,-1.0537,-1.0509,-1.0391,-1.0443,-1.0513,-1.0519,-1.0588,-1.0625,-1.0406,-1.0368,-1.0331,-1.0143,-1.0105,-1.003,-0.9846,-0.9809,-0.9879,-1.0132,-1.04,-1.0556,-1.0556,-1.0481,-1.0368,-1.0293,-1.018,-1.0105,-1.0105,-1.0105,-1.0067,-0.9992,-0.996,-0.9841,-0.9533,-0.9425,-0.9273,-0.9089,-0.8975,-0.9013,-0.9236,-0.8894,-0.8856,-1.1171,-1.1879,-1.2672,-1.3859,-1.3994,-1.3955,-1.4397,-1.4658,-1.4776,-1.4733,0.0,-1.5177,-1.5411,-1.565,-1.5922,-1.6231,0.0,-1.7332,-1.7834,-1.7795,-1.7852,-1.8377,-1.8057,-1.7826,-1.7779,-1.7688,-1.7384,-1.6784,-1.644,-1.6237,-1.6128,-1.6087,-1.6087,-1.6004,-1.5533,-1.5103,-1.4692,-1.5273,-1.5273,-1.4699,-1.5329,-1.5397,-1.5097,-1.5094,-1.5,-1.4738,-1.4271,0.0,-1.3652,-1.3483,-1.3398,-1.3398,-1.3179,-1.31,-1.3009,-1.2747,-1.2619,-1.2577,-1.2412,-1.232,-1.2326,-1.2326,-1.2041,-1.1647,-1.153,-1.1372,-1.1156,-1.1042,-1.091,-1.075,-1.0548,-1.0309,-1.0112,-1.0128,-1.0127,-1.018,-1.0331,-1.04,-1.0368,-1.018,-1.0143,-0.9992,-0.9582,-0.9506,-0.943,-0.9208,-0.917,-0.9089,-0.8889,-0.942,-0.9765,-0.9728,-0.9728,-0.9652,-0.9506,-0.9468,-0.9468,-0.9468,-0.9468,-0.9359,-0.9208,-0.917,-0.8975,-0.8589,-0.8589,-0.8475,-0.8289,-0.8289,-0.8289,-0.8322,-0.825,-0.825,-1.1713,-1.2124,-1.2581,-1.3623,-1.3705,-1.3605,-1.381,-1.3758,0.0,0.0,-1.4402,-1.4755,-1.5492,-1.5982,-1.6454,-1.7009,-1.7343,-1.7754,-1.8439,-1.8346,-1.8406,0.0,-1.843,-1.7846,-1.76,-1.7102,0.0,0.0,-1.568,-1.5733,-1.6087,-1.6087,-1.5914,-1.5526,-1.5068,-1.4776,-1.4692,-1.4803,-1.4803,-1.4699,-1.4954,-1.4874,-1.4536,-1.4649,-1.4427,-1.3907,-1.3875,0.0,-1.3434,-1.3398,-1.3398,-1.3398,-1.3179,-1.2966,-1.2747,-1.2534,-1.2326,-1.2123,-1.208,-1.1952,-1.1871,-1.2037,-1.2009,-1.1849,-1.1251,-1.108,-1.0921,-1.0284,-1.0111,-1.006,-1.0024,-0.9866,-0.9713,-0.9712,-0.9717,-0.9733,-0.9733,-0.9879,-0.9992,-0.9954,-0.9809,-0.9582,-0.9155,-0.9117,-0.8965,-0.8594,-0.8408,-0.8293,-0.8255,-0.878,-0.9079,-0.8927,-0.8894,-0.8894,-0.8856,-0.8856,-0.8856,-0.8856,-0.8708,-0.8594,-0.8556,-0.8394,-0.8199,-0.7974,-0.7974,-0.7863,-0.7638,-0.7638,-0.7748,-0.7902,-0.7561,-0.7488,-1.1493,-1.1899,-1.2357,-1.3238,-1.3244,-1.3207,-1.36,0.0,0.0,0.0,-1.4328,-1.4489,-1.5242,-1.565,0.0,-1.6244,-1.6609,-1.7027,-1.7593,-1.7679,0.0,-1.8149,-1.7995,-1.7682,0.0,-1.6936,-1.6461,-1.5701,-1.558,-1.5549,-1.5722,-1.5631,-1.5374,-1.4894,-1.4643,-1.4489,-1.437,-1.437,-1.437,-1.437,-1.4442,-1.435,-1.4033,-1.4104,-1.3911,-1.3532,-1.3452,0.0,-1.3052,-1.2918,-1.2796,-1.2631,-1.246,-1.2375,-1.2332,-1.2118,-1.2037,-1.2,-1.2,-1.1774,-1.151,-1.1596,-1.1559,-1.1413,-1.099,-1.0825,-1.0762,-1.04,-1.0201,-1.0092,-1.0103,-0.9872,-0.9597,-0.9597,-0.9517,-0.9435,-0.9435,-0.9511,-0.9544,-0.9311,-0.9198,-0.897,-0.847,-0.8394,-0.828,-0.7978,-0.7868,-0.7753,-0.7642,-0.7868,-0.8131,-0.8365,-0.8284,-0.8241,-0.8241,-0.8131,-0.8131,-0.8241,-0.8055,-0.794,-0.794,-0.7748,-0.7557,-0.7322,-0.7322,-0.7284,-0.7173,-0.7099,-0.7134,-0.7322,-0.7022,-0.6945,-1.1537,-1.1854,-1.2295,-1.2973,-1.2966,-1.2918,-1.3434,-1.3434,0.0,0.0,-1.4243,-1.425,-1.5041,-1.5276,-1.5436,0.0,-1.5873,-1.6217,-1.6584,-1.6798,-1.6965,0.0,-1.7274,0.0,-1.6731,-1.6664,0.0,-1.5562,-1.5455,-1.5354,-1.5271,-1.5048,-1.4783,-1.4398,-1.4356,-1.4237,-1.4088,-1.4088,-1.4088,-1.3997,-1.3997,-1.387,-1.3652,-1.361,-1.3483,-1.3313,-1.3052,0.0,0.0,-1.2412,-1.2203,-1.2,-1.1828,-1.1871,-1.2,-1.178,-1.178,-1.1817,-1.1823,-1.151,-1.1154,-1.1111,-1.1035,-1.0916,-1.0689,-1.0598,-1.0598,-1.0554,-1.0381,-1.0202,-1.0119,-0.9859,-0.9596,-0.9533,-0.932,-0.9103,-0.9148,-0.9123,-0.8975,-0.8589,-0.8508,-0.8318,-0.7706,-0.7629,-0.7595,-0.733,-0.7292,-0.7253,-0.7142,-0.7103,-0.7257,-0.7795,-0.771,-0.7591,-0.7591,-0.748,-0.7442,-0.7591,-0.7365,-0.7253,-0.7253,-0.7022,-0.683,-0.6672,-0.6749,-0.6788,-0.6788,-0.6602,-0.6598,-0.6749,-0.6602,-0.6525,-1.2432,-1.2619,-1.2747,-1.3264,-1.3222,-1.3094,-1.3143,0.0,0.0,-1.3688,-1.3779,-1.4068,-1.5186,-1.5394,-1.5526,-1.5963,0.0,-1.6175,-1.6327,-1.638,-1.6421,-1.6559,0.0,0.0,-1.6077,-1.584,-1.5604,-1.5274,-1.4937,-1.4769,-1.4783,-1.4566,-1.444,-1.4398,-1.4201,-1.413,-1.4088,-1.4088,-1.3997,-1.3737,-1.3737,-1.361,-1.3434,-1.3222,-1.3137,-1.3094,-1.2668,0.0,0.0,-1.2118,-1.2043,-1.2,-1.2,-1.2,-1.1995,-1.1768,-1.1542,-1.1327,-1.116,-1.0944,-1.0727,-1.0467,-1.0554,-1.0684,-1.0424,-1.0337,-1.0294,-1.0125,-1.0038,-0.9947,-0.9493,-0.9508,-0.9563,-0.9387,-0.8878,-0.8525,-0.8705,-0.8604,-0.836,-0.7974,-0.7897,-0.7706,-0.7092,-0.7138,-0.7142,-0.6756,-0.6676,-0.6753,-0.6903,-0.6753,-0.6753,-0.698,-0.6976,-0.6976,-0.6976,-0.698,-0.698,-0.6976,-0.6641,-0.6412,-0.6412,-0.6177,-0.6015,-0.5977,-0.6215,-0.6335,-0.6335,-0.6338,-0.6338,-0.6335,-0.6338,-0.6338,-1.2021,-1.2209,-1.2418,-1.3052,-1.3052,-1.2966,-1.3355,0.0,-1.3307,-1.3977,-1.3899,-1.4026,-1.5033,-1.5068,-1.5117,0.0,0.0,0.0,-1.5862,-1.5863,-1.585,-1.58,-1.5658,0.0,0.0,0.0,-1.4824,-1.4574,-1.4396,-1.4328,-1.4328,-1.4363,-1.4398,-1.4398,-1.4201,-1.3997,-1.387,-1.387,-1.3737,-1.3525,-1.3525,-1.3398,-1.3222,-1.3143,-1.3009,-1.2839,-1.2534,0.0,0.0,-1.1725,-1.1516,-1.1397,-1.1257,-1.1208,-1.1208,-1.1117,-1.103,-1.0939,-1.0857,-1.0641,-1.0424,-1.0207,-1.0081,-1.0038,-1.0077,-0.9994,-0.9864,-0.9777,-0.9694,-0.9501,-0.9165,-0.8927,-0.8704,-0.8506,-0.8226,-0.802,-0.8093,-0.7961,-0.7748,-0.7322,-0.7246,-0.7088,-0.6527,-0.6429,-0.6359,-0.6133,-0.6152,-0.6212,-0.6286,-0.6209,-0.6212,-0.6286,-0.6444,-0.6525,-0.6525,-0.6293,-0.6135,-0.6135,-0.5986,-0.587,-0.587,-0.5902,-0.5902,-0.5902,-0.618,-0.63,-0.63,-0.63,-0.63,-0.63,-0.6412,-0.6412,-1.1975,-1.2135,-1.2422,-1.3161,-1.3075,-1.2954,0.0,0.0,-1.3227,-1.3884,-1.376,-1.3766,-1.4434,-1.4557,-1.4667,0.0,0.0,-1.4977,-1.5291,-1.5212,-1.5118,0.0,0.0,-1.4913,0.0,-1.4522,-1.4436,-1.4229,-1.4135,-1.4088,-1.4088,-1.4159,-1.4188,-1.4188,-1.399,-1.3786,-1.361,-1.361,-1.3519,-1.3307,-1.3307,-1.3179,-1.2966,-1.2924,-1.279,-1.2619,-1.2326,0.0,0.0,-1.1381,-1.1127,-1.0965,-1.0776,-1.0684,-1.0684,-1.0554,-1.0467,-1.0467,-1.0337,-1.0168,-0.9951,-0.9733,-0.9563,-0.9428,-0.9559,-0.9559,-0.9519,-0.9519,-0.9261,-0.897,-0.8851,-0.8381,-0.795,-0.7964,-0.779,-0.7567,-0.7496,-0.7331,-0.711,-0.6724,-0.6617,-0.6424,-0.6018,-0.5912,-0.5825,-0.5683,-0.5728,-0.5825,-0.5899,-0.5864,-0.5825,-0.5899,-0.5944,-0.6025,-0.6106,-0.5792,-0.5598,-0.5598,-0.5559,-0.5518,-0.5518,-0.5631,-0.5747,-0.5825,-0.606,-0.6219,-0.63,-0.63,-0.6338,-0.6374,-0.649,-0.6409,-1.2699,-1.285,-1.2955,-1.3709,-1.3494,-1.3167,0.0,0.0,-1.2883,-1.3154,-1.3226,-1.3233,-1.3318,-1.3798,-1.422,-1.4318,0.0,0.0,-1.4657,-1.4377,-1.4095,0.0,0.0,-1.4522,-1.4522,-1.4522,-1.4522,-1.4516,-1.4249,0.0,-1.4088,-1.3864,-1.3695,-1.3695,-1.3519,-1.3398,-1.3398,-1.3398,-1.3307,-1.3094,-1.3094,-1.2966,-1.2705,-1.2491,-1.2406,-1.2363,0.0,0.0,0.0,-1.1181,-1.1008,-1.0965,-1.0776,-1.0684,-1.0641,-1.0168,-0.9994,-0.9951,-0.9476,-0.9305,-0.9262,-0.8999,-0.8911,-0.8867,-0.8684,-0.8947,-0.9305,-0.9305,-0.8819,-0.8375,-0.8547,-0.7947,-0.7446,-0.8071,-0.7723,-0.7242,-0.6977,-0.6685,-0.6394,-0.6086,-0.5918,-0.5746,-0.5554,-0.5669,-0.5701,-0.5341,-0.5479,-0.5673,-0.5864,-0.5712,-0.5673,-0.5864,-0.5553,-0.5401,-0.5598,-0.5598,-0.5598,-0.5598,-0.5401,-0.5321,-0.5321,-0.5321,-0.5401,-0.5598,-0.5786,-0.6022,-0.63,-0.63,-0.6412,-0.6602,-0.6412,-0.618,-1.2898,-1.2948,-1.3114,-1.381,-1.3722,-1.3601,-1.4069,0.0,-1.3456,-1.3574,-1.3391,-1.3239,-1.3423,-1.347,-1.3698,-1.4196,-1.4198,0.0,0.0,0.0,0.0,-1.3659,-1.3687,-1.3746,0.0,0.0,-1.3746,-1.3746,-1.3662,-1.361,-1.361,-1.3398,-1.3434,-1.3695,-1.3483,-1.3307,-1.3185,-1.3179,-1.3052,-1.2833,-1.2833,-1.2705,-1.2491,-1.2577,-1.2412,0.0,0.0,0.0,0.0,-1.0992,-1.0603,-1.0304,-1.0038,-0.9864,-0.9738,-0.9563,-0.9388,-0.9213,-0.9087,-0.8951,-0.8771,-0.8508,-0.842,-0.8332,-0.7973,-0.8197,-0.8508,-0.838,-0.8038,-0.7745,-0.7841,-0.7512,-0.7158,-0.721,-0.7037,-0.6737,-0.6487,-0.6266,-0.6024,-0.561,-0.5431,-0.5294,-0.501,-0.5015,-0.5041,-0.501,-0.5221,-0.5479,-0.5673,-0.5518,-0.5479,-0.5673,-0.5207,-0.501,-0.5359,-0.5287,-0.5174,-0.5174,-0.5132,-0.5093,-0.5093,-0.5243,-0.5401,-0.5598,-0.5676,-0.5909,-0.63,-0.6099,-0.6215,-0.6602,-0.6374,-0.6261,0.0,-1.3306,-1.3442,-1.407,-1.405,-1.3947,0.0,0.0,-1.362,-1.3589,-1.3417,-1.3194,-1.2988,-1.3108,-1.3367,-1.3663,-1.3627,-1.3689,0.0,0.0,0.0,-1.344,0.0,0.0,0.0,-1.3398,-1.3398,-1.3398,-1.3307,-1.3222,-1.3137,-1.2966,-1.2881,-1.3058,-1.3052,-1.2966,-1.2839,-1.2839,-1.279,-1.2705,-1.2705,-1.2619,-1.2491,-1.2454,-1.2289,0.0,0.0,0.0,0.0,-1.0641,-1.025,-0.9951,-0.9602,-0.9432,-0.9301,-0.9174,-0.9043,-0.8867,-0.8828,-0.8644,-0.8416,-0.8157,-0.7937,-0.7713,-0.736,-0.7492,-0.776,-0.7544,-0.7415,-0.7326,-0.7146,-0.7058,-0.6922,-0.67,-0.659,-0.644,-0.6092,-0.5906,-0.5704,-0.528,-0.5113,-0.4973,-0.4793,-0.4819,-0.4885,-0.4872,-0.5087,-0.5336,-0.5485,-0.5243,-0.5165,-0.5359,-0.4893,-0.4698,-0.4929,-0.4896,-0.4898,-0.4898,-0.5015,-0.5151,-0.5199,-0.5349,-0.5542,-0.5832,-0.574,-0.5909,-0.63,-0.6215,-0.6289,-0.649,-0.6377,-0.6261,0.0,-1.3899,-1.3974,-1.4454,-1.4367,-1.4177,-1.4491,0.0,0.0,-1.3258,-1.3315,-1.3158,-1.2236,-1.2804,-1.3269,-1.2867,-1.2804,-1.3061,0.0,-1.3381,0.0,0.0,-1.3307,0.0,-1.3313,-1.3313,-1.3313,-1.3313,-1.3137,-1.2924,-1.2662,-1.2448,-1.224,-1.2,-1.224,-1.2363,-1.2363,-1.2406,-1.2491,-1.2662,-1.2662,-1.2662,-1.2619,-1.2203,-1.1952,0.0,0.0,0.0,0.0,-1.026,-0.9951,-0.9864,-0.9432,-0.9262,-0.9218,-0.8955,-0.8823,-0.878,-0.8608,-0.834,-0.8069,-0.7896,-0.7455,-0.7007,-0.6792,-0.6925,-0.7054,-0.6836,-0.6925,-0.6962,-0.6517,-0.6567,-0.6704,-0.6432,-0.634,-0.621,-0.5764,-0.555,-0.5377,-0.5036,-0.4886,-0.4774,-0.4776,-0.498,-0.5077,-0.4831,-0.5041,-0.5236,-0.5271,-0.4945,-0.4784,-0.4965,-0.4616,-0.4384,-0.4384,-0.4582,-0.4701,-0.4737,-0.5087,-0.5375,-0.5497,-0.5586,-0.5774,-0.6181,-0.6018,-0.608,-0.6291,-0.6482,-0.6475,-0.6274,-0.6274,-0.6109,-1.5288,0.0,-1.4305,-1.4527,-1.4336,-1.4116,0.0,0.0,0.0,0.0,0.0,0.0,0.0,-1.3149,-1.3356,-1.3008,-1.2921,-1.2907,-1.2934,0.0,0.0,-1.2619,-1.246,-1.2338,-1.2338,-1.2338,-1.2338,-1.2338,-1.2295,-1.2252,-1.2166,-1.2123,-1.1995,-1.1785,-1.1995,-1.208,-1.208,-1.2454,-1.2454,-1.2166,-1.254,-1.2412,-1.1952,-1.1983,-1.1731,0.0,0.0,0.0,-1.0217,-1.0038,-0.9646,-0.9126,-0.9043,-0.8915,-0.874,-0.8468,-0.8248,-0.812,-0.786,-0.7588,-0.7316,-0.7146,-0.6833,-0.652,-0.6305,-0.6526,-0.6836,-0.6567,-0.652,-0.6517,-0.6432,-0.6432,-0.6387,-0.5985,-0.5852,-0.5719,-0.5275,-0.5124,-0.507,-0.4832,-0.4669,-0.4515,-0.4387,-0.4623,-0.4806,-0.4714,-0.5079,-0.5322,-0.5242,-0.4988,-0.4838,-0.4787,-0.454,-0.4384,-0.4384,-0.4582,-0.4776,-0.4929,-0.5162,-0.5374,-0.5566,-0.5578,-0.5727,-0.595,-0.6222,-0.6358,-0.6386,-0.6352,-0.6337,-0.6228,-0.6023,-0.5729,-1.5843,-1.5251,-1.4637,-1.473,-1.4506,-1.4201,-1.4129,0.0,0.0,0.0,0.0,0.0,0.0,0.0,-1.3603,-1.2857,-1.2733,0.0,0.0,0.0,-1.2032,-1.2203,-1.1897,-1.1725,0.0,-1.186,-1.1811,-1.1682,-1.1688,-1.1639,-1.1559,-1.1472,-1.1343,-1.1257,-1.1429,-1.1688,-1.2,-1.2369,-1.2412,-1.2203,-1.2454,-1.2326,-1.1828,-1.186,-1.1596,0.0,0.0,0.0,-0.9994,-0.965,-0.9257,-0.8867,-0.8644,-0.8512,-0.8384,-0.816,-0.7984,-0.79,-0.7724,-0.7411,-0.7051,-0.6881,-0.6612,-0.6343,-0.6171,-0.6169,-0.6257,-0.6124,-0.6169,-0.621,-0.5988,-0.5988,-0.5941,-0.5497,-0.5364,-0.5275,-0.4924,-0.4879,-0.479,-0.4569,-0.4438,-0.4404,-0.4408,-0.4667,-0.4827,-0.4739,-0.5113,-0.5347,-0.5117,-0.4937,-0.479,-0.478,-0.4572,-0.4384,-0.4384,-0.4582,-0.4737,-0.4851,-0.5126,-0.5386,-0.5528,-0.5593,-0.5743,-0.6038,-0.63,-0.6371,-0.6367,-0.6328,-0.6252,-0.6091,-0.5823,-0.5553,-1.61,-1.5621,-1.5073,-1.5099,-1.4762,-1.4374,-1.4275,0.0,0.0,0.0,0.0,0.0,0.0,-1.3852,0.0,0.0,0.0,0.0,-1.1952,-1.186,-1.1806,-1.1823,-1.1462,0.0,-1.1542,-1.1548,-1.1456,-1.1241,-1.1198,-1.1111,-1.0939,-1.0771,-1.0684,-1.0684,-1.0895,-1.1251,-1.1823,-1.2155,-1.2277,-1.2198,-1.2283,-1.216,-1.1828,-1.1693,-1.1472,-1.1111,0.0,0.0,-0.982,-0.9174,-0.8867,-0.8732,-0.8332,-0.8201,-0.8113,-0.7896,-0.7856,-0.7812,-0.7812,-0.7452,-0.701,-0.6792,-0.6567,-0.6299,-0.608,-0.5813,-0.5633,-0.5597,-0.5774,-0.5861,-0.546,-0.5458,-0.5497,-0.5055,-0.4966,-0.4877,-0.4703,-0.4661,-0.4569,-0.4344,-0.43,-0.4389,-0.4661,-0.4879,-0.4982,-0.4899,-0.5192,-0.5291,-0.5026,-0.4801,-0.4661,-0.4741,-0.4545,-0.444,-0.4384,-0.4651,-0.4784,-0.4766,-0.5115,-0.5407,-0.5577,-0.5637,-0.5839,-0.6181,-0.6261,-0.6289,-0.6312,-0.627,-0.6173,-0.5978,-0.5662,-0.547,-1.6626,-1.625,-1.5872,-1.6035,-1.5189,-1.4434,0.0,0.0,0.0,0.0,0.0,0.0,0.0,-1.3574,-1.3524,0.0,0.0,-1.1391,0.0,0.0,-1.0944,-1.1117,0.0,-1.0814,-1.0857,-1.0857,-1.0857,-1.0814,0.0,-1.0771,-1.0771,-1.0727,-1.0684,-1.0684,-1.0895,-1.1068,-1.116,-1.1591,-1.1591,-1.1219,-1.178,-1.1736,-1.1181,-1.1295,-1.1025,-1.0424,0.0,-0.982,-0.9393,-0.9043,-0.8688,-0.8288,-0.8245,-0.8113,-0.7896,-0.7635,-0.7547,-0.7547,-0.7319,-0.7054,-0.6792,-0.6567,-0.6302,-0.6083,-0.5638,-0.546,-0.5416,-0.5191,-0.5144,-0.5144,-0.5099,-0.5099,-0.5055,-0.4792,-0.4748,-0.4659,-0.4433,-0.4344,-0.4344,-0.43,-0.43,-0.4389,-0.4661,-0.4879,-0.505,-0.526,-0.5375,-0.5287,-0.4937,-0.4643,-0.4337,-0.4068,-0.4369,-0.4522,-0.4392,-0.4952,-0.523,-0.5125,-0.5322,-0.5624,-0.5915,-0.5944,-0.6037,-0.6217,-0.6199,-0.6263,-0.637,-0.6198,-0.6054,-0.5903,-0.563,-0.5427,-1.6679,-1.6508,-1.6413,-1.6484,-1.5615,-1.4697,0.0,0.0,0.0,0.0,0.0,0.0,0.0,0.0,-1.304,-1.2147,0.0,-1.1187,-1.0931,-1.067,-1.0554,0.0,0.0,-1.0381,-1.0467,-1.0386,-1.0342,0.0,0.0,0.0,-1.0299,-1.0164,-1.0168,-1.0342,-1.0424,-1.0467,-1.0467,-1.0771,-1.0944,-1.0992,-1.1295,-1.1257,-1.0824,-1.0944,-1.0727,-1.0294,0.0,-0.9607,-0.9262,-0.8732,-0.8376,-0.8157,-0.794,-0.7768,-0.7635,-0.7367,-0.7234,-0.7105,-0.6969,-0.6612,-0.6166,-0.6074,-0.5811,-0.5458,-0.5235,-0.5104,-0.5015,-0.4879,-0.4924,-0.4966,-0.4879,-0.4743,-0.4567,-0.4304,-0.417,-0.4078,-0.3942,-0.3942,-0.3942,-0.3942,-0.4121,-0.4389,-0.4661,-0.4879,-0.5055,-0.5146,-0.5144,-0.5024,-0.4814,-0.4675,-0.4494,-0.4252,-0.4497,-0.4567,-0.4356,-0.4768,-0.5098,-0.529,-0.541,-0.5517,-0.5657,-0.5726,-0.5746,-0.5809,-0.5872,-0.5887,-0.5858,-0.5772,-0.5609,-0.5419,-0.5231,-0.5064,-1.6571,-1.6549,-1.6607,-1.6443,0.0,0.0,0.0,0.0,0.0,0.0,0.0,0.0,0.0,-1.2381,0.0,-1.1386,-1.1126,-1.0842,-1.0509,-1.0225,-1.012,-1.0342,-1.0038,-0.9907,-1.0038,-0.9907,0.0,0.0,0.0,0.0,-0.982,-0.965,-0.9602,-0.982,-0.9825,-0.9825,-0.9825,-0.9994,-1.0337,-1.0857,-1.0857,-1.0727,-1.0559,-1.0598,-1.0424,-1.0038,-0.9733,-0.9432,-0.917,-0.8464,-0.8157,-0.8072,-0.768,-0.7418,-0.7282,-0.7054,-0.6833,-0.6704,-0.6704,-0.6254,-0.5719,-0.5719,-0.5366,-0.501,-0.4921,-0.4837,-0.4705,-0.4614,-0.4656,-0.4701,-0.4572,-0.4346,-0.4078,-0.3857,-0.3723,-0.3587,-0.3587,-0.3587,-0.3582,-0.3565,-0.3931,-0.4249,-0.4497,-0.473,-0.4921,-0.4832,-0.477,-0.4662,-0.4514,-0.4465,-0.4386,-0.4288,-0.4404,-0.4451,-0.4301,-0.4498,-0.4833,-0.5196,-0.5283,-0.5326,-0.541,-0.537,-0.5418,-0.5461,-0.5499,-0.5455,-0.5327,-0.5327,-0.5191,-0.5008,-0.4888,-0.4841,-1.6452,-1.646,-1.627,-1.5643,0.0,0.0,0.0,0.0,0.0,0.0,0.0,0.0,0.0,-1.1068,-1.0678,-1.035,-1.0181,-1.0075,-0.9983,0.0,-0.9393,-0.9388,-0.9388,-0.9345,-0.9388,0.0,0.0,0.0,0.0,0.0,-0.9349,-0.9345,-0.9345,-0.9349,-0.9349,-0.9349,-0.9349,-0.9345,-0.9689,-1.0337,-1.0337,-1.025,-1.0081,-1.025,-0.9994,-0.9393,-0.9515,-0.9345,-0.8911,-0.842,-0.8072,-0.79,-0.7591,-0.7238,-0.6836,-0.6564,-0.6432,-0.6432,-0.6432,-0.6118,-0.5719,-0.5719,-0.5366,-0.4966,-0.4792,-0.4705,-0.4661,-0.4389,-0.4168,-0.3993,-0.3946,-0.3812,-0.3631,-0.3631,-0.3631,-0.3587,-0.3587,-0.3587,-0.3566,-0.3538,-0.3715,-0.3924,-0.3932,-0.4381,-0.4659,-0.4389,-0.4338,-0.4247,-0.3983,-0.3732,-0.3597,-0.3559,-0.373,-0.3974,-0.4273,-0.4422,-0.4585,-0.4721,-0.4947,-0.5122,-0.539,-0.5174,-0.5134,-0.5406,-0.5186,-0.5055,-0.501,-0.501,-0.501,-0.501,-0.5001,-0.4905,-1.5646,-1.5685,-1.5602,-1.4936,0.0,0.0,0.0,0.0,0.0,0.0,0.0,0.0,0.0,0.0,-1.007,-0.9845,-0.9854,-0.9782,-0.9571,-0.9455,-0.9398,-0.9319,-0.9305,-0.9305,0.0,0.0,0.0,0.0,0.0,0.0,-0.9301,-0.913,-0.913,-0.9305,-0.9305,-0.9305,-0.9305,-0.9305,-0.9432,-0.9694,-0.9694,-0.9689,-0.9733,-0.9689,-0.9519,-0.9305,-0.9218,-0.9082,-0.8867,-0.8248,-0.7984,-0.7856,-0.7282,-0.6972,-0.6748,-0.652,-0.6299,-0.6213,-0.6213,-0.5811,-0.5275,-0.5275,-0.4966,-0.4565,-0.4478,-0.4433,-0.4433,-0.4344,-0.4034,-0.3723,-0.3859,-0.3631,-0.3361,-0.3361,-0.3274,-0.3187,-0.3187,-0.3187,-0.3166,-0.3098,-0.3534,-0.3916,-0.3881,-0.4333,-0.4614,-0.4344,-0.4168,-0.3989,-0.3764,-0.3606,-0.35,-0.3322,-0.3366,-0.3554,-0.3851,-0.4005,-0.4134,-0.4212,-0.4647,-0.499,-0.5142,-0.4995,-0.4949,-0.4971,-0.4882,-0.4746,-0.4565,-0.4565,-0.4565,-0.4565,-0.4565,-0.4548,-1.4982,-1.5025,-1.4977,0.0,0.0,0.0,0.0,0.0,0.0,0.0,0.0,0.0,0.0,0.0,0.0,0.0,-0.9241,-0.9216,-0.8937,-0.897,-0.8966,-0.888,-0.8863,-0.8863,0.0,0.0,0.0,0.0,0.0,0.0,0.0,-0.8775,-0.8775,-0.8951,-0.8951,-0.8907,-0.8863,-0.8999,-0.9087,-0.9082,-0.9087,-0.9174,-0.9384,-0.9213,-0.913,-0.9087,-0.8955,-0.8867,-0.874,-0.8164,-0.7808,-0.7588,-0.6925,-0.6659,-0.6615,-0.6302,-0.6083,-0.5952,-0.5905,-0.5502,-0.4964,-0.4832,-0.4523,-0.4166,-0.4076,-0.4076,-0.4076,-0.4076,-0.3808,-0.3497,-0.3631,-0.3408,-0.3094,-0.3094,-0.3006,-0.2873,-0.2784,-0.2872,-0.2938,-0.277,-0.3385,-0.3818,-0.3631,-0.4094,-0.4304,-0.39,-0.3765,-0.3588,-0.3409,-0.3365,-0.332,-0.3139,-0.3094,-0.3184,-0.3365,-0.3544,-0.3678,-0.3678,-0.4174,-0.46,-0.4875,-0.477,-0.4724,-0.4703,-0.4614,-0.448,-0.43,-0.43,-0.4255,-0.4166,-0.4166,-0.4121,-1.4562,-1.4585,-1.4398,0.0,0.0,0.0,0.0,0.0,0.0,0.0,0.0,0.0,0.0,0.0,0.0,-0.8121,-0.8139,-0.8174,-0.8125,-0.796,-0.79,-0.79,-0.79,0.0,0.0,0.0,0.0,0.0,0.0,0.0,0.0,-0.8201,-0.8201,-0.8201,-0.8201,-0.8113,-0.79,-0.8344,-0.8604,-0.8592,-0.8604,-0.8696,-0.8911,-0.8911,-0.8784,-0.8612,-0.8828,-0.8784,-0.8568,-0.8076,-0.7588,-0.7051,-0.6561,-0.6384,-0.6343,-0.5863,-0.5688,-0.5688,-0.5463,-0.5235,-0.4921,-0.4431,-0.4123,-0.3857,-0.3678,-0.3587,-0.3587,-0.3587,-0.3406,-0.3183,-0.3183,-0.3051,-0.292,-0.292,-0.292,-0.2829,-0.2558,-0.2871,-0.3099,-0.2673,-0.3312,-0.3719,-0.3096,-0.3491,-0.368,-0.3008,-0.305,-0.3138,-0.2918,-0.292,-0.292,-0.292,-0.292,-0.292,-0.292,-0.3094,-0.3183,-0.3183,-0.3384,-0.3858,-0.4656,-0.4433,-0.4433,-0.4703,-0.4433,-0.43,-0.4297,-0.43,-0.4166,-0.3903,-0.3903,-0.3812,-1.3954,-1.38,0.0,-1.2571,0.0,0.0,0.0,0.0,0.0,0.0,0.0,0.0,0.0,0.0,0.0,-0.7734,-0.7938,-0.8005,-0.7708,-0.7893,-0.8031,-0.8031,-0.8031,0.0,0.0,0.0,0.0,0.0,0.0,0.0,0.0,-0.7984,-0.7984,-0.7984,-0.7984,-0.794,-0.79,-0.8032,-0.816,-0.8328,-0.816,-0.8384,-0.8911,-0.874,-0.856,-0.8336,-0.838,-0.8292,-0.8076,-0.7768,-0.7326,-0.6836,-0.652,-0.6299,-0.6169,-0.5822,-0.5599,-0.5463,-0.5416,-0.5013,-0.4476,-0.4342,-0.4034,-0.3678,-0.3631,-0.3587,-0.3587,-0.3587,-0.3406,-0.3183,-0.3183,-0.3051,-0.2918,-0.3094,-0.3274,-0.3365,-0.3274,-0.3363,-0.3336,-0.2858,-0.3258,-0.3513,-0.2943,-0.3304,-0.3544,-0.3184,-0.3183,-0.3138,-0.2918,-0.292,-0.292,-0.292,-0.292,-0.292,-0.292,-0.3094,-0.3183,-0.3183,-0.3431,-0.3696,-0.39,-0.3932,-0.3989,-0.4079,-0.4223,-0.4269,-0.421,-0.4269,-0.4166,-0.3903,-0.3903,-0.3812,-1.3048,-1.2753,0.0,-1.1542,-1.1241,-1.0939,-1.012,0.0,0.0,0.0,0.0,0.0,-0.7628,-0.7408,0.0,-0.7092,-0.7262,-0.7337,-0.7105,-0.741,-0.7601,-0.7507,0.0,0.0,0.0,0.0,0.0,0.0,0.0,0.0,0.0,-0.768,-0.7724,-0.7724,-0.7724,-0.768,-0.7588,-0.7808,-0.7896,-0.794,-0.7896,-0.812,-0.8516,-0.8384,-0.8252,-0.8069,-0.8069,-0.794,-0.7724,-0.7455,-0.7112,-0.6671,-0.6413,-0.6095,-0.5838,-0.5669,-0.5416,-0.5235,-0.5013,-0.4656,-0.4253,-0.3941,-0.3674,-0.3408,-0.3365,-0.332,-0.332,-0.332,-0.3186,-0.305,-0.296,-0.296,-0.3051,-0.3183,-0.3274,-0.3275,-0.3186,-0.3229,-0.3163,-0.2575,-0.2917,-0.3161,-0.2706,-0.3008,-0.3227,-0.296,-0.3005,-0.3051,-0.2918,-0.2829,-0.2739,-0.2739,-0.2739,-0.2694,-0.2649,-0.2826,-0.2869,-0.2825,-0.296,-0.3038,-0.3012,-0.3367,-0.3547,-0.3516,-0.3732,-0.3925,-0.4084,-0.4003,-0.3911,-0.3767,-0.3678,-0.3497,-1.1972,0.0,0.0,-1.0381,-1.012,0.0,-0.8995,0.0,-0.8688,-0.8552,0.0,-0.7112,-0.7098,-0.6719,-0.6418,-0.6405,-0.6415,-0.6424,-0.6424,-0.6717,-0.6896,-0.6673,0.0,0.0,0.0,0.0,0.0,0.0,0.0,0.0,0.0,-0.7279,-0.7418,-0.7418,-0.7459,-0.7367,-0.7095,-0.7588,-0.7724,-0.7507,-0.7724,-0.7856,-0.7856,-0.79,-0.79,-0.7856,-0.7812,-0.7672,-0.7441,-0.7139,-0.6836,-0.6549,-0.621,-0.5838,-0.5491,-0.5424,-0.5191,-0.4877,-0.4431,-0.4253,-0.4076,-0.3405,-0.3183,-0.3138,-0.2963,-0.292,-0.292,-0.292,-0.292,-0.2829,-0.2604,-0.2871,-0.3183,-0.3183,-0.3096,-0.2918,-0.2648,-0.278,-0.2763,-0.2143,-0.2478,-0.2763,-0.2405,-0.2612,-0.278,-0.2558,-0.2739,-0.2875,-0.2873,-0.2649,-0.2513,-0.2469,-0.2469,-0.2379,-0.2199,-0.2379,-0.2379,-0.2199,-0.2199,-0.2178,-0.2088,-0.2783,-0.314,-0.3058,-0.3117,-0.3365,-0.3855,-0.3608,-0.352,-0.3542,-0.3317,-0.3094,-1.137,-1.0982,0.0,0.0,-0.8903,-0.8288,-0.8069,-0.7632,-0.7323,-0.768,-0.7461,-0.7195,-0.69,-0.6794,-0.6626,-0.6387,-0.6547,-0.6656,-0.6421,-0.6637,-0.6838,0.0,0.0,0.0,0.0,0.0,0.0,0.0,0.0,0.0,-0.6571,-0.6792,-0.6972,-0.6972,-0.7102,-0.7143,-0.7095,-0.7231,-0.7367,0.0,-0.7367,-0.7367,-0.7595,-0.7812,-0.7768,-0.7547,-0.7194,-0.7041,-0.6983,-0.67,-0.644,-0.6294,-0.6166,-0.5802,-0.5427,-0.5408,-0.5013,-0.4431,-0.4342,-0.3941,-0.3405,-0.3272,-0.3094,-0.2963,-0.292,-0.292,-0.292,-0.292,-0.292,-0.2875,-0.2829,-0.2873,-0.3006,-0.3183,-0.3318,-0.3454,-0.3363,-0.3227,-0.2999,-0.2498,-0.2505,-0.2464,-0.2007,-0.2281,-0.2648,-0.2784,-0.2873,-0.2829,-0.2604,-0.2513,-0.2424,-0.2289,-0.2244,-0.2243,-0.2199,-0.2243,-0.2243,-0.2199,-0.2199,-0.2089,-0.187,-0.2559,-0.2862,-0.2704,-0.3232,-0.3488,-0.3512,-0.3549,-0.3482,-0.3272,-0.3227,-0.3094,-1.0351,0.0,0.0,-0.8416,0.0,-0.7408,-0.7183,-0.6969,-0.677,-0.6745,-0.6772,-0.6731,-0.6447,-0.6328,-0.6161,-0.5865,-0.5951,-0.6036,-0.5892,-0.6081,-0.6317,0.0,0.0,0.0,0.0,0.0,0.0,0.0,0.0,-0.6445,-0.6263,-0.6479,-0.6612,-0.6612,-0.6697,-0.683,-0.6966,-0.6966,-0.7058,-0.7323,-0.7187,-0.7187,-0.7323,-0.7452,-0.7367,-0.7149,-0.6928,-0.6715,-0.6589,-0.6266,-0.6042,-0.5814,-0.5724,-0.5378,-0.499,-0.5041,-0.4659,-0.4078,-0.3989,-0.3719,-0.3363,-0.3139,-0.3051,-0.3006,-0.2918,-0.292,-0.292,-0.292,-0.292,-0.2829,-0.2604,-0.2739,-0.2867,-0.2701,-0.2961,-0.3227,-0.3227,-0.2915,-0.2562,-0.2209,-0.2049,-0.1885,-0.166,-0.2019,-0.2469,-0.2829,-0.292,-0.2829,-0.2694,-0.2513,-0.2324,-0.2168,-0.2051,-0.1966,-0.1813,-0.1944,-0.1953,-0.1838,-0.1822,-0.1758,-0.1608,-0.2084,-0.2361,-0.2316,-0.265,-0.2983,-0.3243,-0.3233,-0.3197,-0.3183,-0.3094,-0.3006,-0.906,0.0,-0.7376,-0.7003,-0.683,0.0,-0.6251,-0.6254,-0.6251,-0.574,-0.5969,-0.6154,-0.5923,-0.5741,-0.5523,-0.5263,-0.5227,-0.519,-0.519,-0.5458,-0.5623,0.0,0.0,0.0,0.0,0.0,0.0,0.0,0.0,-0.606,-0.6047,-0.621,-0.6299,-0.6343,-0.6387,-0.652,-0.6748,-0.6792,-0.6881,-0.6962,-0.6962,-0.6962,-0.6962,-0.6962,-0.6922,-0.6795,-0.6748,-0.6568,-0.6208,-0.5926,-0.5647,-0.5382,-0.5243,-0.4911,-0.4459,-0.4583,-0.4249,-0.3749,-0.3583,-0.3489,-0.3392,-0.3048,-0.3051,-0.3139,-0.3006,-0.2918,-0.292,-0.292,-0.292,-0.2829,-0.2424,-0.2597,-0.2756,-0.2314,-0.2507,-0.2755,-0.2721,-0.2384,-0.2042,-0.1738,-0.1591,-0.148,-0.157,-0.1974,-0.2379,-0.2829,-0.2873,-0.2829,-0.2784,-0.2379,-0.2092,-0.2003,-0.181,-0.1638,-0.1435,-0.1607,-0.1622,-0.1433,-0.1412,-0.1397,-0.1397,-0.1638,-0.1846,-0.2042,-0.2084,-0.2398,-0.2995,-0.2879,-0.2911,-0.3138,-0.2962,-0.292,0.0,0.0,-0.6158,0.0,-0.5769,-0.5275,0.0,0.0,-0.4638,0.0,-0.543,-0.5876,-0.5419,-0.5282,-0.5174,-0.484,-0.4845,-0.485,-0.485,-0.5027,0.0,0.0,0.0,0.0,0.0,0.0,0.0,0.0,-0.5292,-0.534,-0.5733,-0.5769,-0.5899,-0.6127,-0.6299,-0.6432,-0.6432,-0.6704,-0.6704,-0.6476,-0.6476,-0.6476,-0.6476,-0.6476,-0.6612,-0.6795,-0.6567,-0.6291,-0.6029,-0.5678,-0.5477,-0.5296,-0.5243,-0.4823,-0.4328,-0.434,-0.3851,-0.3191,-0.325,-0.3102,-0.2935,-0.312,-0.3051,-0.2963,-0.3094,-0.3051,-0.292,-0.292,-0.292,-0.2875,-0.2829,-0.2791,-0.2793,-0.2741,-0.2661,-0.2598,-0.2482,-0.2273,-0.2042,-0.1738,-0.1724,-0.1885,-0.2289,-0.2424,-0.2558,-0.2873,-0.2694,-0.2469,-0.2334,-0.2019,-0.178,-0.1524,-0.148,-0.1438,-0.1391,-0.1433,-0.1447,-0.1388,-0.1387,-0.1385,-0.1385,-0.1584,-0.1844,-0.218,-0.2359,-0.2473,-0.2477,-0.2747,-0.291,-0.2918,-0.292,-0.292,-0.6098,-0.5886,-0.5791,0.0,-0.4968,-0.452,-0.4253,0.0,-0.3873,-0.368,-0.414,-0.4524,-0.448,-0.4502,-0.4373,-0.3939,-0.386,-0.3882,-0.3882,-0.403,0.0,0.0,0.0,0.0,0.0,0.0,0.0,0.0,-0.5055,-0.5099,-0.528,-0.5322,-0.5411,-0.5683,-0.5813,-0.5947,-0.6213,-0.6349,-0.639,-0.6384,-0.6302,-0.6302,-0.6384,-0.6299,-0.6305,-0.6393,-0.6305,-0.6022,-0.5666,-0.551,-0.521,-0.4869,-0.4898,-0.4662,-0.4234,-0.4107,-0.3787,-0.3364,-0.3396,-0.3342,-0.3279,-0.3396,-0.3454,-0.3411,-0.3272,-0.3138,-0.3051,-0.2918,-0.292,-0.2829,-0.2558,-0.2651,-0.2731,-0.2439,-0.2497,-0.2478,-0.2026,-0.1978,-0.194,-0.1773,-0.1769,-0.193,-0.2424,-0.2513,-0.2603,-0.2873,-0.2694,-0.2469,-0.2379,-0.2019,-0.1728,-0.1584,-0.1466,-0.1333,-0.1176,-0.1299,-0.1319,-0.1232,-0.1309,-0.1393,-0.1541,-0.1546,-0.1723,-0.2116,-0.2336,-0.2517,-0.2701,-0.2816,-0.292,-0.292,-0.292,-0.292,0.0,0.0,-0.5019,-0.4502,-0.4134,-0.3739,0.0,0.0,-0.3058,0.0,-0.2764,-0.2986,-0.3267,-0.3498,-0.3554,-0.3056,-0.3007,-0.3007,-0.3007,-0.3102,0.0,0.0,0.0,0.0,0.0,0.0,0.0,0.0,-0.4743,-0.4788,-0.501,-0.4966,-0.5057,-0.528,-0.528,-0.5505,-0.5905,-0.5952,-0.608,-0.6207,-0.608,-0.6083,-0.621,-0.5991,-0.5905,-0.5905,-0.5994,-0.5762,-0.5327,-0.5243,-0.4886,-0.4432,-0.455,-0.4351,-0.3976,-0.384,-0.3636,-0.3449,-0.3484,-0.3528,-0.3606,-0.3671,-0.3678,-0.3678,-0.3406,-0.3227,-0.3094,-0.2963,-0.292,-0.2784,-0.2379,-0.2465,-0.2577,-0.2195,-0.2304,-0.2329,-0.1787,-0.1687,-0.1727,-0.1839,-0.1834,-0.199,-0.2491,-0.2583,-0.2632,-0.2782,-0.2603,-0.2379,-0.2334,-0.1974,-0.1677,-0.1606,-0.1458,-0.1284,-0.103,-0.1197,-0.1263,-0.1094,-0.1296,-0.1509,-0.1708,-0.1681,-0.1815,-0.2191,-0.2397,-0.2593,-0.2784,-0.2873,-0.292,-0.292,-0.292,-0.292,0.0,-0.3548,0.0,-0.3487,-0.3089,0.0,0.0,0.0,0.0,-0.1527,-0.1552,-0.162,-0.1624,-0.2299,-0.275,-0.2504,-0.2455,-0.2455,-0.2455,-0.2564,0.0,0.0,0.0,0.0,0.0,0.0,0.0,0.0,-0.4123,-0.4257,-0.4966,-0.4837,-0.4792,-0.501,-0.501,-0.5146,-0.5416,-0.5641,-0.5727,-0.5719,-0.5727,-0.5733,-0.5733,-0.5508,-0.5416,-0.546,-0.5633,-0.5499,-0.5113,-0.4826,-0.4518,-0.4227,-0.4232,-0.3922,-0.346,-0.3495,-0.3307,-0.3059,-0.3183,-0.3362,-0.3535,-0.3787,-0.3587,-0.3272,-0.3497,-0.3275,-0.292,-0.292,-0.292,-0.2829,-0.2558,-0.2437,-0.2401,-0.2313,-0.2234,-0.2174,-0.1937,-0.1462,-0.123,-0.1886,-0.1981,-0.2167,-0.2691,-0.2788,-0.2719,-0.2551,-0.2334,-0.2109,-0.1884,-0.1615,-0.1413,-0.1311,-0.1373,-0.1292,-0.1011,-0.1242,-0.1311,-0.1118,-0.1522,-0.179,-0.1792,-0.2155,-0.2372,-0.2464,-0.268,-0.268,-0.2513,-0.2784,-0.292,-0.292,-0.292,-0.292,0.0,0.0,0.0,-0.2922,-0.2432,-0.1923,-0.1741,-0.1391,-0.1076,-0.0987,-0.0948,-0.0998,-0.0998,-0.1548,-0.1975,-0.183,-0.1734,-0.1686,-0.1782,-0.1882,0.0,0.0,0.0,0.0,0.0,0.0,0.0,0.0,0.0,-0.3901,-0.4257,-0.4214,-0.4393,-0.4792,-0.479,-0.4924,-0.5144,-0.5235,-0.5324,-0.5502,-0.5505,-0.5552,-0.5688,-0.5508,-0.5416,-0.5371,-0.5149,-0.5022,-0.4889,-0.4803,-0.4573,-0.4272,-0.4272,-0.3996,-0.3651,-0.355,-0.3444,-0.3384,-0.3434,-0.357,-0.3818,-0.4069,-0.3944,-0.3631,-0.3631,-0.3363,-0.305,-0.2918,-0.292,-0.2829,-0.2424,-0.2348,-0.2338,-0.2109,-0.1829,-0.1653,-0.1707,-0.1669,-0.17,-0.1936,-0.2148,-0.2359,-0.2685,-0.2789,-0.2747,-0.2465,-0.2287,-0.2067,-0.1846,-0.1521,-0.1329,-0.1308,-0.1188,-0.1056,-0.0826,-0.0871,-0.0968,-0.1076,-0.1378,-0.1733,-0.2153,-0.2078,-0.2168,-0.2419,-0.2434,-0.2539,-0.2739,-0.2873,-0.292,-0.292,-0.292,-0.292,-0.2873,0.0,0.0,0.0,0.0,-0.13,-0.1114,0.0,-0.0403,-0.0269,-0.0224,-0.0269,-0.0448,-0.078,-0.1124,-0.1226,-0.1139,-0.1142,-0.1323,0.0,0.0,0.0,0.0,0.0,0.0,0.0,0.0,0.0,0.0,0.0,-0.3767,-0.3857,-0.4125,-0.4569,-0.4661,-0.4703,-0.4788,-0.4921,-0.5055,-0.5149,-0.5238,-0.5371,-0.5597,-0.5371,-0.528,-0.5235,-0.4882,-0.4694,-0.4688,-0.4645,-0.4415,-0.4114,-0.4156,-0.3982,-0.3655,-0.3637,-0.362,-0.365,-0.3703,-0.384,-0.4043,-0.4247,-0.4123,-0.3857,-0.3678,-0.3406,-0.3138,-0.2963,-0.2904,-0.2755,-0.2309,-0.2151,-0.206,-0.1865,-0.1611,-0.1454,-0.165,-0.1742,-0.1818,-0.1937,-0.2211,-0.2482,-0.2657,-0.2759,-0.2718,-0.2349,-0.2159,-0.1977,-0.1804,-0.1495,-0.1312,-0.1293,-0.1147,-0.0935,-0.0702,-0.0751,-0.0847,-0.1075,-0.1366,-0.1718,-0.2194,-0.199,-0.2036,-0.2329,-0.2318,-0.2469,-0.2784,-0.2873,-0.292,-0.292,-0.292,-0.292,0.0,0.0,0.0,0.0,0.0,0.0,-0.0443,0.0,0.0134,0.0582,0.0672,0.0583,0.009,0.0,-0.0181,-0.0691,-0.0799,-0.0851,-0.1066,0.0,0.0,0.0,0.0,0.0,0.0,0.0,0.0,0.0,-0.2867,-0.3092,-0.3542,-0.3767,-0.4036,-0.43,-0.4569,-0.4569,-0.43,-0.4743,-0.4879,-0.4705,-0.4877,-0.5144,-0.5371,-0.5099,-0.501,-0.4966,-0.479,-0.4601,-0.4469,-0.426,-0.3992,-0.3701,-0.391,-0.3741,-0.3414,-0.3703,-0.3768,-0.3725,-0.3846,-0.4026,-0.4231,-0.4271,-0.4123,-0.3857,-0.3678,-0.3406,-0.3138,-0.2963,-0.2831,-0.2698,-0.2214,-0.1852,-0.1578,-0.1581,-0.1572,-0.1651,-0.1849,-0.1603,-0.1457,-0.1818,-0.2163,-0.2481,-0.265,-0.2694,-0.2545,-0.2165,-0.2046,-0.1933,-0.1722,-0.1498,-0.1365,-0.1309,-0.1164,-0.0968,-0.0718,-0.0918,-0.1074,-0.1119,-0.1536,-0.1796,-0.1792,-0.1978,-0.2108,-0.2153,-0.2379,-0.2469,-0.2469,-0.2784,-0.292,-0.292,-0.292,-0.292,-0.2234,0.0,0.0,0.0,0.0,0.0,-0.0639,-0.013,0.0175,-0.0219,0.0399,0.0807,0.0134,0.0136,0.0229,0.0091,-0.0273,-0.0592,-0.077,0.0,0.0,0.0,0.0,0.0,0.0,0.0,0.0,0.0,-0.2512,-0.2826,-0.3272,-0.3678,-0.3946,-0.3991,-0.4257,-0.4389,-0.43,-0.4431,-0.4567,-0.4705,-0.4748,-0.4882,-0.5099,-0.4879,-0.4792,-0.4743,-0.4322,-0.4106,-0.4043,-0.402,-0.382,-0.3565,-0.3722,-0.365,-0.348,-0.3445,-0.3585,-0.3761,-0.3687,-0.3894,-0.4231,-0.4271,-0.4034,-0.3678,-0.3631,-0.332,-0.2963,-0.2918,-0.2907,-0.274,-0.2226,-0.1746,-0.1376,-0.1383,-0.1375,-0.146,-0.1687,-0.1806,-0.1946,-0.2144,-0.2433,-0.265,-0.2692,-0.26,-0.2448,-0.2083,-0.1898,-0.1713,-0.144,-0.1363,-0.1279,-0.11,-0.0993,-0.0874,-0.0699,-0.0706,-0.0884,-0.1283,-0.1385,-0.1615,-0.2059,-0.1978,-0.18,-0.1614,-0.2064,-0.2199,-0.1974,-0.2604,-0.292,-0.292,-0.292,-0.292,0.0,0.0,0.0,0.0,0.0,0.0,-0.0628,-0.0128,0.0261,-0.0174,0.031,0.0673,0.0224,0.0091,0.0136,0.0359,-0.0045,-0.0448,-0.0538,0.0,0.0,0.0,0.0,0.0,0.0,-0.166,-0.193,-0.2199,-0.2379,-0.2691,-0.3181,-0.3452,-0.3678,-0.3903,-0.4034,-0.4257,-0.448,-0.4344,-0.4433,-0.4705,-0.4569,-0.4659,-0.4877,-0.4705,-0.4599,-0.4592,-0.4153,-0.3858,-0.3688,-0.3564,-0.3426,-0.334,-0.359,-0.36,-0.3464,-0.3461,-0.3621,-0.3815,-0.3595,-0.3723,-0.3999,-0.3953,-0.3781,-0.3587,-0.3452,-0.3229,-0.3006,-0.2918,-0.2794,-0.2602,-0.2176,-0.1754,-0.1399,-0.1301,-0.1296,-0.1384,-0.1741,-0.1931,-0.2111,-0.231,-0.2582,-0.276,-0.2606,-0.2499,-0.2338,-0.1964,-0.1763,-0.1611,-0.1427,-0.1343,-0.1257,-0.1124,-0.102,-0.0946,-0.0937,-0.0821,-0.0996,-0.1511,-0.1401,-0.1462,-0.1855,-0.1677,-0.1545,-0.1415,-0.1904,-0.218,-0.2243,-0.2694,-0.292,-0.292,-0.292,-0.292,0.0,0.0,0.0,0.0,0.0,0.0,-0.0497,-0.0085,0.0345,0.0302,0.0395,0.0445,0.0401,0.0,-0.0134,0.0356,0.0,-0.0358,-0.0314,-0.0365,0.0,0.0,0.0,0.0,-0.1348,-0.1615,-0.1885,-0.2199,-0.2424,-0.2736,-0.3138,-0.3183,-0.3406,-0.3857,-0.3903,-0.417,-0.4705,-0.448,-0.448,-0.4705,-0.4478,-0.4478,-0.4656,-0.4557,-0.4467,-0.4463,-0.4147,-0.3811,-0.3388,-0.3091,-0.2969,-0.3019,-0.3475,-0.3557,-0.339,-0.361,-0.3727,-0.3792,-0.3468,-0.3488,-0.3657,-0.3533,-0.3519,-0.3486,-0.3269,-0.3183,-0.3138,-0.2918,-0.2611,-0.2302,-0.205,-0.1762,-0.1533,-0.1335,-0.1299,-0.1429,-0.1908,-0.2002,-0.2061,-0.2362,-0.2664,-0.2804,-0.245,-0.2394,-0.2217,-0.1868,-0.1679,-0.1552,-0.1548,-0.1425,-0.1291,-0.126,-0.1142,-0.1078,-0.1259,-0.1116,-0.1213,-0.1591,-0.1395,-0.1282,-0.134,-0.1249,-0.1245,-0.1298,-0.1779,-0.2326,-0.2908,-0.2908,-0.2913,-0.292,-0.2911,-0.2913,0.0,0.0,0.0,0.0,0.0,0.0,-0.0423,-0.0079,0.0081,-0.0205,0.042,0.081,0.0384,0.0298,0.0341,0.0597,0.0216,0.0,0.0224,-0.0135,0.0,0.0,0.0,0.0,-0.1166,-0.1345,-0.166,-0.2154,-0.2603,-0.2873,-0.2963,-0.3094,-0.3361,-0.3631,-0.3812,-0.417,-0.4705,-0.4661,-0.4661,-0.4705,-0.479,-0.4699,-0.4387,-0.447,-0.4428,-0.4249,-0.3871,-0.3555,-0.3304,-0.2967,-0.2858,-0.2947,-0.3193,-0.3313,-0.3316,-0.3378,-0.3395,-0.3389,-0.3231,-0.3244,-0.3373,-0.3471,-0.3353,-0.3199,-0.321,-0.3094,-0.2918,-0.2649,-0.2393,-0.21,-0.1839,-0.154,-0.1335,-0.1296,-0.1316,-0.1424,-0.1954,-0.1948,-0.1986,-0.2384,-0.2686,-0.2768,-0.2536,-0.2287,-0.2086,-0.1825,-0.1531,-0.1371,-0.1347,-0.1343,-0.121,-0.0985,-0.1148,-0.1153,-0.099,-0.1152,-0.1205,-0.1145,-0.1042,-0.0929,-0.0846,-0.0826,-0.0742,-0.0593,-0.1206,-0.1959,-0.2801,-0.2801,-0.2826,-0.2918,-0.2824,-0.2827,0.0,0.0,0.0,-0.1803,0.0,0.0,0.0,-0.0344,-0.0039,-0.0283,0.0123,0.0415,0.021,0.0,0.0,0.0463,0.0128,-0.0043,0.0347,0.0177,0.0,0.0,0.0,0.0,-0.1076,-0.13,-0.166,-0.2289,-0.2694,-0.292,-0.292,-0.3094,-0.3317,-0.3587,-0.3812,-0.417,-0.4705,-0.4569,-0.4569,-0.4705,-0.4656,-0.4499,-0.4232,-0.4271,-0.4162,-0.4028,-0.3568,-0.3273,-0.319,-0.2918,-0.2806,-0.2876,-0.2956,-0.3036,-0.3042,-0.3073,-0.3136,-0.317,-0.2948,-0.2939,-0.3099,-0.3047,-0.2987,-0.296,-0.2992,-0.2849,-0.2649,-0.2424,-0.2219,-0.1976,-0.1765,-0.1586,-0.1419,-0.1316,-0.1292,-0.1438,-0.1868,-0.1854,-0.1924,-0.228,-0.2426,-0.2408,-0.2191,-0.2045,-0.1892,-0.1654,-0.1409,-0.1296,-0.1307,-0.1289,-0.1234,-0.1102,-0.1218,-0.1296,-0.1257,-0.1296,-0.1264,-0.1159,-0.0988,-0.0838,-0.0703,-0.0648,-0.0768,-0.1034,-0.1589,-0.2168,-0.2783,-0.2623,-0.2653,-0.2918,-0.2886,-0.2889,0.0,0.0,0.0,0.0,0.0,-0.1353,0.0,0.0,0.0,0.0,0.0,0.0,0.0,0.0,0.0,0.0,0.0,0.0,0.0,0.0388,0.0,0.0,0.0,0.0,-0.0897,-0.1256,-0.1749,-0.2379,-0.2694,-0.2829,-0.292,-0.3094,-0.3317,-0.3587,-0.3812,-0.417,-0.4705,-0.448,-0.448,-0.4705,-0.4505,-0.4326,-0.4212,-0.4101,-0.401,-0.3893,-0.341,-0.318,-0.3102,-0.2943,-0.2826,-0.2746,-0.2826,-0.2833,-0.2814,-0.2882,-0.2952,-0.2996,-0.2738,-0.2744,-0.2808,-0.2657,-0.2694,-0.2785,-0.2753,-0.2613,-0.2467,-0.2188,-0.2038,-0.189,-0.1672,-0.1581,-0.1502,-0.1336,-0.1307,-0.1409,-0.1723,-0.1743,-0.1801,-0.2057,-0.2036,-0.1934,-0.1834,-0.1788,-0.1684,-0.1437,-0.1323,-0.1296,-0.1307,-0.1316,-0.1296,-0.1296,-0.1296,-0.1375,-0.1533,-0.1375,-0.1296,-0.1218,-0.0982,-0.0792,-0.0727,-0.0754,-0.1069,-0.1734,-0.2067,-0.2359,-0.2662,-0.237,-0.2496,-0.292,-0.2818,-0.2818,0.0,0.0,0.0,0.0,-0.2356,0.0,0.0,0.0,-0.0033,0.0855,0.0,0.0,0.0,0.0,0.0,0.0,0.0,0.0,-0.0277,0.0247,0.0556,0.0305,0.0,0.0,0.0,-0.1256,-0.1885,-0.2199,-0.2424,-0.2649,-0.2875,-0.3094,-0.3317,-0.3587,-0.3812,-0.417,-0.4705,-0.4661,-0.4661,-0.4703,-0.4793,-0.4615,-0.421,-0.424,-0.4149,-0.3893,-0.3764,-0.3491,-0.3102,-0.3062,-0.2865,-0.2589,-0.2943,-0.2982,-0.2883,-0.2951,-0.2887,-0.2765,-0.2784,-0.2734,-0.2651,-0.2665,-0.2728,-0.2749,-0.258,-0.2509,-0.2415,-0.1886,-0.1757,-0.1674,-0.1396,-0.1322,-0.1344,-0.1295,-0.1282,-0.1394,-0.1729,-0.1632,-0.1521,-0.1793,-0.1657,-0.1566,-0.1749,-0.1766,-0.1655,-0.1434,-0.1323,-0.1296,-0.1307,-0.1316,-0.1296,-0.1296,-0.1296,-0.1296,-0.1335,-0.1296,-0.1218,-0.0943,-0.0746,-0.0708,-0.0868,-0.1102,-0.1415,-0.185,-0.1969,-0.2037,-0.2088,-0.2125,-0.241,-0.2873,-0.2598,-0.2601,0.0,0.0,0.0,0.0,0.0,0.0,-0.1766,0.0,-0.0712,0.0,0.0,0.0,0.0,0.0,0.0,0.0,0.0363,0.0,0.0,0.0,0.0364,0.0,0.0,0.0,0.0,0.0,0.0,0.0,-0.2379,-0.2585,-0.2771,-0.3149,-0.3413,-0.35,-0.3802,-0.4086,-0.4404,-0.4348,-0.4348,-0.4401,-0.4394,-0.4233,-0.4012,-0.4054,-0.3989,-0.3818,-0.37,-0.3411,-0.3102,-0.3102,-0.2865,-0.2511,-0.2826,-0.2803,-0.2685,-0.2824,-0.2785,-0.2653,-0.2749,-0.2726,-0.2665,-0.2725,-0.2675,-0.2532,-0.2364,-0.2199,-0.2011,-0.1617,-0.1498,-0.1423,-0.131,-0.1293,-0.1291,-0.128,-0.1351,-0.138,-0.1542,-0.1471,-0.1436,-0.1525,-0.1466,-0.1414,-0.1566,-0.1558,-0.1498,-0.1393,-0.1323,-0.1296,-0.1307,-0.1316,-0.1303,-0.1281,-0.1307,-0.1304,-0.1282,-0.1307,-0.1178,-0.0904,-0.0707,-0.0628,-0.0707,-0.11,-0.1453,-0.1727,-0.198,-0.2124,-0.2194,-0.2051,-0.2054,-0.2205,-0.2056,-0.2071,-0.7797,0.0,0.0,0.0,0.0,0.0,0.0,0.0,0.0,0.0,0.0,0.0,0.0,0.0,0.0,0.0,0.0,0.0276,0.0,0.0,0.0,0.0,0.0,0.0,0.0,0.0,0.0,0.0,0.0,-0.2547,-0.2719,-0.3211,-0.3469,-0.3435,-0.3794,-0.4067,-0.4134,-0.4069,-0.4069,-0.4134,-0.4042,-0.3963,-0.3897,-0.3873,-0.3866,-0.3802,-0.3643,-0.3411,-0.3102,-0.3102,-0.2904,-0.2591,-0.2688,-0.2695,-0.2634,-0.2745,-0.2723,-0.2688,-0.2778,-0.2768,-0.2725,-0.2682,-0.2565,-0.2357,-0.214,-0.1974,-0.1739,-0.1433,-0.1321,-0.1299,-0.1311,-0.1303,-0.1312,-0.1308,-0.1375,-0.1398,-0.1384,-0.1391,-0.1391,-0.1391,-0.1417,-0.141,-0.1387,-0.1383,-0.1415,-0.1393,-0.1323,-0.1296,-0.1307,-0.1316,-0.1305,-0.1288,-0.131,-0.1306,-0.1288,-0.131,-0.1178,-0.0904,-0.0864,-0.0864,-0.0786,-0.1218,-0.1533,-0.169,-0.1962,-0.2098,-0.2013,-0.1771,-0.1502,-0.1321,-0.1514,-0.1626,0.0,0.0,0.0,-0.6732,0.0,0.0,0.0,0.0,-0.2438,0.0,0.0,0.0,0.0,0.0,0.0,0.0,0.0,0.0,0.0,0.0,0.0,0.0,0.0,0.0,0.0,0.0,0.0,0.0,0.0,0.0,-0.2781,-0.3191,-0.3438,-0.3511,-0.3825,-0.3994,-0.3998,-0.3994,-0.3994,-0.3996,-0.3948,-0.3903,-0.3895,-0.3847,-0.3806,-0.3802,-0.3802,-0.353,-0.3102,-0.3102,-0.2982,-0.2793,-0.2657,-0.2721,-0.2892,-0.2755,-0.2767,-0.291,-0.2914,-0.2831,-0.2737,-0.2477,-0.239,-0.2312,-0.1917,-0.1794,-0.1735,-0.1408,-0.1306,-0.1299,-0.1311,-0.1303,-0.1317,-0.1375,-0.1389,-0.1398,-0.1384,-0.1391,-0.1391,-0.1391,-0.139,-0.1389,-0.1391,-0.1411,-0.1391,-0.139,-0.1323,-0.1296,-0.1307,-0.1316,-0.1297,-0.1298,-0.1297,-0.1297,-0.1298,-0.1297,-0.1178,-0.0904,-0.1335,-0.1493,-0.1296,-0.165,-0.1887,-0.1887,-0.1887,-0.173,-0.1338,-0.1062,-0.0747,-0.0355,-0.1096,-0.1433,0.0,0.0,-0.8682,-0.7655,0.0,0.0,0.0,0.0,0.0,0.0,0.0,0.0,0.0,0.0,0.0,0.0,0.0,0.0,0.0,0.0,0.0,0.0,0.0,0.0,0.0,0.0,0.0,0.0,0.0,0.0,0.0,-0.2907,-0.3115,-0.3212,-0.3509,-0.3762,-0.3944,-0.3885,-0.3885,-0.3944,-0.3852,-0.3849,-0.3847,-0.3816,-0.3802,-0.3802,-0.3802,-0.353,-0.3102,-0.3102,-0.2982,-0.2788,-0.2732,-0.2807,-0.2901,-0.28,-0.2778,-0.2819,-0.2904,-0.2834,-0.2783,-0.2522,-0.2347,-0.2133,-0.1885,-0.1686,-0.1516,-0.1387,-0.1376,-0.1369,-0.1298,-0.1346,-0.1365,-0.1385,-0.1406,-0.1378,-0.1388,-0.1391,-0.1391,-0.1391,-0.1391,-0.1391,-0.1391,-0.141,-0.139,-0.139,-0.1323,-0.1296,-0.1307,-0.1316,-0.1305,-0.1285,-0.1309,-0.1305,-0.1286,-0.1308,-0.1257,-0.1178,-0.1296,-0.1375,-0.1296,-0.1415,-0.1572,-0.169,-0.169,-0.1572,-0.1296,-0.1218,-0.0871,-0.0322,-0.0544,-0.0681,-1.0345,-0.9984,0.0,-0.8567,-0.7871,0.0,-0.7225,0.0,0.0,0.0,0.0,0.0,0.0,0.0,0.0,0.0,0.0,0.0,0.0,-0.1175,0.0,0.0,0.0,0.0,0.0,0.0,0.0,0.0,0.0,0.0,0.0,0.0,-0.2922,-0.3023,-0.3347,-0.3592,-0.3768,-0.3791,-0.3833,-0.385,-0.3831,-0.3763,-0.3684,-0.3684,-0.3684,-0.3684,-0.3608,-0.3374,-0.3102,-0.3023,-0.2904,-0.2787,-0.2707,-0.2788,-0.29,-0.2885,-0.2865,-0.2822,-0.2906,-0.2834,-0.274,-0.2435,-0.2303,-0.2173,-0.1868,-0.1676,-0.1563,-0.153,-0.1477,-0.1386,-0.1367,-0.1376,-0.1393,-0.1403,-0.1421,-0.1387,-0.1421,-0.1419,-0.1419,-0.1419,-0.1419,-0.1419,-0.1419,-0.1403,-0.139,-0.139,-0.1356,-0.1283,-0.1305,-0.1316,-0.1265,-0.1164,-0.123,-0.1265,-0.1164,-0.1229,-0.1257,-0.1178,-0.1257,-0.1296,-0.1296,-0.1296,-0.1341,-0.1472,-0.15,-0.1381,-0.1194,-0.1114,-0.0802,-0.0285,-0.021,-0.0213]},{"header":{"parameterUnit":"m.s-1","parameterCategory":1,"la1":30.6,"la2":29.2853,"lo1":-89.7004,"lo2":-87.6739,"dy":0.0162,"dx":0.0183,"nx":112,"ny":82,"refTime":"2024-03-11T00:00:00:Z","depth":0,"parameterNumber":3,"parameterNumberName":"V-component_of_WINDS"},"data":[0.0,0.0,0.0,0.0,0.0,0.0,0.0,0.0,0.0,0.0,0.0,0.0,0.0,0.0,0.0,0.0,0.0,0.0,0.0,0.0,0.0,0.0,0.0,0.0,0.0,0.0,0.0,0.0,0.0,0.0,0.0,0.0,0.0,0.0,0.0,0.0,0.0,0.0,0.0,0.0,0.0,0.0,0.0,0.0,0.0,0.0,0.0,0.0,0.0,0.0,0.0,0.0,0.0,0.0,0.0,0.0,0.0,0.0,0.0,0.0,0.0,0.0,0.0,0.0,0.0,0.0,0.0,0.0,0.0,0.0,0.0,0.0,0.0,0.0,0.0,0.0,0.0,0.0,0.0,0.0,0.0,0.0,0.0,0.0,0.0,0.0,0.0,0.0,0.0,0.0,0.7015,0.5089,0.1886,-0.0763,-0.2295,-0.3098,-0.3766,-0.432,0.0,0.0,0.0,0.0,0.0,0.0,0.0,0.0,0.0,0.0,0.0,0.0,0.0,0.0,0.0,0.0,0.0,0.0,0.0,0.0,0.0,0.0,0.0,0.0,0.0,0.0,0.0,0.0,0.0,0.0,0.0,0.0,0.0,0.0,0.0,0.0,0.0,0.0,0.0,0.0,0.0,0.0,0.0,0.0,0.0,0.0,0.0,0.0,0.0,0.0,0.0,0.0,0.0,0.0,0.0,0.0,0.0,0.0,0.0,0.0,0.0,0.0,0.0,0.0,0.0,0.0,0.0,0.0,0.0,0.0,0.0,0.0,0.0,0.0,0.0,0.0,0.0,0.0,0.0,0.0,0.0,0.0,0.0,0.0,0.0,0.0,0.0,0.0,0.0,0.0,0.0,0.0,0.0,0.0,0.0,0.0,0.0,0.0,0.0,0.0,0.0,0.0,0.0,0.0,0.6645,0.344,0.1308,-0.0476,-0.1943,-0.2749,-0.3482,-0.4174,0.0,0.0,0.0,0.0,0.0,0.0,0.0,0.0,0.0,0.0,0.0,0.0,0.0,0.0,0.0,0.0,0.0,0.0,0.0,0.0,0.0,0.0,0.0,0.0,0.0,0.0,0.0,0.0,0.0,0.0,0.0,0.0,0.0,0.0,0.0,0.0,0.0,0.0,0.0,0.0,0.0,0.0,0.0,0.0,0.0,0.0,0.0,0.0,0.0,0.0,0.0,0.0,0.0,0.0,0.0,0.0,0.0,0.0,0.0,0.0,0.0,0.0,0.0,0.0,0.0,0.0,0.0,0.0,0.0,0.0,0.0,0.0,0.0,0.0,0.0,0.0,0.0,0.0,0.0,0.0,0.0,0.0,0.0,0.0,0.0,0.0,0.0,0.0,0.0,0.0,0.0,0.0,0.0,0.0,0.0,0.0,0.0,0.0,0.0,0.0,0.0,0.0,0.0,0.765,0.5702,0.3083,0.1309,-0.0251,-0.1677,-0.2462,-0.315,-0.3772,-0.3534,0.0,0.0,0.0,0.0,0.0,0.0,0.0,0.0,0.0,0.0,0.0,0.0,0.0,0.0,0.0,0.0,0.0,0.0,0.0,0.0,0.0,0.0,0.0,0.0,0.0,0.0,0.0,0.0,0.0,0.0,0.0,0.0,0.0,0.0,0.0,0.0,0.0,0.0,0.0,0.0,0.0,0.0,0.0,0.0,0.0,0.0,0.0,0.0,0.0,0.0,0.0,0.0,0.0,0.0,0.0,0.0,0.0,0.0,0.0,0.0,0.0,0.0,0.0,0.0,0.0,0.0,0.0,0.0,0.0,0.0,0.0,0.0,0.0,0.0,0.0,0.0,0.0,0.0,0.0,0.0,0.0,0.0,0.0,0.0,0.0,0.0,0.0,0.0,0.0,0.0,0.0,0.0,0.0,0.0,0.0,0.0,0.0,0.0,0.0,0.0,0.0,0.0,0.68,0.5062,0.3252,0.1644,0.0112,-0.1313,-0.2015,-0.265,-0.3329,-0.2948,0.0,0.0,0.0,0.0,0.0,0.0,0.0,0.0,0.0,0.0,0.0,0.0,0.0,0.0,0.0,0.0,0.0,0.0,0.0,0.0,0.0,0.0,0.0,0.0,0.0,0.0,0.0,0.0,0.0,0.0,0.0,0.0,0.0,0.0,0.0,0.0,0.0,0.0,0.0,0.0,0.0,0.0,0.0,0.0,0.0,0.0,0.0,0.0,0.0,0.0,0.0,0.0,0.0,0.0,0.0,0.0,0.0,0.0,0.0,0.0,0.0,0.0,0.0,0.0,0.0,0.0,0.0,0.0,0.0,0.0,0.0,0.0,0.0,0.0,0.0,0.0,0.0,0.0,0.0,0.0,0.0,0.0,0.0,0.0,0.0,0.0,0.0,0.0,0.0,0.0,0.0,0.0,0.0,0.0,0.0,0.0,0.0,0.0,0.0,0.0,0.0,0.0,0.7095,0.5343,0.3721,0.2341,0.0838,-0.081,-0.1232,-0.185,-0.2872,-0.2223,0.0,0.0,0.0,0.0,0.0,0.0,0.0,0.0,0.0,0.0,0.0,0.0,0.0,0.0,0.0,0.0,0.0,0.0,0.0,0.0,0.0,0.0,0.0,0.0,0.0,0.0,0.0,0.0,0.0,0.0,0.0,0.0,0.0,0.0,0.0,0.0,0.0,0.0,0.0,0.0,0.0,0.0,0.0,0.0,0.0,0.0,0.0,0.0,0.0,0.0,0.0,0.0,0.0,0.0,0.0,0.0,0.0,0.0,0.0,0.0,0.0,0.0,0.0,0.0,0.0,0.0,0.0,0.0,0.0,0.0,0.0,0.0,0.0,0.0,0.0,0.0,0.0,0.0,0.0,0.0,0.0,0.0,0.0,0.0,0.0,0.0,0.0,0.0,0.0,0.0,0.0,0.0,0.0,0.0,0.0,0.0,0.0,0.0,0.0,0.0,0.0,0.0,0.7154,0.5592,0.0,0.2593,0.1266,-0.0201,-0.0765,-0.1377,-0.2179,0.0,0.0,0.0,0.0,0.0,0.0,0.0,0.0,0.0,0.0,0.0,0.0,0.0,0.0,0.0,0.0,0.0,0.0,0.0,0.0,0.0,0.0,0.0,0.0,0.0,0.0,0.0,0.0,0.0,0.0,0.0,0.0,0.0,0.0,0.0,0.0,0.0,0.0,0.0,0.0,0.0,0.0,0.0,0.0,0.0,0.0,0.0,0.0,0.0,0.0,0.0,0.0,0.0,0.0,0.0,0.0,0.0,0.0,0.0,0.0,0.0,0.0,0.0,0.0,0.0,0.0,0.0,0.0,0.0,0.0,0.0,0.0,0.0,0.0,0.0,0.0,0.0,0.0,0.0,0.0,0.0,0.0,0.0,0.0,0.0,0.0,0.0,0.0,0.0,0.0,0.0,0.0,0.0,0.0,0.0,0.0,0.0,0.0,0.0,0.0,0.0,0.0,0.8875,0.7534,0.6059,0.0,0.3204,0.1979,0.0644,0.0,-0.0597,-0.1233,0.0,0.0,0.0,0.0,0.0,0.0,0.0,0.0,0.0,0.0,0.0,0.0,0.0,0.0,0.0,0.0,0.0,0.0,0.0,0.0,0.0,0.0,0.0,0.0,0.0,0.0,0.0,0.0,0.0,0.0,0.0,0.0,0.0,0.0,0.0,0.0,0.0,0.0,0.0,0.0,0.0,0.0,0.0,0.0,0.0,0.0,0.0,0.0,0.0,0.0,0.0,0.0,0.0,0.0,0.0,0.0,0.0,0.0,0.0,0.0,0.0,0.0,0.0,0.0,0.0,0.0,0.0,0.0,0.0,0.0,0.0,0.0,0.0,0.0,0.0,0.0,0.0,0.0,0.0,0.0,0.0,0.0,0.0,0.0,0.0,0.0,0.0,0.0,0.0,0.0,0.0,0.0,0.0,0.0,0.0,0.0,0.0,0.0,0.0,0.0,0.0,0.0,0.9714,0.8263,0.675,0.5273,0.4205,0.3112,0.1818,0.1228,0.0626,0.0,0.0,0.0,0.0,0.0,0.0,0.0,0.0,0.0,0.0,0.0,0.0,0.0,0.0,0.0,0.0,0.0,0.0,0.0,0.0,0.0,0.0,0.0,0.0,0.0,0.0,0.0,0.0,0.0,0.0,0.0,0.0,0.0,0.0,0.0,0.0,0.0,0.0,0.0,0.0,0.0,0.0,0.0,0.0,0.0,0.0,0.0,0.0,0.0,0.0,0.0,0.0,0.0,0.0,0.0,0.0,0.0,0.0,0.0,0.0,0.0,0.0,0.0,0.0,0.0,0.0,0.0,0.0,0.0,0.0,0.0,0.0,0.0,0.0,0.0,0.0,0.0,0.0,0.0,0.0,0.0,0.0,0.0,0.0,0.0,0.0,0.0,0.0,0.0,0.0,0.0,0.0,0.0,0.0,0.0,0.0,0.0,0.0,0.0,0.0,0.0,0.0,0.0,1.0367,0.9211,0.7915,0.6393,0.5252,0.4053,0.2718,0.2353,0.1816,0.094,0.0,0.0,0.0,0.0,0.0,0.0,0.0,0.0,0.0,0.0,0.0,0.0,0.0,0.0,0.0,0.0,0.0,0.0,0.0,0.0,0.0,0.0,0.0,0.0,0.0,0.0,0.0,0.0,0.0,0.0,0.0,0.0,0.0,0.0,0.0,0.0,0.0,0.0,0.0,0.0,0.0,0.0,0.0,0.0,0.0,0.0,0.0,0.0,0.0,0.0,0.0,0.0,0.0,0.0,0.0,0.0,0.0,0.0,0.0,0.0,0.0,0.0,0.0,0.0,0.0,0.0,0.0,0.0,0.0,0.0,0.0,0.0,0.0,0.0,0.0,0.0,0.0,0.0,0.0,0.0,0.0,0.0,0.0,0.0,0.0,0.0,0.0,0.0,0.0,0.0,0.0,0.0,0.0,0.0,0.0,0.0,0.0,0.0,0.0,0.0,0.0,0.0,1.0969,0.9952,0.8887,0.7777,0.6707,0.5665,0.4642,0.4135,0.3523,0.2741,0.0,0.0,0.0,0.0,0.0,0.0,0.0,0.0,0.0,0.0,0.0,0.0,0.0,0.0,0.0,0.0,0.0,0.0,0.0,0.0,0.0,0.0,0.0,0.0,0.0,0.0,0.0,0.0,0.0,0.0,0.0,0.0,0.0,0.0,0.0,0.0,0.0,0.0,0.0,0.0,0.0,0.0,0.0,0.0,0.0,0.0,0.0,0.0,0.0,0.0,0.0,0.0,0.0,0.0,0.0,0.0,0.0,0.0,0.0,0.0,0.0,0.0,0.0,0.0,0.0,0.0,0.0,0.0,0.0,0.0,0.0,0.0,0.0,0.0,0.0,0.0,0.0,0.0,0.0,0.0,0.0,0.0,0.0,0.0,0.0,0.0,0.0,0.0,0.0,0.0,0.0,0.0,0.0,0.0,0.0,0.0,0.0,0.0,0.0,0.0,0.0,0.0,1.1595,1.0659,0.982,0.934,0.8475,0.7691,0.714,0.6345,0.5624,0.5063,0.0,0.0,0.0,0.0,0.0,0.0,0.0,0.0,0.0,0.0,0.0,0.0,0.0,0.0,0.0,0.0,0.0,0.0,0.0,0.0,0.0,0.0,0.0,0.0,0.0,0.0,0.0,0.0,0.0,0.0,0.0,0.0,0.0,0.0,0.0,0.0,0.0,0.0,0.0,0.0,0.0,0.0,0.0,0.0,0.0,0.0,0.0,0.0,0.0,0.0,0.0,0.0,0.0,0.0,0.0,0.0,0.0,0.0,0.0,0.0,1.5444,0.0,0.0,0.0,0.0,0.0,0.0,0.0,0.0,0.0,0.0,0.0,0.0,0.0,0.0,0.0,0.0,0.0,0.0,0.0,0.0,0.0,0.0,0.0,0.0,0.0,0.0,0.0,0.0,0.0,0.0,0.0,0.0,0.0,0.0,0.0,0.0,0.0,0.0,0.0,0.0,0.0,1.2635,1.2015,1.1362,1.0679,1.004,0.9356,0.8546,0.8048,0.7521,0.6813,0.6321,0.0,0.0,0.0,0.0,0.0,0.0,0.0,0.0,0.0,0.0,0.0,0.0,0.0,0.0,0.0,0.0,0.0,0.0,0.0,0.0,0.0,0.0,0.0,0.0,0.0,0.0,0.0,0.0,0.0,0.0,0.0,0.0,0.0,0.0,0.0,0.0,0.0,0.0,0.0,0.0,0.0,0.0,0.0,0.0,0.0,0.0,0.0,0.0,0.0,0.0,0.0,0.0,0.0,0.0,0.0,0.0,0.0,0.0,0.0,0.0,1.6444,0.0,0.0,0.0,0.0,0.0,0.0,0.0,0.0,0.0,0.0,0.0,0.0,0.0,0.0,0.0,0.0,0.0,0.0,0.0,0.0,0.0,0.0,0.0,0.0,0.0,0.0,0.0,0.0,0.0,0.0,0.0,0.0,0.0,0.0,0.0,0.0,0.0,0.0,0.0,0.0,1.3572,1.3104,1.2697,1.2324,1.1639,1.1,1.0435,0.9935,0.9339,0.8646,0.8105,0.0,0.0,0.0,0.0,0.0,0.0,0.0,0.0,0.0,0.0,0.0,0.0,0.0,0.0,0.0,0.0,0.0,0.0,0.0,0.0,0.0,0.0,0.0,0.0,0.0,0.0,0.0,0.0,0.0,0.0,0.0,0.0,0.0,0.0,0.0,0.0,0.0,0.0,0.0,0.0,0.0,0.0,0.0,0.0,0.0,0.0,0.0,0.0,0.0,0.0,0.0,0.0,0.0,2.2796,2.2938,2.2854,2.2873,2.2985,2.3023,2.0083,1.9079,1.9348,1.8183,0.0,0.0,0.0,0.0,0.0,0.0,0.0,0.0,0.0,0.0,0.0,0.0,0.0,0.0,0.0,0.0,0.0,0.0,0.0,0.0,0.0,0.0,0.0,0.0,2.0057,1.9386,0.0,0.0,0.0,0.0,0.0,0.0,0.0,0.0,0.0,0.0,0.0,0.0,1.4306,1.4059,1.3862,1.3714,1.3124,1.2604,1.2296,1.1704,1.1135,1.0546,0.9842,0.923,0.0,0.0,0.0,0.0,0.0,0.0,0.0,0.0,0.0,0.0,0.0,0.0,0.0,0.0,0.0,0.0,0.0,0.0,0.0,0.0,0.0,0.0,0.0,0.0,0.0,0.0,0.0,0.0,0.0,0.0,0.0,0.0,1.8269,1.8457,0.0,0.0,0.0,0.0,0.0,0.0,0.0,0.0,0.0,0.0,0.0,0.0,0.0,2.31,2.348,2.4423,2.4948,2.5102,2.5775,2.5858,2.5436,2.5595,2.5748,2.5781,2.4086,0.0,2.236,2.1305,0.0,0.0,0.0,0.0,0.0,0.0,0.0,0.0,0.0,0.0,0.0,0.0,0.0,0.0,0.0,0.0,0.0,0.0,0.0,0.0,0.0,0.0,2.222,2.1603,2.1042,2.064,0.0,1.8884,1.7338,1.7258,1.6989,0.0,0.0,0.0,0.0,0.0,0.0,0.0,1.4608,1.4869,1.4792,1.3798,1.4211,1.4234,1.3371,1.3058,1.2818,1.2634,1.1681,1.0975,1.0578,1.049,0.0,0.0,0.0,0.0,0.0,0.0,0.0,0.0,0.0,0.0,0.0,0.0,0.0,0.0,0.0,0.0,0.0,0.0,0.0,0.0,0.0,0.0,0.0,0.0,0.0,0.0,0.0,0.0,0.0,2.0597,2.027,2.0162,2.0569,2.0931,0.0,0.0,0.0,0.0,0.0,0.0,0.0,0.0,0.0,2.4981,2.5259,2.5512,2.5733,2.6213,2.6599,2.6965,2.7359,2.7408,2.7195,2.7283,2.7391,2.7462,2.6667,2.6354,2.6214,2.3598,2.2782,2.3077,0.0,0.0,0.0,0.0,2.0859,2.0992,2.073,2.0916,0.0,2.0974,0.0,0.0,0.0,0.0,0.0,0.0,0.0,0.0,0.0,0.0,2.2686,2.2843,2.2627,2.2309,2.2088,2.1494,2.072,0.0,1.89,1.8482,1.8633,0.0,0.0,0.0,0.0,1.7237,1.6553,1.6581,1.6421,1.5855,1.5715,1.5476,1.4945,1.4615,1.4335,1.4088,1.3472,1.2975,1.2592,1.2557,1.2601,0.0,0.0,0.0,0.0,0.0,0.0,0.0,0.0,0.0,0.0,0.0,0.0,0.0,0.0,0.0,0.0,0.0,0.0,0.0,0.0,0.0,0.0,0.0,0.0,0.0,0.0,0.0,0.0,2.2456,2.2404,2.2134,2.2773,2.3268,0.0,0.0,0.0,0.0,0.0,0.0,2.6545,2.6173,2.641,2.7369,2.7579,2.7678,2.7678,2.7951,2.8318,2.8766,2.8872,2.8933,2.8933,2.8888,2.8949,2.9041,2.8596,2.8828,2.9264,2.5887,2.4858,2.528,2.423,2.3869,2.3892,2.3341,2.3117,2.3022,2.2918,2.3085,2.3289,2.3051,0.0,2.3716,2.3256,0.0,0.0,0.0,0.0,2.3844,2.4362,2.3985,2.3617,2.4102,2.3985,2.3656,2.3178,2.3333,2.3081,0.0,2.0746,2.0374,2.0359,0.0,0.0,0.0,0.0,1.8733,1.8226,1.8101,1.7912,1.752,1.7093,1.669,1.6385,1.6038,1.5756,1.5505,1.5129,1.4855,1.4712,1.4647,1.4674,1.483,0.0,0.0,0.0,0.0,0.0,0.0,0.0,0.0,0.0,0.0,0.0,0.0,0.0,0.0,0.0,0.0,0.0,0.0,0.0,0.0,0.0,0.0,0.0,0.0,0.0,0.0,0.0,0.0,0.0,2.4481,2.506,0.0,0.0,0.0,0.0,2.7767,2.7825,2.7997,2.8354,2.8325,2.8311,2.8226,2.9232,2.9595,2.9289,3.028,3.0822,3.0852,3.0852,3.0852,3.0852,3.0733,3.0733,3.0822,2.99,2.9973,3.057,2.8588,2.78,2.7759,2.7242,2.7055,2.7015,2.6465,2.63,2.6273,2.555,2.5301,2.5315,2.552,2.5544,2.5401,2.4916,2.4883,0.0,0.0,2.5593,2.6204,2.611,2.6145,2.6055,2.5458,2.4781,2.4277,2.4294,2.3686,2.2826,0.0,2.2068,2.221,2.1464,0.0,2.0874,2.023,2.0242,1.9883,1.8729,1.9008,1.8889,1.7788,1.7979,1.7955,1.7378,1.7174,1.7118,1.7079,1.6648,1.6524,1.6832,1.6411,1.6399,1.6841,1.7129,0.0,0.0,0.0,0.0,0.0,0.0,0.0,0.0,0.0,0.0,0.0,0.0,0.0,0.0,0.0,0.0,0.0,0.0,0.0,0.0,0.0,0.0,0.0,0.0,0.0,0.0,0.0,0.0,2.6345,2.6941,0.0,2.7851,2.8584,2.9,2.8917,2.9548,2.9995,3.0093,3.0108,3.0218,3.0464,3.0845,3.0964,3.0747,3.1129,3.1306,3.1306,3.1508,3.1595,3.1595,3.1751,3.1892,3.199,3.1366,3.1282,3.1578,3.0734,2.9841,2.8965,2.8426,2.824,2.8325,2.8263,2.8315,2.8311,2.7544,2.738,2.7401,2.7122,2.7058,2.6996,2.6579,2.6851,2.7204,2.6763,2.6894,2.7255,2.7588,2.703,2.6459,2.6757,2.655,2.607,2.529,2.5514,2.5387,2.3724,2.3057,2.2667,2.2287,2.2198,2.2035,2.1602,2.1485,2.1223,2.06,2.0458,2.0253,1.974,1.9598,1.9442,1.923,1.8911,1.8729,1.8729,1.8305,1.8265,1.8782,1.8565,1.8626,1.9051,1.9398,1.9927,0.0,0.0,0.0,0.0,0.0,0.0,0.0,0.0,0.0,0.0,0.0,0.0,0.0,0.0,0.0,0.0,0.0,0.0,0.0,0.0,0.0,0.0,0.0,0.0,0.0,0.0,2.796,2.8281,2.8969,2.9493,2.959,3.0327,3.0726,3.051,3.1134,3.1542,3.1597,3.1651,3.1823,3.2145,3.2244,3.2228,3.2145,3.2201,3.2256,3.2312,3.2477,3.2586,3.261,3.2819,3.2926,3.2953,3.2516,3.2391,3.2461,3.2241,3.1632,3.076,3.0132,2.9822,2.9724,2.9946,2.978,2.9414,2.8794,2.8652,2.8715,2.8394,2.8336,2.8379,2.8116,2.8419,2.8794,2.8323,2.8266,2.8421,2.8786,2.8175,2.7547,2.785,2.7846,2.7465,2.6435,2.6632,2.6707,2.5628,2.4493,2.36,2.3231,2.3076,2.2965,2.283,2.2549,2.2287,2.2077,2.1742,2.1441,2.1286,2.0979,2.0848,2.1021,2.0794,2.0681,2.0772,2.0308,2.0352,2.1064,2.0713,2.0783,2.1393,2.1878,2.2398,2.2947,0.0,0.0,0.0,0.0,0.0,0.0,0.0,0.0,0.0,0.0,0.0,0.0,0.0,0.0,0.0,0.0,0.0,0.0,0.0,0.0,0.0,0.0,0.0,2.7794,2.9076,3.0182,3.0365,3.1187,3.1864,3.2191,3.2247,3.2342,3.2629,3.2656,3.2722,3.2841,3.2975,3.3039,3.3039,3.3293,3.3439,3.3413,3.3601,3.3771,3.3899,3.3924,3.3942,3.4011,3.3958,3.3873,3.372,3.3377,3.323,3.3245,3.3108,3.3119,3.3172,3.2477,3.183,3.134,3.1557,3.0835,2.9708,2.9312,2.9152,2.9166,2.9361,2.9483,2.9515,2.9538,2.9566,2.9633,2.9633,2.9705,2.9793,2.9677,2.9633,2.9456,2.8807,2.8565,2.8314,2.7764,2.6989,2.6583,2.7302,2.6325,2.5133,2.433,2.3912,2.3741,2.3833,2.348,0.0,2.2986,2.2775,2.2523,2.2306,2.2128,2.2196,2.2693,2.2759,2.2898,2.3158,2.2665,2.2778,2.3634,2.2875,2.2883,2.3879,2.4475,2.4752,2.4649,0.0,0.0,0.0,0.0,0.0,0.0,0.0,0.0,0.0,0.0,0.0,0.0,0.0,0.0,0.0,0.0,0.0,0.0,0.0,0.0,0.0,3.0719,3.1197,3.0187,3.0622,3.125,3.1753,3.2314,3.2683,3.2765,3.3076,3.3366,3.3523,3.3713,3.3892,3.4018,3.4068,3.4043,3.3942,3.3993,3.3993,3.3834,3.3901,3.3917,3.3899,3.4243,3.4325,3.4234,3.4594,3.4691,3.4546,3.4358,3.4284,3.4284,3.4043,3.4018,3.4003,3.2703,3.2092,3.1971,3.2132,3.1799,3.1237,3.0791,3.0297,2.9897,3.0016,3.0059,3.0097,3.0215,3.0236,3.0258,3.0258,3.0279,3.03,3.0262,3.0258,3.0192,2.9948,2.9878,2.9639,2.8857,2.849,2.8241,2.7952,2.7522,2.7006,2.6383,2.6117,2.5796,2.5251,2.536,0.0,2.4571,2.4762,2.47,2.3998,2.429,2.4344,2.3967,2.4243,2.452,2.4684,2.4365,2.4525,2.5303,2.5214,2.5467,2.6183,2.6638,2.6507,0.0,0.0,0.0,0.0,0.0,0.0,0.0,0.0,0.0,0.0,0.0,0.0,0.0,0.0,0.0,0.0,0.0,0.0,0.0,0.0,0.0,0.0,3.2251,3.2902,3.2447,3.2421,3.2615,3.3066,3.3377,3.3559,3.361,3.3882,3.4101,3.4226,3.4374,3.4521,3.4667,3.4715,3.4739,3.4715,3.4763,3.473,3.4673,3.4673,3.4642,3.4626,3.4944,3.5038,3.4937,3.5234,3.5281,3.5095,3.493,3.4899,3.4923,3.4715,3.4794,0.0,0.0,0.0,0.0,0.0,3.2036,3.1806,3.135,3.09,3.0568,3.0683,3.0703,3.0679,3.0757,3.0794,3.0794,3.0794,3.054,3.0373,3.071,3.0523,3.0353,3.0588,3.0651,3.0514,2.998,2.9608,2.9376,2.9297,2.892,0.0,2.8598,2.7827,2.7047,2.6645,2.673,2.6622,2.6049,2.6283,2.6238,2.5549,2.5832,2.5986,2.572,2.61,0.0,0.0,0.0,2.6464,2.6946,2.7276,0.0,0.0,0.0,2.8308,2.7535,0.0,0.0,0.0,2.6273,2.6347,0.0,0.0,0.0,0.0,0.0,0.0,0.0,0.0,0.0,0.0,0.0,0.0,0.0,0.0,0.0,0.0,3.3705,3.4284,3.4423,3.4234,3.4109,3.4184,3.439,3.453,3.4594,3.4594,3.4643,3.4763,3.4811,3.4899,3.4994,0.0,0.0,0.0,0.0,3.556,3.5689,3.5689,3.5672,3.565,3.5817,3.5861,3.5822,3.5861,3.5711,3.547,3.5281,3.5251,3.536,3.5228,3.5368,3.5491,3.3818,3.3399,3.3568,3.2329,3.1913,3.1943,3.1418,0.0,0.0,3.1293,3.131,3.1249,3.1269,3.1269,3.1269,3.1269,3.0758,3.0366,3.1082,3.0741,3.0347,3.0926,3.1075,3.1055,3.0955,3.0429,3.016,3.0814,3.0299,2.9989,3.0657,2.919,2.7936,2.7989,2.7846,2.7665,2.7448,2.7555,2.7461,2.7024,0.0,0.0,2.767,2.8065,2.841,2.8693,2.8559,2.8493,2.8554,2.9156,2.9716,3.0118,3.0213,2.9997,2.9506,2.9897,2.9711,2.8987,2.845,2.8301,0.0,0.0,0.0,0.0,0.0,0.0,0.0,0.0,0.0,0.0,0.0,0.0,0.0,0.0,0.0,3.375,3.4549,3.5155,3.5178,3.5241,3.5155,3.4857,3.5428,3.568,3.5258,3.5224,3.5241,3.5264,3.5464,3.5616,3.5639,3.5861,3.5993,3.6031,3.6088,3.6152,3.6174,3.6174,3.6114,3.6006,0.0,0.0,3.6049,3.6152,3.6148,3.6036,3.5888,3.5844,3.5844,3.5728,3.5289,3.4714,3.4352,3.4324,3.4286,3.2773,3.2686,3.3152,3.1864,3.1404,3.144,3.1651,3.1634,3.1542,3.1728,3.1746,0.0,3.1671,3.1568,3.1482,3.1637,3.1568,3.1462,3.147,3.1485,3.1447,3.1274,3.1116,3.1026,3.1117,3.1013,3.0946,3.1142,3.0486,2.9753,2.925,2.951,2.9522,2.8964,2.934,2.9386,2.8709,2.9197,2.9355,2.8825,2.9324,2.9708,2.9853,3.0424,3.056,3.0082,3.0919,3.1229,3.0885,3.1024,3.0787,3.0207,3.0859,3.0832,3.0154,2.9248,2.8886,0.0,0.0,0.0,0.0,0.0,0.0,0.0,0.0,0.0,0.0,0.0,3.2828,3.2889,0.0,3.4459,3.4841,3.5374,3.5766,3.5766,3.6195,3.623,3.5481,3.5761,3.5914,3.5711,3.5694,3.5694,3.5694,3.5822,3.5905,3.5905,3.6079,3.6376,3.6736,3.6861,3.6887,3.6887,3.6934,3.668,3.6152,3.6461,3.6444,3.6199,3.6402,3.6419,3.6268,3.6521,3.6444,3.6101,3.6144,3.5882,3.5518,3.5565,3.5278,3.4703,3.4011,3.3842,3.379,3.2712,3.211,3.1818,3.1928,3.1911,3.1893,3.2002,3.2037,3.2019,3.2108,3.1865,3.1655,3.2092,3.1882,3.162,3.1897,3.193,3.1839,3.1637,3.16,3.1459,3.0989,3.0902,3.0921,3.1032,3.0846,3.0581,3.0421,3.0687,3.0767,3.0339,3.0624,3.067,3.0246,3.0526,3.0569,3.0129,3.0446,3.0703,3.0838,3.1237,3.1335,3.112,3.156,3.1732,3.1547,3.1656,3.1594,3.134,3.1721,3.1793,3.1533,3.1029,3.0751,0.0,0.0,0.0,0.0,0.0,0.0,0.0,0.0,3.3633,3.3688,3.3846,3.4108,3.4504,3.4933,3.5364,3.5856,3.6092,3.622,3.622,3.6935,3.715,3.6288,3.629,3.6442,3.6577,3.6594,3.6573,3.6551,3.6573,3.6504,3.6328,3.6612,3.6969,3.7417,3.7698,3.785,3.785,3.7741,3.7338,3.6602,3.6713,3.6647,3.6468,3.6762,3.6721,3.6416,3.693,3.6818,3.631,3.6482,3.6564,3.6585,3.6705,3.618,3.5304,3.529,3.4941,3.438,3.3498,3.284,3.2318,3.2214,3.2179,3.2214,3.2301,3.2336,3.237,3.2557,3.2129,3.1792,3.2494,3.216,3.176,3.2296,3.237,3.2284,3.2109,3.2056,3.1846,3.1133,3.0976,3.0994,3.1133,3.115,3.1201,3.1401,3.1506,3.1543,3.143,3.1524,3.1543,3.1468,3.1449,3.1393,3.1281,3.1374,3.1487,3.1598,3.1754,3.1829,3.1822,3.198,3.2089,3.2144,3.2214,3.2301,3.242,3.2437,3.2521,3.267,3.2705,3.2538,3.3116,3.3395,3.418,3.5216,3.5842,3.6428,0.0,0.0,3.6668,3.5998,3.6021,3.5911,3.5088,3.5694,3.6336,3.6423,3.6523,3.6623,3.6623,3.7269,3.7704,3.7596,3.8114,3.8529,3.8732,3.8703,3.8617,3.8512,3.8595,3.83,3.7461,3.8281,3.8513,3.7937,3.8688,3.9098,3.9098,3.84,3.8055,3.8046,3.7321,3.6989,3.7029,3.7466,3.7307,3.6643,3.6627,3.661,3.6643,3.6728,3.6768,3.6788,3.6908,3.6917,3.6724,3.5804,3.5486,3.5322,3.3746,3.3225,3.3176,3.2633,3.2506,3.2589,3.2771,3.282,3.2852,3.293,3.289,3.2836,3.2925,3.2872,3.2805,3.2832,3.2836,3.2786,3.2636,3.262,3.2551,3.2415,3.2332,3.2298,3.2399,3.2348,3.2196,3.1894,3.1895,3.1931,3.184,3.1895,3.1932,3.1932,3.1932,3.1914,3.1914,3.1914,3.1932,3.195,3.2664,3.2842,3.2266,3.302,3.321,3.262,3.2753,3.282,3.2818,3.288,3.2928,3.2961,3.3024,3.2882,3.5958,3.6159,3.6636,0.0,3.7845,3.8217,3.8638,3.8307,3.7965,3.8084,3.7501,3.6926,3.6885,3.6858,3.6794,0.0,3.6788,3.6869,3.6869,3.7131,3.7673,3.8583,3.8503,3.859,3.9052,3.9033,3.899,3.8977,3.9019,3.888,3.8485,3.901,3.9357,3.9456,3.9856,3.9782,3.9182,3.8929,3.8377,3.7541,3.7167,3.7009,3.7066,3.7224,3.7388,3.7428,3.6899,3.6969,3.7431,3.7061,3.6928,3.6928,3.7029,3.7069,3.7054,3.6584,3.6236,3.5766,3.4638,3.3988,3.3582,3.2889,3.2755,3.285,3.2932,3.3008,3.3101,3.3211,3.3271,3.3298,3.3342,3.3283,3.3226,3.3214,3.3104,3.2993,3.2898,3.2882,3.2707,3.2183,3.2046,3.2078,3.2237,3.2208,3.2272,3.2614,3.2555,3.2437,3.2369,3.2453,3.252,3.252,3.252,3.252,3.252,3.252,3.252,3.252,3.2873,3.2976,3.277,3.3105,3.3219,3.3119,3.3039,3.3086,3.3256,3.3241,3.3268,3.3357,3.3902,3.4072,3.8164,3.8256,0.0,3.9346,3.9571,3.9705,3.9999,3.9416,3.9018,3.9833,3.8594,3.7563,3.8124,3.7615,3.705,3.6871,3.6948,3.7007,3.7007,3.7376,3.797,3.8845,3.8848,3.8863,3.9175,3.9332,3.9538,3.9824,3.9841,3.9775,3.9585,3.9961,4.0214,4.0253,4.051,4.0186,3.9266,3.9159,3.8551,3.7463,3.7232,3.7126,3.7145,3.7068,3.7409,3.8047,3.7241,3.7244,3.7795,3.7353,3.7164,3.7203,3.7298,3.7318,3.7318,3.7318,3.6963,3.6361,3.5634,3.4941,3.4225,3.3489,3.3187,3.3147,3.3165,3.3238,3.3342,3.3477,3.3534,3.3577,3.3647,3.3577,3.3481,3.3466,3.3345,3.3223,3.318,3.3165,3.297,3.2349,3.2209,3.2242,3.2393,3.2367,3.2532,3.3178,3.3119,3.2948,3.2832,3.2898,3.2963,3.2963,3.2963,3.2979,3.3013,3.3013,3.31,3.3347,3.3167,3.3178,3.3532,3.3304,3.3271,3.3481,3.3357,3.3386,3.3591,3.3549,3.3577,3.3675,3.4311,3.461,3.894,0.0,3.9094,4.0799,4.1074,4.1207,4.2259,4.1218,4.0282,4.1071,3.9294,3.7734,3.821,3.7637,3.7069,3.7007,3.7007,3.7007,3.7007,3.8286,3.895,3.8234,3.948,4.0176,0.0,4.0074,4.0809,4.1656,4.1709,4.1417,4.0784,4.151,4.1205,3.9684,4.0394,4.0412,3.9595,3.8933,3.8621,3.8645,3.7803,3.7466,3.7558,3.7242,3.7529,3.8252,3.7441,3.7222,3.7427,3.7539,3.7631,3.7685,3.781,3.7881,3.7881,3.7881,3.7649,3.7251,3.6595,3.595,3.5329,3.4582,3.3946,3.3509,3.3563,3.3591,3.3633,3.3753,3.3739,3.3712,3.378,3.3739,3.3671,3.3619,3.3591,3.3591,3.3591,3.3591,3.3573,3.3555,3.3484,3.3459,3.3441,3.3401,3.339,3.3495,3.3477,3.339,3.3117,3.3086,3.3086,3.3086,3.3086,3.315,3.3277,3.3277,3.3647,3.4498,3.3828,3.3767,3.4633,3.3963,3.3619,3.3684,3.3753,3.3793,3.3793,3.3842,3.3842,3.3807,3.3892,3.3931,3.9493,0.0,4.1105,4.1468,4.1876,4.2304,4.2634,4.1877,4.1299,4.2013,4.0289,3.8815,3.9339,3.8706,3.7881,3.7177,3.7431,3.7529,3.6958,3.7386,3.7845,3.8012,3.8126,0.0,0.0,0.0,0.0,4.1092,4.1644,4.1864,4.1668,4.1502,4.1149,4.0597,4.0446,3.9927,3.9085,3.8857,3.8486,3.8025,3.7592,3.7695,3.8173,3.7527,3.7401,3.7707,3.7573,3.7541,3.7613,3.7739,3.781,3.7846,3.7915,3.7967,3.7984,3.8171,3.8153,3.7925,3.6996,3.658,3.628,3.5002,3.452,3.4337,3.3821,3.3726,3.382,3.3842,3.3881,3.3895,3.3921,3.3842,3.378,3.3775,3.3726,3.3671,3.3726,3.3739,3.3739,3.3739,3.3712,3.3712,3.3766,3.3712,3.3684,3.3766,3.3643,3.3534,3.343,3.343,3.343,3.343,3.3473,3.3516,3.3563,3.3619,3.3771,3.404,3.3835,3.3826,3.4151,3.3899,3.3793,3.3895,3.3921,3.3947,3.3998,3.4074,3.4061,3.4016,3.4717,3.5002,4.0708,4.1551,4.2318,4.2267,4.2668,4.305,4.305,4.2377,4.1868,4.23,4.0691,3.9284,3.9526,3.8841,3.7997,3.7293,3.7492,3.7639,3.7366,3.7411,3.7624,3.8073,3.775,3.7985,0.0,0.0,0.0,4.0748,4.1073,4.1242,4.1309,4.0909,4.0556,4.0289,3.9885,3.9403,3.8846,3.8616,3.8277,3.781,3.8258,3.8559,3.8696,3.818,3.7968,3.8043,3.7882,3.7845,3.7915,3.8021,3.8072,3.8088,3.8138,3.8153,3.8203,3.8382,3.8446,3.8373,3.7719,3.7358,3.7051,3.6054,3.5424,3.4954,3.4426,3.4107,3.3934,3.3959,3.3985,3.4011,3.4061,3.3985,3.3908,3.3959,3.3908,3.386,3.3855,3.3868,3.3868,3.3868,3.3868,3.3881,3.3921,3.3921,3.3934,3.3998,3.3895,3.3793,3.3712,3.3684,3.3671,3.3671,3.3712,3.3766,3.3788,3.386,3.401,3.4358,3.4086,3.4063,3.4423,3.4125,3.3998,3.4111,3.4136,3.4173,3.4245,3.4257,3.4245,3.4228,3.4846,3.5119,4.2383,4.2735,4.2776,4.3151,4.3354,4.3441,4.3369,4.2626,4.1956,4.192,4.0472,3.9139,0.0,0.0,3.7593,3.7405,3.7291,3.7496,3.8234,3.8377,3.836,0.0,0.0,0.0,0.0,0.0,0.0,4.0574,0.0,3.983,3.9895,3.9859,3.9521,3.8826,3.8812,3.885,3.885,3.8293,3.8019,3.8056,3.9626,3.9914,3.9103,3.9157,3.9157,3.9102,3.8397,3.8157,3.8307,3.8307,3.8354,3.8399,3.8399,3.8462,3.8525,3.8541,3.8569,3.8649,3.8686,3.8269,3.7665,3.7628,3.6634,3.5415,3.5336,3.4726,3.4079,3.4117,3.4074,3.4049,3.4173,3.4161,3.4111,3.4111,3.4111,3.4099,3.4036,3.4023,3.4023,3.4023,3.4023,3.4023,3.4023,3.4074,3.4136,3.4209,3.4221,3.4148,3.3934,3.3855,3.3815,3.3815,3.3815,3.3868,3.3998,3.4023,3.4407,3.5286,3.4575,3.4488,3.5305,3.4624,3.4245,3.4305,3.4393,3.445,3.4506,3.445,3.4427,3.4416,3.4351,3.4316,4.2043,4.293,4.3674,4.2853,4.2664,4.2483,4.1724,4.1365,4.1151,4.1048,4.0091,3.921,0.0,0.0,0.0,3.828,3.862,0.0,3.9015,3.9176,0.0,3.9071,0.0,3.9208,3.9031,3.8736,0.0,0.0,3.958,3.983,3.9895,3.9377,3.9005,3.8884,3.8402,3.8186,3.8221,3.8075,3.8274,3.8834,3.9301,3.9391,3.9193,3.9949,3.9657,3.8549,3.8997,3.8882,3.8385,3.8385,3.8366,3.8415,3.8562,3.8655,3.8743,3.8888,3.8956,3.897,3.9045,3.882,3.8416,3.7904,3.7456,3.6888,3.5773,3.5292,3.5008,3.4479,3.4305,3.4305,3.434,3.4293,3.4257,3.4305,3.4281,3.4257,3.4293,3.4257,3.4233,3.4281,3.4293,3.4293,3.4293,3.4305,3.434,3.4397,3.4409,3.434,3.4148,3.4111,3.4099,3.4099,3.4148,3.4185,3.4221,3.4269,3.4398,3.4626,3.4458,3.4421,3.4645,3.4452,3.4374,3.445,3.4517,3.4572,3.4645,3.4676,3.4645,3.455,3.4639,3.4649,4.207,4.2607,4.3029,4.2134,4.1965,4.1823,4.1183,4.1009,4.0851,4.0387,3.983,0.0,3.8759,3.8492,0.0,0.0,0.0,0.0,3.9471,3.9337,3.9392,0.0,3.9873,0.0,3.9718,3.9386,3.9054,0.0,3.8843,3.8915,3.9027,3.8616,3.842,3.8456,3.8149,3.8053,3.817,3.8877,3.9078,3.8791,3.9549,3.9729,3.9385,3.996,3.9736,3.8931,0.0,3.8983,3.859,3.8621,3.8621,3.8618,3.8777,3.8851,3.891,3.9045,3.9101,3.9115,3.9183,3.9101,3.89,3.854,3.8177,3.7713,3.6894,3.6379,3.6031,3.5607,3.5523,3.546,3.5105,3.5011,3.4918,3.4525,3.4427,3.4386,3.4404,3.4363,3.4351,3.4439,3.445,3.4461,3.4517,3.4528,3.455,3.4623,3.4634,3.4594,3.448,3.442,3.4393,3.4393,3.4416,3.445,3.4473,3.4506,3.4528,3.4528,3.4528,3.4539,3.4561,3.4591,3.4604,3.467,3.472,3.4761,3.483,3.4859,3.4849,3.4771,3.486,3.487,4.2057,4.1944,4.1773,4.127,4.1225,4.1258,4.0941,4.0827,4.0598,3.9802,0.0,3.9154,3.8263,3.8018,3.7969,3.8007,0.0,3.8141,3.9822,3.9389,3.9514,4.1034,4.0556,4.0039,3.9932,3.9844,3.9508,3.8833,3.8151,3.7792,3.7881,3.7899,3.7899,3.7934,3.8087,3.8218,3.8399,3.9786,3.9786,3.8417,3.9932,4.0241,3.9457,3.9708,3.9723,3.955,3.9077,0.0,3.8822,3.8881,3.891,3.891,3.8964,3.9011,3.9021,3.9087,3.9129,3.9142,3.9215,3.9224,3.9242,3.9242,3.8779,3.8246,3.8159,3.7636,3.7068,3.698,3.6979,3.6883,3.6189,3.5953,3.5705,3.4888,3.4603,3.4506,3.4461,3.442,3.445,3.4506,3.4517,3.4561,3.4697,3.4718,3.4739,3.4819,3.4829,3.483,3.4841,3.4701,3.4626,3.4636,3.4636,3.4658,3.4718,3.4728,3.4728,3.4728,3.4728,3.4778,3.4819,3.4829,3.4859,3.4936,3.4936,3.4964,3.5029,3.5029,3.5029,3.5001,3.5038,3.5038,4.1017,4.1426,4.1637,4.0567,4.0374,4.0222,3.9408,3.9261,0.0,0.0,3.8779,3.8563,3.8104,3.788,3.7954,3.8542,3.85,3.8958,4.0577,4.0726,4.0978,0.0,4.1395,4.0799,4.0118,3.9568,0.0,0.0,3.809,3.7984,3.7899,3.7899,3.7951,3.8069,3.8252,3.8366,3.8399,3.869,3.869,3.8417,3.9469,3.952,3.875,4.0249,4.0184,3.9001,3.9592,0.0,3.8877,3.891,3.891,3.891,3.8964,3.9036,3.9087,3.9156,3.9242,3.9346,3.936,3.9399,3.9444,3.9373,3.9279,3.9063,3.8446,3.817,3.7932,3.7401,3.7246,3.7219,3.7087,3.6503,3.5937,3.5775,3.5187,3.4655,3.4655,3.4594,3.4561,3.4572,3.4634,3.4697,3.4772,3.4782,3.4821,3.4955,3.502,3.5048,3.5057,3.4889,3.4792,3.4831,3.486,3.486,3.487,3.487,3.487,3.487,3.4927,3.4955,3.4964,3.4963,3.499,3.5062,3.5062,3.5107,3.5176,3.5176,3.5132,3.5098,3.5193,3.5229,4.0247,4.0332,4.0419,3.9707,3.9581,3.947,3.8944,0.0,0.0,0.0,3.8578,3.8496,3.8204,3.8018,0.0,3.8384,3.8312,3.8812,4.0462,4.0659,0.0,4.237,4.2266,4.1784,0.0,4.0635,3.9986,3.8862,3.8805,3.8607,3.8073,3.8089,3.8172,3.83,3.8396,3.8496,3.8562,3.8562,3.8562,3.8562,3.9014,3.9027,3.8686,3.9553,3.9559,3.8885,3.9346,0.0,3.9007,3.9031,3.9092,3.9166,3.9221,3.9248,3.9261,3.9328,3.9373,3.9405,3.9405,3.9432,3.9489,3.9464,3.9496,3.9477,3.913,3.9034,3.8971,3.8644,3.8576,3.8504,3.8037,3.733,3.6615,3.613,3.5363,3.4758,3.4758,3.4737,3.4708,3.4751,3.4781,3.484,3.4945,3.4963,3.4991,3.5081,3.5126,3.5151,3.5196,3.5126,3.5046,3.5011,3.501,3.5,3.5,3.5046,3.5046,3.5,3.5063,3.5089,3.5089,3.5132,3.5174,3.5203,3.5203,3.5211,3.5254,3.5289,3.5262,3.5203,3.5304,3.532,3.9583,3.9388,3.9293,3.9054,3.9036,3.9031,3.8877,3.8877,0.0,0.0,3.8609,3.8627,3.8305,3.817,3.8085,0.0,3.7968,3.8438,3.9914,4.0058,4.0581,0.0,4.2355,0.0,4.1542,4.1506,0.0,3.9632,3.936,3.8979,3.8277,3.8323,3.8385,3.851,3.8525,3.859,3.8707,3.8707,3.8707,3.8719,3.8719,3.8765,3.8822,3.8837,3.8881,3.8939,3.9007,0.0,0.0,3.9215,3.9301,3.9405,3.9457,3.9444,3.9405,3.9451,3.9451,3.9419,3.9438,3.9489,3.9551,3.9563,3.9625,3.9698,3.972,3.9724,3.9724,3.9735,3.9781,3.9626,3.8779,3.8121,3.7442,3.6531,3.5557,3.4886,3.5056,3.4962,3.4859,3.4936,3.4936,3.4982,3.5122,3.5138,3.5166,3.5242,3.525,3.5258,3.53,3.5308,3.5277,3.5162,3.5141,3.5147,3.5147,3.519,3.5198,3.5147,3.5215,3.5258,3.5258,3.5304,3.5342,3.5352,3.5338,3.533,3.533,3.5405,3.5386,3.5338,3.5405,3.542,3.8984,3.9129,3.9087,3.8935,3.895,3.8993,3.8997,0.0,0.0,3.8788,3.8777,3.8652,3.8185,3.8101,3.8069,3.7951,0.0,3.8222,3.9175,3.9301,3.9644,4.0601,0.0,0.0,4.0815,4.0865,4.0517,3.966,3.8911,3.8474,3.8385,3.8446,3.8494,3.851,3.8624,3.8692,3.8707,3.8707,3.8719,3.8792,3.8792,3.8837,3.8877,3.895,3.8979,3.8993,3.9133,0.0,0.0,3.9328,3.9391,3.9405,3.9405,3.9405,3.9386,3.9413,3.9439,3.9502,3.957,3.963,3.9689,3.9758,3.9735,3.9701,3.977,3.9792,3.9804,3.9867,3.9889,3.9711,3.8978,3.8672,3.8357,3.7475,3.6112,3.5173,3.5913,3.5496,3.4992,3.5062,3.5079,3.5122,3.5251,3.5281,3.53,3.5376,3.5372,3.5357,3.5308,3.5357,3.5357,3.5293,3.5274,3.5274,3.5274,3.5293,3.5293,3.5274,3.5398,3.546,3.546,3.5482,3.547,3.5477,3.5475,3.5474,3.5474,3.5493,3.5493,3.5474,3.5493,3.5493,3.8417,3.887,3.9234,3.9007,3.9007,3.9036,3.8925,0.0,3.8921,3.8664,3.8713,3.8667,3.8287,3.8252,3.8254,0.0,0.0,0.0,3.926,3.9386,3.9728,4.063,4.0789,0.0,0.0,0.0,3.9914,3.9111,3.8761,3.8578,3.8578,3.8544,3.851,3.851,3.8624,3.8719,3.8765,3.8765,3.8792,3.8866,3.8866,3.891,3.895,3.8997,3.9021,3.9078,3.9156,0.0,0.0,3.9426,3.9508,3.9583,3.9583,3.9576,3.9576,3.9582,3.9606,3.9611,3.9654,3.9712,3.977,3.9826,3.9878,3.9889,3.9859,3.99,3.9933,3.9954,3.9994,3.996,3.9698,3.9252,3.8661,3.7785,3.6727,3.5992,3.6316,3.5725,3.5132,3.5203,3.5219,3.5431,3.6094,3.5775,3.5608,3.6163,3.5803,3.5456,3.5423,3.5437,3.5456,3.5423,3.5415,3.542,3.542,3.5462,3.5469,3.5469,3.5534,3.5554,3.5554,3.5509,3.5509,3.5509,3.5501,3.55,3.55,3.55,3.55,3.55,3.546,3.546,3.7551,3.8053,3.8515,3.8496,3.8381,3.8298,0.0,0.0,3.8143,3.7888,3.7933,3.7951,3.7724,3.7676,3.7717,0.0,0.0,3.8267,3.9067,3.9245,3.9511,0.0,0.0,4.0423,0.0,3.99,3.9662,3.9093,3.8836,3.8707,3.8707,3.864,3.8588,3.8588,3.8701,3.8795,3.8837,3.8837,3.8848,3.8921,3.8921,3.8964,3.9036,3.905,3.9073,3.9129,3.9242,0.0,0.0,3.9527,3.9619,3.9705,3.9696,3.9701,3.9701,3.9735,3.9758,3.9758,3.9792,3.9856,3.9911,3.9965,4.0026,4.0038,4.0007,4.0007,4.0036,4.0036,3.9916,3.9843,4.0129,3.9431,3.8644,3.8501,3.766,3.6988,3.7261,3.6438,3.5745,3.6058,3.5919,3.5974,3.6697,3.6299,3.6016,3.6395,3.5913,3.5522,3.549,3.5515,3.5522,3.549,3.5522,3.5528,3.5534,3.5566,3.5598,3.5598,3.5604,3.559,3.559,3.5553,3.5534,3.5522,3.5502,3.5494,3.55,3.55,3.5493,3.5467,3.5446,3.5441,3.6238,3.6412,3.6583,3.7161,3.6824,3.6548,0.0,0.0,3.638,3.6262,3.6215,3.6233,3.6223,3.6064,3.6215,3.7057,0.0,0.0,3.8307,3.858,3.8726,0.0,0.0,3.99,3.99,3.99,3.99,3.9882,3.9148,0.0,3.8707,3.8747,3.8807,3.8807,3.8848,3.891,3.891,3.891,3.8921,3.8993,3.8993,3.9036,3.9101,3.917,3.9197,3.921,0.0,0.0,0.0,3.9645,3.9693,3.9705,3.9696,3.9701,3.9712,3.9856,3.99,3.9911,4.0046,4.0106,4.0117,4.0176,4.0196,4.0206,4.0206,4.0148,4.0106,4.0106,3.9576,3.9193,3.9995,3.9063,3.8306,3.9895,3.9048,3.8147,3.9069,3.7911,3.6971,3.7893,3.7366,3.68,3.6889,3.6832,3.6511,3.5736,3.5596,3.5566,3.5515,3.556,3.5566,3.5515,3.5565,3.5608,3.5598,3.5598,3.5598,3.5598,3.5608,3.5601,3.5601,3.5601,3.5608,3.5598,3.5528,3.5509,3.55,3.55,3.546,3.5405,3.546,3.5501,3.5316,3.5817,3.6277,3.6331,3.6218,3.6138,3.6294,0.0,3.6109,3.6065,3.6175,3.6252,3.6142,3.6146,3.6394,3.7103,3.7228,0.0,0.0,0.0,0.0,3.884,3.9058,3.9224,0.0,0.0,3.9224,3.9224,3.8984,3.8837,3.8837,3.891,3.8877,3.8807,3.8881,3.8921,3.8983,3.8964,3.9007,3.9059,3.9059,3.9101,3.917,3.9142,3.9215,0.0,0.0,0.0,0.0,3.9637,3.9743,3.9841,3.9889,3.9933,3.9984,4.0026,4.0067,4.0108,4.0157,4.0167,4.0187,4.0243,4.0262,4.028,4.0313,4.0288,4.0243,4.029,4.018,4.0079,4.0339,4.0044,3.9831,4.0377,3.9654,3.8953,3.9292,3.8477,3.7765,3.8105,3.746,3.7085,3.7735,3.6848,3.6154,3.6513,3.601,3.5596,3.5566,3.559,3.5596,3.5566,3.5637,3.5646,3.5595,3.5645,3.5681,3.5681,3.5668,3.5673,3.5673,3.5612,3.5608,3.5598,3.5585,3.5547,3.55,3.5495,3.5475,3.5405,3.5467,3.5507,0.0,3.4663,3.5133,3.5266,3.5105,3.4957,0.0,0.0,3.5023,3.5056,3.5415,3.5644,3.5325,3.553,3.5872,3.6303,3.6692,3.7231,0.0,0.0,0.0,3.8896,0.0,0.0,0.0,3.891,3.891,3.891,3.8921,3.895,3.8979,3.9036,3.9064,3.9026,3.9007,3.9036,3.9078,3.9078,3.9073,3.9101,3.9101,3.9129,3.917,3.9202,3.9275,0.0,0.0,0.0,0.0,3.9712,3.9815,3.9911,3.9996,4.0057,4.0087,4.0137,4.0166,4.0206,4.0234,4.0234,4.0243,4.0316,4.036,4.0383,4.0449,4.0425,4.0394,4.0455,4.0499,4.0515,4.0527,4.0543,4.0546,4.0583,4.0186,3.9815,3.9869,3.9226,3.8742,3.9118,3.851,3.8095,3.8688,3.7878,3.7102,3.7005,3.6483,3.5973,3.5635,3.5612,3.5623,3.5595,3.5662,3.5688,3.5637,3.5681,3.5701,3.5701,3.5684,3.5803,3.6132,3.5794,3.5745,3.6055,3.5733,3.5547,3.55,3.5475,3.5442,3.5446,3.5486,3.5507,0.0,3.3247,3.3427,3.4051,3.3643,3.3299,3.4036,0.0,0.0,3.355,3.424,3.4615,3.4081,3.4476,3.4907,3.4995,3.5786,3.6628,0.0,3.8317,0.0,0.0,3.8921,0.0,3.8939,3.8939,3.8939,3.8939,3.8979,3.905,3.9115,3.9183,3.9269,3.9405,3.9269,3.921,3.921,3.9197,3.917,3.9115,3.9115,3.9115,3.9129,3.9301,3.9399,0.0,0.0,0.0,0.0,3.9853,3.9911,3.9933,4.0057,4.0117,4.0127,4.0186,4.0215,4.0225,4.0282,4.0318,4.0334,4.0388,4.0471,4.0512,4.0588,4.0565,4.0523,4.058,4.0565,4.0519,4.0574,4.0605,4.0603,4.0607,4.0602,4.0641,4.0687,4.0126,3.9834,4.0646,4.0153,3.9596,3.9615,3.9492,3.8889,3.7325,3.7041,3.6679,3.5805,3.5753,3.5736,3.5612,3.5659,3.5708,3.5708,3.5703,3.5707,3.5683,3.5635,3.5968,3.6779,3.6034,3.5945,3.669,3.5965,3.5617,3.568,3.5626,3.5587,3.5584,3.5584,3.5553,3.3449,0.0,3.3096,3.3212,3.3167,3.3155,0.0,0.0,0.0,0.0,0.0,0.0,0.0,3.5286,3.5605,3.5026,3.5744,3.6703,3.7562,0.0,0.0,3.9129,3.9221,3.928,3.928,3.928,3.928,3.928,3.9293,3.9307,3.9333,3.9346,3.9386,3.9469,3.9386,3.936,3.936,3.9202,3.9202,3.9333,3.9175,3.9215,3.9399,3.9349,3.9445,0.0,0.0,0.0,3.9864,3.9889,3.9986,4.0128,4.0166,4.0215,4.0253,4.0272,4.0317,4.0363,4.0435,4.0447,4.0457,4.0527,4.0561,4.0593,4.0666,4.0631,4.058,4.0605,4.0593,4.0574,4.0607,4.0607,4.0614,4.0655,4.0675,4.0694,4.0754,4.0635,4.0563,4.0828,4.0198,3.9626,3.966,3.9063,3.8451,3.8049,3.7943,3.7574,3.6717,3.6654,3.6438,3.5755,3.5689,3.5708,3.5708,3.5703,3.5678,3.5637,3.5604,3.5691,3.5899,3.5719,3.5656,3.5798,3.6208,3.6759,3.7408,3.7453,3.7119,3.6484,3.6479,3.617,3.4269,3.3659,3.2971,3.3378,3.3263,3.3055,3.3086,0.0,0.0,0.0,0.0,0.0,0.0,0.0,3.6263,3.5206,3.5832,0.0,0.0,0.0,3.9354,3.9301,3.9375,3.9426,0.0,3.9406,3.94,3.9439,3.9458,3.9452,3.9496,3.9521,3.9558,3.9583,3.9533,3.9458,3.9405,3.9229,3.9215,3.9301,3.9202,3.9242,3.9457,3.9406,3.9464,0.0,0.0,0.0,3.99,4.0005,4.0098,4.0206,4.0234,4.0262,4.0309,4.0335,4.037,4.0407,4.0441,4.0479,4.0504,4.0573,4.0598,4.0621,4.0687,4.0668,4.0654,4.0674,4.0668,4.0641,4.0675,4.0675,4.0662,4.0724,4.0742,4.0754,4.0837,4.0842,4.0853,4.0898,4.0519,4.0209,4.0248,3.9805,3.9314,3.8951,3.851,3.8044,3.7602,3.6878,3.6385,3.6308,3.5941,3.5708,3.5708,3.5703,3.5683,3.5648,3.5629,3.5769,3.6182,3.5816,3.5753,3.608,3.6907,3.7569,3.8045,3.8071,3.7866,3.7398,3.7025,3.6612,3.5226,3.4178,3.3268,3.4112,3.3749,3.3257,3.3427,0.0,0.0,0.0,0.0,0.0,0.0,3.644,0.0,0.0,0.0,0.0,3.7906,3.8794,3.9382,3.9438,3.9483,0.0,3.9439,3.9458,3.9464,3.9526,3.9539,3.9563,3.9611,3.9677,3.9701,3.9701,3.9623,3.9564,3.9438,3.9296,3.9237,3.9283,3.9256,3.9315,3.9457,3.9476,3.9521,3.9563,0.0,0.0,3.9943,4.0137,4.0206,4.0215,4.028,4.0307,4.0325,4.0388,4.0415,4.0424,4.0424,4.0452,4.0531,4.0588,4.0605,4.0628,4.0681,4.072,4.0725,4.079,4.0765,4.0733,4.0788,4.0769,4.0724,4.0801,4.0812,4.0823,4.0883,4.0907,4.0898,4.0903,4.0907,4.0898,4.0907,4.0842,4.0574,3.9896,3.911,3.8564,3.8501,3.7093,3.6323,3.6943,3.6358,3.5839,3.5708,3.5931,3.6031,3.5896,3.5828,3.618,3.7043,3.6362,3.635,3.7185,3.7924,3.8355,3.849,3.8497,3.8433,3.8286,3.7603,3.7158,3.5757,3.535,3.4728,3.4783,3.4521,3.442,0.0,0.0,0.0,0.0,0.0,0.0,0.0,3.7938,3.8059,0.0,0.0,3.7997,0.0,0.0,3.963,3.9582,0.0,3.9665,3.9654,3.9654,3.9654,3.9665,0.0,3.9677,3.9677,3.9689,3.9701,3.9701,3.9623,3.9575,3.957,3.9446,3.9446,3.9614,3.9451,3.9464,3.9645,3.9552,3.9587,3.977,0.0,3.9943,4.0086,4.0166,4.0225,4.0289,4.0298,4.0325,4.0388,4.0458,4.0474,4.0474,4.0476,4.0523,4.0588,4.0605,4.0647,4.07,4.0764,4.0788,4.0794,4.0804,4.079,4.079,4.0796,4.0796,4.0801,4.0872,4.0877,4.0888,4.0893,4.0903,4.0903,4.0907,4.0907,4.0898,4.0907,4.0842,4.0762,4.0637,4.0485,4.0161,3.9497,3.851,3.77,3.7141,3.691,3.6498,3.5766,3.6994,3.7508,3.6754,3.6706,3.7076,3.7881,3.7797,3.8119,3.898,3.9141,3.9546,4.0221,4.0268,3.9914,3.9206,3.9128,3.8309,3.6077,3.6328,3.6435,3.6381,3.5699,3.5157,0.0,0.0,0.0,0.0,0.0,0.0,0.0,0.0,3.9258,3.8234,0.0,3.9339,3.8437,3.9138,3.9735,0.0,0.0,3.9781,3.9758,3.98,3.9811,0.0,0.0,0.0,3.9823,3.9837,3.9856,3.9811,3.977,3.9758,3.9758,3.9677,3.963,3.9637,3.9552,3.9583,3.9703,3.963,3.9689,3.9804,0.0,4.0015,4.0117,4.0215,4.0271,4.0316,4.0379,4.0432,4.0458,4.0487,4.0511,4.0554,4.0558,4.0598,4.0648,4.0642,4.07,4.0769,4.0798,4.0834,4.0846,4.0842,4.0837,4.0812,4.0842,4.0839,4.0878,4.0946,4.096,4.095,4.0943,4.0943,4.0943,4.0943,4.0926,4.0898,4.0907,4.0842,4.0801,4.0809,4.0436,4.0195,4.0299,3.9136,3.8331,3.8437,3.7996,3.7536,3.7148,3.7806,3.8078,3.7638,3.7601,3.7763,3.8137,3.8601,3.9032,3.9457,3.9883,4.0295,4.0713,4.0745,4.0551,4.0144,3.9735,3.9127,3.6256,3.6952,3.7631,3.7703,0.0,0.0,0.0,0.0,0.0,0.0,0.0,0.0,0.0,3.9266,0.0,3.9871,4.0289,4.0285,3.9222,3.9539,3.9848,3.9811,3.9889,3.9922,3.9889,3.9922,0.0,0.0,0.0,0.0,3.9943,4.0005,3.9996,3.9943,3.9962,3.9962,3.9962,3.99,3.9792,3.9654,3.9654,3.9689,3.9754,3.9724,3.977,3.9889,3.9965,4.0057,4.0118,4.0252,4.0316,4.0353,4.0449,4.0518,4.0523,4.0523,4.0561,4.0603,4.0603,4.0635,4.0694,4.0694,4.0761,4.0807,4.0818,4.0867,4.0902,4.0893,4.0868,4.0863,4.0917,4.0922,4.095,4.0991,4.1003,4.0996,4.0996,4.0996,4.0937,4.0743,4.0827,4.0854,4.065,4.0722,4.0818,4.0828,4.0305,4.014,4.0806,3.9573,3.8874,3.9553,3.903,3.869,3.8884,3.8724,3.8664,3.8814,3.8822,3.8816,3.8804,3.946,3.9809,3.9803,4.0409,4.075,4.0806,4.0806,4.0804,4.0787,4.0172,3.9785,3.631,3.697,3.7757,3.8,0.0,0.0,0.0,0.0,0.0,0.0,0.0,0.0,0.0,3.9575,4.0026,4.0939,4.0457,4.0222,4.0989,0.0,4.0086,4.0067,4.0067,4.0077,4.0067,0.0,0.0,0.0,0.0,0.0,4.0096,4.0077,4.0077,4.0096,4.0096,4.0096,4.0096,4.0077,3.9975,3.9792,3.9792,3.9815,3.9878,3.9815,3.99,4.0086,4.0017,4.0077,4.0196,4.0262,4.0353,4.0407,4.0466,4.0531,4.058,4.0586,4.0607,4.0607,4.0607,4.0636,4.0694,4.0694,4.0761,4.0812,4.0872,4.0902,4.0907,4.0898,4.0941,4.0997,4.0982,4.0995,4.0992,4.0992,4.0992,4.0996,4.0996,4.0996,4.0762,3.9941,4.0435,4.0749,3.9924,4.0408,4.0888,4.0898,4.0844,4.0834,4.09,4.0139,3.9622,3.9684,3.9649,3.99,4.0655,3.9971,3.9854,4.0645,4.0657,4.0616,4.0601,4.0668,4.0713,4.0717,4.0765,4.0801,4.0807,4.0807,4.0807,4.0807,4.0729,4.0308,3.5771,3.6839,3.8017,3.8283,0.0,0.0,0.0,0.0,0.0,0.0,0.0,0.0,0.0,0.0,4.0767,4.1203,4.1442,4.1339,4.0646,4.0753,4.0706,4.0164,4.0106,4.0106,0.0,0.0,0.0,0.0,0.0,0.0,4.0087,4.0147,4.0147,4.0106,4.0106,4.0106,4.0106,4.0106,4.0057,3.9994,3.9994,3.9975,3.9965,3.9975,4.0036,4.0106,4.0127,4.0138,4.0206,4.0317,4.037,4.0415,4.0523,4.0577,4.0595,4.0593,4.0628,4.0661,4.0661,4.07,4.0754,4.0754,4.0812,4.0859,4.0888,4.0893,4.0893,4.0903,4.0954,4.1003,4.101,4.0992,4.0995,4.0995,4.1022,4.1068,4.1068,4.1068,4.0795,3.9919,4.0392,4.0671,3.985,4.0374,4.0893,4.0903,4.0941,4.0958,4.096,4.07,4.0513,4.0508,4.0505,4.0626,4.0932,4.0663,4.061,4.0936,4.0398,4.0278,4.0771,4.0317,4.0303,4.0851,4.0862,4.0858,4.0859,4.0859,4.0859,4.0859,4.0859,4.0704,3.5948,3.7071,3.8267,0.0,0.0,0.0,0.0,0.0,0.0,0.0,0.0,0.0,0.0,0.0,0.0,0.0,4.1683,4.1569,4.073,4.0883,4.0864,4.0263,4.0186,4.0186,0.0,0.0,0.0,0.0,0.0,0.0,0.0,4.0206,4.0206,4.0167,4.0167,4.0177,4.0186,4.0176,4.0157,4.0138,4.0157,4.0137,4.0048,4.0108,4.0147,4.0157,4.0186,4.0206,4.0253,4.0354,4.0405,4.0447,4.0565,4.061,4.0617,4.0647,4.07,4.0739,4.0726,4.0763,4.0793,4.0828,4.0883,4.0921,4.093,4.093,4.093,4.093,4.0956,4.1003,4.0992,4.1011,4.1036,4.1036,4.1062,4.1091,4.1097,4.1071,4.0734,3.961,4.0209,4.0582,3.9521,4.0222,4.0946,4.0967,4.098,4.1015,4.103,4.1034,4.1038,4.1032,4.1036,4.1029,4.1034,4.1019,4.1007,4.1007,4.0135,3.999,4.0804,4.0305,4.029,4.0883,4.0893,4.0908,4.0907,4.0907,4.0912,4.0921,4.0921,4.0926,3.7087,3.7749,3.851,0.0,0.0,0.0,0.0,0.0,0.0,0.0,0.0,0.0,0.0,0.0,0.0,4.1538,4.0917,4.0631,4.1557,4.0952,4.0407,4.0407,4.0407,0.0,0.0,0.0,0.0,0.0,0.0,0.0,0.0,4.0307,4.0307,4.0307,4.0307,4.0325,4.0407,4.0337,4.0263,4.0205,4.0263,4.0263,4.0196,4.0196,4.0244,4.0301,4.0234,4.0244,4.031,4.0372,4.0447,4.0504,4.0566,4.0595,4.0621,4.0752,4.0797,4.0797,4.0808,4.0798,4.0818,4.0874,4.0945,4.0991,4.1007,4.0996,4.0996,4.0996,4.0991,4.1009,4.1009,4.1059,4.1107,4.1107,4.1107,4.1094,4.1092,4.1052,4.0507,3.8834,3.9863,4.0474,3.8802,3.9906,4.1027,4.1081,4.1039,4.1013,4.1088,4.1107,4.1107,4.1107,4.1107,4.1107,4.1107,4.1036,4.1009,4.1009,4.019,4.0068,4.0868,4.0893,4.0893,4.0883,4.0893,4.0907,4.0888,4.0907,4.0921,4.1006,4.1006,4.0995,3.732,3.8043,0.0,3.9124,0.0,0.0,0.0,0.0,0.0,0.0,0.0,0.0,0.0,0.0,0.0,4.0737,4.1076,4.1182,4.0841,4.1085,4.1316,4.1316,4.1316,0.0,0.0,0.0,0.0,0.0,0.0,0.0,0.0,4.037,4.037,4.037,4.037,4.0379,4.0407,4.0381,4.0335,4.0261,4.0335,4.0309,4.0196,4.0253,4.0272,4.0299,4.029,4.0308,4.0372,4.0432,4.0515,4.058,4.0593,4.0628,4.0668,4.0778,4.0809,4.0808,4.0794,4.0826,4.0869,4.0883,4.0954,4.1007,4.0992,4.0996,4.0996,4.0996,4.0991,4.1009,4.1009,4.1059,4.1088,4.1036,4.1022,4.1034,4.1022,4.1015,4.0684,3.9624,4.0278,4.0669,3.9598,4.0294,4.1019,4.1029,4.1009,4.1013,4.1088,4.1107,4.1107,4.1107,4.1107,4.1107,4.1107,4.1036,4.1009,4.1009,4.0754,4.0711,4.0967,4.0375,4.0056,4.0066,4.0601,4.0616,4.0053,4.0616,4.0921,4.1006,4.1006,4.0995,3.8163,3.8674,0.0,3.9439,3.9526,3.9611,3.9848,0.0,0.0,0.0,0.0,0.0,4.0419,4.046,0.0,4.0477,4.0923,4.1088,4.0554,4.1234,4.1775,4.1772,0.0,0.0,0.0,0.0,0.0,0.0,0.0,0.0,0.0,4.0449,4.0441,4.0441,4.0441,4.0449,4.0447,4.0405,4.0388,4.0379,4.0388,4.0363,4.0281,4.0309,4.0336,4.0334,4.0334,4.0379,4.0441,4.0471,4.0335,4.0133,4.0491,4.0481,4.0262,4.0661,4.0794,4.0798,4.0826,4.0868,4.0893,4.0924,4.0968,4.1011,4.1034,4.1038,4.1038,4.1038,4.1048,4.1039,4.1046,4.1046,4.1059,4.1009,4.1022,4.1041,4.1048,4.1025,4.0756,3.9956,4.0442,4.0737,3.9947,4.0474,4.1006,4.1046,4.1042,4.1059,4.1088,4.1094,4.11,4.11,4.11,4.1103,4.1106,4.1055,4.1033,4.1036,4.1046,4.0883,4.0533,3.9995,3.9548,3.9198,3.9668,3.9846,3.9693,4.0192,4.0613,4.0999,4.1007,4.1003,3.9311,0.0,0.0,3.9781,3.9848,0.0,4.0157,0.0,4.0225,4.0234,0.0,4.0593,4.0516,4.0699,4.0807,4.073,4.0788,4.0846,4.0846,4.1531,4.2055,4.2131,0.0,0.0,0.0,0.0,0.0,0.0,0.0,0.0,0.0,4.0503,4.0518,4.0518,4.0491,4.0487,4.0496,4.0447,4.0441,4.0502,4.0441,4.0415,4.0415,4.0407,4.0407,4.0415,4.0424,4.0411,4.0394,4.0489,4.0046,3.9401,4.0345,4.0262,3.97,4.0517,4.0804,4.0823,4.0874,4.0893,4.093,4.0972,4.1009,4.1013,4.1085,4.1107,4.1107,4.1107,4.1107,4.1094,4.1109,4.1052,4.1009,4.1009,4.1055,4.1088,4.1087,4.1039,4.0785,4.006,4.051,4.0785,4.0045,4.0521,4.1039,4.1092,4.11,4.111,4.1091,4.1106,4.1095,4.1098,4.1098,4.1103,4.1093,4.1103,4.1103,4.1093,4.1093,4.0703,3.9848,3.9805,3.9347,3.8316,3.8526,3.8956,3.9578,3.9739,4.0237,4.1,4.0999,4.1036,3.9489,3.9599,0.0,0.0,4.0158,4.0289,4.0334,4.0438,4.0495,4.0449,4.1006,4.1331,4.0688,4.1716,4.2435,4.18,4.223,4.2628,4.2644,4.2809,4.3173,0.0,0.0,0.0,0.0,0.0,0.0,0.0,0.0,0.0,4.0624,4.0588,4.0577,4.0577,4.0535,4.0508,4.0496,4.0492,4.0487,0.0,4.0487,4.0487,4.0485,4.0424,4.0432,4.0474,4.0538,4.0189,3.9604,4.0306,4.0092,3.9462,4.0352,4.0642,4.0537,4.0736,4.0826,4.0874,4.0883,4.0924,4.0972,4.1002,4.1036,4.1085,4.1107,4.1107,4.1107,4.1107,4.1107,4.111,4.1094,4.1091,4.1062,4.1009,4.1018,4.1027,4.1015,4.1006,4.0964,4.0842,4.0959,4.102,4.0849,4.0952,4.1087,4.1097,4.1091,4.1094,4.1109,4.1095,4.11,4.1108,4.1111,4.1091,4.1093,4.1091,4.1091,4.1093,4.1093,4.0708,3.9839,4.0388,3.9682,3.75,3.9418,3.9867,3.8688,4.0058,4.0828,4.1002,4.1006,4.1036,3.9668,0.0,0.0,4.0243,0.0,4.046,4.0481,4.0558,4.073,4.113,4.1581,4.1904,4.1889,4.2658,4.3156,4.2744,4.3028,4.3292,4.3292,4.3266,4.3568,0.0,0.0,0.0,0.0,0.0,0.0,0.0,0.0,4.1574,4.0693,4.0619,4.0598,4.0598,4.0564,4.0542,4.0539,4.0539,4.0543,4.0495,4.05,4.05,4.0495,4.0452,4.0487,4.0546,4.0585,4.0126,3.9374,3.9842,3.9541,3.8904,3.9786,4.0169,4.0278,4.0685,4.0888,4.095,4.0958,4.0964,4.1015,4.1032,4.1059,4.1062,4.1088,4.1107,4.1107,4.1107,4.1107,4.1094,4.1109,4.11,4.0994,4.0535,4.0439,4.0438,4.0438,4.0422,4.0446,4.0467,4.0808,4.1109,4.1099,4.1103,4.1098,4.1094,4.1107,4.1094,4.1103,4.1095,4.093,4.0528,4.0847,4.0929,4.0506,4.0481,4.0656,4.1072,4.0701,4.0274,3.9811,4.0611,4.0028,3.7859,3.9129,3.9556,3.9026,3.9967,4.0616,4.1009,4.1036,4.1062,3.9441,0.0,4.0287,4.0492,4.0542,0.0,4.0615,4.0635,4.0912,4.1835,4.2138,4.2447,4.317,4.3608,4.3794,4.3649,4.3751,4.3854,4.3854,4.3664,4.382,0.0,0.0,0.0,0.0,0.0,0.0,0.0,0.0,4.1474,4.0765,4.0641,4.0628,4.0621,4.0614,4.0593,4.0595,4.0588,4.0573,4.0519,4.0519,4.0519,4.0519,4.0519,4.0546,4.0607,4.0595,4.0051,3.9199,3.9361,3.8948,3.8295,3.9162,3.9638,3.9908,4.0621,4.0854,4.0805,4.0957,4.0906,4.0816,4.102,4.1059,4.1032,4.1062,4.1088,4.1107,4.1107,4.1107,4.1094,4.11,4.0992,4.0688,3.9972,3.9569,3.9396,3.9535,3.9694,3.9791,3.9806,4.0496,4.1106,4.1103,4.1105,4.1103,4.1094,4.1091,4.1094,4.1097,4.1103,4.0767,3.9891,4.0448,4.0572,3.9857,3.9792,4.0162,4.103,4.0424,4.0015,4.0015,4.0572,4.027,3.897,3.8948,3.9204,3.9711,3.9916,4.0364,4.1013,4.1065,4.1107,0.0,0.0,3.9721,0.0,4.0726,4.0754,0.0,0.0,4.1106,0.0,4.2683,4.3176,4.3354,4.463,4.5409,4.4641,4.5151,4.5661,4.5661,4.4993,0.0,0.0,0.0,0.0,0.0,0.0,0.0,0.0,4.0889,4.0903,4.079,4.0726,4.0688,4.0694,4.0628,4.0607,4.0607,4.0603,4.0603,4.06,4.06,4.06,4.06,4.06,4.0598,4.0607,4.0605,3.972,3.8337,3.9161,3.8972,3.8288,3.9162,4.0003,4.0747,4.0864,4.0462,3.999,4.073,4.0545,4.0088,4.0779,4.1059,4.1085,4.1036,4.1059,4.1107,4.1107,4.1107,4.111,4.1094,4.0548,3.9941,3.9828,3.8658,3.7743,3.8514,3.927,3.9791,3.9806,4.0491,4.1109,4.1108,4.11,4.1092,4.1091,4.1103,4.1098,4.1106,4.1103,4.0762,3.9893,3.9894,3.9935,3.9819,3.9798,4.0169,4.1031,4.0992,4.0934,4.0934,4.032,4.0212,4.0742,4.0752,4.0432,3.9786,4.0552,4.0971,4.1088,4.1107,4.1107,3.8504,3.9091,3.9638,0.0,4.0832,4.0864,4.0893,0.0,4.1166,4.2066,4.2514,4.3044,4.4011,4.5206,4.5945,4.5592,4.5853,4.6106,4.6106,4.4937,0.0,0.0,0.0,0.0,0.0,0.0,0.0,0.0,4.0801,4.0796,4.0792,4.0767,4.0756,4.0758,4.072,4.0701,4.0661,4.066,4.0633,4.0595,4.0647,4.0647,4.0595,4.0628,4.0666,4.0653,4.0666,3.9702,3.8195,3.8593,3.828,3.7616,3.8498,3.9393,4.0286,4.079,4.0723,4.0485,4.0875,4.0762,4.0532,4.0875,4.1027,4.105,4.1002,4.1013,4.1059,4.1088,4.1107,4.1094,4.1092,4.044,3.9672,3.9182,3.8102,3.7183,3.7113,3.7741,3.8623,3.9609,4.0508,4.1107,4.11,4.1095,4.1089,4.1091,4.1103,4.1098,4.1103,4.1103,4.0588,3.9226,3.9504,3.9411,3.8478,3.8396,3.8982,4.0333,3.9978,3.9897,4.0342,4.0478,4.0471,4.0374,4.0362,4.0429,4.0535,4.0919,4.1107,4.1107,4.1107,4.1107,0.0,0.0,3.9113,4.0296,4.061,4.0688,0.0,0.0,4.1156,0.0,4.2175,4.2708,4.3961,4.5079,4.58,4.5855,4.5878,4.5878,4.5878,4.4364,0.0,0.0,0.0,0.0,0.0,0.0,0.0,0.0,4.0839,4.0833,4.0807,4.0812,4.0821,4.0792,4.0792,4.0782,4.0726,4.0739,4.0681,4.0622,4.0681,4.07,4.0641,4.0694,4.0726,4.0726,4.0713,3.9741,3.8205,3.8216,3.7751,3.7099,3.7734,3.8564,3.9488,4.0345,4.054,4.0439,4.0848,4.0844,4.07,4.0929,4.1007,4.1007,4.0991,4.1006,4.1036,4.1085,4.1107,4.1097,4.1103,4.0296,3.931,3.8649,3.7664,3.6762,3.6382,3.6797,3.7675,3.9176,3.9997,4.0517,4.0725,4.0778,4.0833,4.1078,4.1089,4.1103,4.1106,4.1105,4.0434,3.8717,3.9289,3.9217,3.7759,3.7813,3.8573,4.0102,3.9588,3.9502,4.012,4.0531,4.0565,4.0135,3.9908,4.0229,4.1097,4.1091,4.1107,4.1107,4.1107,4.1107,0.0,3.7273,0.0,3.9357,3.9802,0.0,0.0,0.0,0.0,4.1143,4.1827,4.241,4.2508,4.3865,4.4955,4.4969,4.4972,4.4972,4.4972,4.3479,0.0,0.0,0.0,0.0,0.0,0.0,0.0,0.0,4.0945,4.0931,4.0812,4.0867,4.0872,4.0807,4.0807,4.0809,4.0794,4.0784,4.0752,4.0694,4.0752,4.079,4.079,4.0802,4.0794,4.0788,4.0725,3.9758,3.8194,3.8271,3.7817,3.7104,3.7142,3.7707,3.8576,3.9455,3.9275,3.8864,4.0441,4.0466,3.9902,4.0723,4.0996,4.1002,4.1003,4.1041,4.1107,4.1107,4.1107,4.1094,4.1092,3.9847,3.8558,3.8505,3.7198,3.6185,3.6961,3.7217,3.7558,3.8391,3.8601,3.8904,3.9733,3.9864,4.0142,4.0975,4.1106,4.1098,4.109,4.1101,4.0464,3.8767,3.9312,3.9451,3.86,3.9238,4.0057,4.0981,4.1007,4.0996,4.1035,4.0274,4.0223,4.102,4.0223,4.0223,4.1095,4.1097,4.1107,4.1107,4.1107,4.1107,0.0,0.0,0.0,3.9325,3.9769,4.0032,4.09,4.1109,4.1099,4.1101,4.1356,4.157,4.157,4.298,4.4135,4.4122,4.4126,4.4128,4.4124,4.3103,0.0,0.0,0.0,0.0,0.0,0.0,0.0,0.0,0.0,4.0987,4.0931,4.0956,4.0937,4.0872,4.0853,4.0837,4.079,4.0798,4.0787,4.0763,4.0782,4.0796,4.0797,4.0802,4.0794,4.08,4.0829,4.0176,3.911,3.912,3.8636,3.7865,3.7865,3.8425,3.9264,3.9587,3.9871,4.019,4.0793,4.0801,4.0582,4.0852,4.0963,4.0992,4.0992,4.1015,4.1039,4.1088,4.1107,4.1094,4.11,3.9814,3.8229,3.7147,3.6419,3.6056,3.6366,3.7287,3.7989,3.7724,3.8573,3.9265,3.9009,3.9883,4.0552,4.0296,4.0267,4.0279,4.027,3.9815,3.9274,3.8669,3.8868,3.8696,3.7842,3.8037,3.8562,3.9438,3.9468,3.9689,4.0235,4.0494,4.0528,4.0279,4.0513,4.078,4.11,4.1091,4.1107,4.1107,4.1107,4.1107,3.5999,0.0,0.0,0.0,0.0,3.9705,4.0844,0.0,4.1092,4.1093,4.1093,4.1093,4.1091,4.2043,4.2915,4.3225,4.3501,4.3598,4.33,0.0,0.0,0.0,0.0,0.0,0.0,0.0,0.0,0.0,0.0,0.0,4.0999,4.0991,4.0965,4.0898,4.0907,4.0883,4.0833,4.0818,4.0801,4.0829,4.0818,4.08,4.079,4.08,4.0792,4.0798,4.0862,4.0412,3.9606,3.9611,3.9127,3.8335,3.833,3.8702,3.9303,3.9579,3.9875,4.0206,4.0789,4.0816,4.06,4.0834,4.0945,4.0991,4.1007,4.0991,4.1013,4.1085,4.0893,4.0668,4.0657,3.9394,3.7737,3.6339,3.5999,3.6006,3.5997,3.7107,3.7847,3.6961,3.8198,3.9179,3.86,3.9454,4.0123,3.9833,3.955,3.9364,3.9353,3.9151,3.8786,3.822,3.8928,3.8973,3.7825,3.8254,3.8819,3.9399,3.9117,3.9337,4.0194,4.0517,4.0535,4.0245,4.0813,4.1098,4.1097,4.1091,4.1107,4.1107,4.1107,4.1107,0.0,0.0,0.0,0.0,0.0,0.0,4.0642,0.0,4.1054,4.105,4.1088,4.1109,4.1094,4.1113,4.1406,4.2221,4.3078,4.3331,4.2487,0.0,0.0,0.0,0.0,0.0,0.0,0.0,0.0,0.0,4.0994,4.0997,4.1,4.0999,4.0974,4.0907,4.0898,4.0898,4.0907,4.0839,4.0842,4.0902,4.0823,4.079,4.08,4.0796,4.0807,4.0812,4.0853,4.0383,3.9612,3.9694,3.9211,3.8435,3.8415,3.8412,3.854,3.9357,3.9135,3.8688,4.0403,4.0425,3.9834,4.0635,4.0945,4.0991,4.1007,4.0991,4.1013,4.1085,4.0487,3.9831,3.9763,3.8549,3.7076,3.6215,3.6001,3.6017,3.6027,3.6723,3.7081,3.6204,3.7379,3.8494,3.8503,3.8519,3.8823,3.9648,3.9048,3.8487,3.8477,3.921,3.9097,3.7477,3.9514,4.034,3.8704,4.0048,4.1001,4.102,4.0205,4.0136,4.1055,4.0264,4.0218,4.1076,4.1103,4.1098,4.1098,4.1097,4.1107,4.1107,4.1107,4.1107,3.4087,0.0,0.0,0.0,0.0,0.0,3.9038,3.9746,4.0175,4.0214,4.0682,4.1105,4.1093,4.1621,4.1913,4.1523,4.1659,4.1734,4.1497,0.0,0.0,0.0,0.0,0.0,0.0,0.0,0.0,0.0,4.1075,4.1055,4.1002,4.1007,4.0982,4.0978,4.0931,4.0898,4.0907,4.0874,4.0878,4.0902,4.0877,4.0862,4.0796,4.0842,4.0872,4.0839,4.0276,3.9906,3.9717,4.0367,4.0131,3.9272,3.8649,3.8793,3.928,3.8891,3.9015,3.9509,4.0614,4.0438,3.9834,4.0635,4.0954,4.1007,4.0992,4.1038,4.1085,4.1088,4.0932,4.0454,3.9195,3.8085,3.7084,3.6204,3.6009,3.6162,3.6797,3.7593,3.7919,3.7047,3.7754,3.8503,3.85,3.9015,3.9318,3.8929,3.8645,3.8282,3.7707,3.7846,3.781,3.7347,3.7936,3.8154,3.7708,3.8079,3.8603,3.9178,3.8452,3.8931,4.1003,4.0264,4.0214,4.1081,4.11,4.1093,4.1105,4.1109,4.1107,4.1107,4.1107,4.1107,0.0,0.0,0.0,0.0,0.0,0.0,3.8393,3.9238,3.9843,3.9882,4.0546,4.1108,4.1093,4.1523,4.1699,4.117,4.1094,4.1091,4.111,0.0,0.0,0.0,0.0,0.0,0.0,4.1099,4.1107,4.1093,4.1103,4.1064,4.099,4.1007,4.1007,4.1006,4.0954,4.0931,4.0908,4.0903,4.0893,4.0902,4.0898,4.0888,4.0823,4.0509,4.0364,4.0306,3.9509,3.9166,3.9202,3.9743,3.9657,3.9155,3.8603,3.872,3.9105,3.8595,3.8482,3.8738,3.9603,3.9571,3.9289,4.0138,4.0664,4.0996,4.1007,4.1025,4.1062,4.1088,4.0587,3.97,3.8317,3.7361,3.6633,3.6129,3.5992,3.6223,3.7088,3.7626,3.791,3.7761,3.8742,3.9474,3.9112,3.9452,3.9638,3.9111,3.8456,3.7837,3.7355,3.73,3.7166,3.6799,3.7408,3.7703,3.7332,3.7628,3.8034,3.8466,3.7747,3.8273,4.0465,3.9398,3.9325,4.0522,4.0561,4.0742,4.1091,4.1103,4.1107,4.1107,4.1107,4.1107,0.0,0.0,0.0,0.0,0.0,0.0,3.7965,3.8847,3.9491,3.9589,4.0252,4.0818,4.0818,4.082,4.082,4.0819,4.0898,4.0994,4.1092,4.1776,0.0,0.0,0.0,0.0,4.1189,4.1101,4.1109,4.1093,4.11,4.1061,4.1013,4.1009,4.0991,4.0991,4.1006,4.096,4.0902,4.0908,4.0908,4.0902,4.0888,4.0888,4.0868,3.9995,3.9592,3.9554,3.8645,3.8268,3.8249,3.8215,3.8264,3.8358,3.828,3.8253,3.8268,3.8366,3.7844,3.7249,3.8202,3.8416,3.842,3.9393,4.0217,4.0867,4.0963,4.1009,4.1013,4.1088,3.9836,3.8329,3.7542,3.6676,3.6002,3.5991,3.607,3.6359,3.7178,3.7427,3.7756,3.8619,3.997,4.0743,4.0062,3.985,3.9802,3.98,3.8459,3.7409,3.7312,3.7297,3.697,3.6091,3.7385,3.7992,3.7225,3.7874,3.8321,3.8365,3.7591,3.7908,3.9606,3.8144,3.8046,3.9647,3.9745,4.0187,4.0951,4.0951,4.101,4.1107,4.099,4.101,0.0,0.0,0.0,0.0,0.0,0.0,3.5251,3.6133,3.6953,3.7656,3.8494,3.9093,3.91,3.9081,3.908,3.9097,3.9687,4.0351,4.1015,4.125,0.0,0.0,0.0,0.0,4.1116,4.1091,4.1099,4.1096,4.1089,4.1091,4.1085,4.1036,4.0995,4.0992,4.0995,4.096,4.0902,4.0907,4.0907,4.0902,4.0853,4.0844,4.0878,4.0005,3.9636,3.9597,3.8026,3.7351,3.7295,3.6677,3.6823,3.7443,3.7442,3.7393,3.7431,3.8132,3.7856,3.7327,3.8889,3.8535,3.7603,3.9182,3.982,4.0087,4.0792,4.1036,4.1088,4.1106,3.983,3.8458,3.8296,3.7136,3.5991,3.5992,3.6539,3.7277,3.8075,3.8799,3.954,4.0418,4.0301,4.0217,4.0741,4.0267,3.9809,3.9802,3.8974,3.8081,3.7398,3.73,3.6972,3.61,3.629,3.6447,3.6275,3.6407,3.6797,3.7482,3.6723,3.7039,3.876,3.7842,3.7786,3.8804,3.9474,3.9874,4.0058,4.0058,4.0409,4.1088,4.039,4.0429,0.0,0.0,0.0,3.3017,0.0,0.0,0.0,3.5037,3.5723,3.703,3.7656,3.8084,3.8515,3.8594,3.8594,3.8591,3.8965,3.9394,3.9803,4.0566,0.0,0.0,0.0,0.0,4.1099,4.1093,4.1099,4.1108,4.1103,4.1107,4.1107,4.1036,4.0999,4.0996,4.0995,4.096,4.0902,4.0898,4.0898,4.0902,4.0868,4.067,4.0266,3.9398,3.8781,3.8324,3.7055,3.6494,3.6462,3.6073,3.6161,3.6547,3.6541,3.6534,3.6612,3.7472,3.7251,3.6699,3.7991,3.7874,3.7293,3.8179,3.9046,3.9831,4.026,4.074,4.1106,4.11,3.9841,3.8504,3.8495,3.7251,3.6105,3.6539,3.6989,3.7648,3.8881,3.9488,4.0051,4.0933,4.0396,4.0084,4.0957,4.073,4.0307,3.9868,3.9115,3.8298,3.7419,3.6911,3.6483,3.6057,3.5995,3.5992,3.5994,3.5992,3.6189,3.6622,3.6236,3.6592,3.7904,3.7104,3.7043,3.7896,3.8307,3.8924,3.9805,3.9366,3.9814,4.1088,4.064,4.0679,0.0,0.0,0.0,0.0,0.0,3.2628,0.0,0.0,0.0,3.5723,0.0,0.0,0.0,0.0,0.0,0.0,0.0,0.0,0.0,3.9549,0.0,0.0,0.0,0.0,4.1103,4.1094,4.1095,4.1103,4.1103,4.1094,4.1107,4.1036,4.0999,4.0996,4.0995,4.096,4.0902,4.0908,4.0908,4.0902,4.0728,4.0315,3.966,3.8611,3.7756,3.7042,3.6246,3.5895,3.5901,3.5895,3.5905,3.5891,3.5905,3.6002,3.6258,3.7134,3.6992,3.6537,3.74,3.7478,3.7238,3.7406,3.8519,3.9825,4.0003,4.0541,4.1078,4.0898,3.9713,3.8469,3.8303,3.7134,3.6219,3.7085,3.7438,3.7962,3.9474,3.9923,4.0253,4.0964,4.0535,4.0266,4.0975,4.0957,4.061,3.9915,3.9118,3.8298,3.7419,3.6539,3.5992,3.5992,3.5992,3.6009,3.6002,3.6009,3.5992,3.5995,3.6002,3.6319,3.7024,3.6379,3.6293,3.6932,3.711,3.7895,3.9304,3.8756,3.9394,4.1107,4.0938,4.0938,0.0,0.0,0.0,0.0,2.8732,0.0,0.0,0.0,3.0371,3.1336,0.0,0.0,0.0,0.0,0.0,0.0,0.0,0.0,3.6307,3.7792,3.9176,3.994,0.0,0.0,0.0,4.1094,4.1109,4.1093,4.11,4.1106,4.111,4.1036,4.0999,4.0996,4.0995,4.096,4.0902,4.0907,4.0907,4.0883,4.0125,3.9733,3.964,3.7947,3.7132,3.7042,3.6191,3.5846,3.5901,3.5905,3.5901,3.5903,3.5895,3.6362,3.7154,3.803,3.829,3.8338,3.9198,3.8497,3.7328,3.811,3.9006,3.9944,4.0719,4.1017,4.0944,4.0171,3.9257,3.8342,3.763,3.6714,3.6225,3.7087,3.7888,3.8705,3.9591,4.0416,4.0987,4.1074,4.1021,4.0986,4.1076,4.045,3.9907,3.9818,3.9118,3.8298,3.7419,3.6539,3.5992,3.5992,3.5992,3.5992,3.5991,3.5992,3.5995,3.6003,3.6008,3.6048,3.6142,3.6057,3.6027,3.6046,3.6803,3.7308,3.75,3.8163,3.9399,4.1091,4.0307,4.0365,0.0,0.0,0.0,0.0,0.0,0.0,2.8363,0.0,2.8389,0.0,0.0,0.0,0.0,0.0,0.0,0.0,3.326,0.0,0.0,0.0,3.7049,0.0,0.0,0.0,0.0,0.0,0.0,0.0,4.034,4.0112,3.963,4.0013,4.0011,3.9513,3.9485,3.9712,4.0209,3.9704,3.9704,4.0189,3.9326,3.8656,3.8169,3.7398,3.6796,3.6323,3.5962,3.5834,3.5901,3.5901,3.5901,3.5908,3.5905,3.6122,3.6679,3.8569,3.8611,3.7935,3.9318,3.8987,3.811,3.8967,3.9499,3.9959,4.085,4.1093,4.0927,4.0045,3.921,3.8352,3.7516,3.7028,3.697,3.7849,3.8687,3.9527,4.0361,4.0833,4.1108,4.1104,4.0696,4.0503,4.1005,4.079,4.0382,3.9878,3.9118,3.8298,3.7419,3.6539,3.6187,3.6696,3.6305,3.6207,3.6716,3.6285,3.5996,3.6004,3.6009,3.5991,3.6009,3.5999,3.5986,3.5955,3.6274,3.6696,3.7201,3.7561,3.8383,3.9587,3.9223,3.9516,2.4635,0.0,0.0,0.0,0.0,0.0,0.0,0.0,0.0,0.0,0.0,0.0,0.0,0.0,0.0,0.0,0.0,3.16,0.0,0.0,0.0,0.0,0.0,0.0,0.0,0.0,0.0,0.0,0.0,3.9527,3.8889,3.9165,3.9163,3.8774,3.8524,3.8693,3.9334,3.8712,3.8712,3.9334,3.846,3.7702,3.7081,3.6848,3.6397,3.5795,3.5792,3.5834,3.5901,3.5901,3.5898,3.5922,3.617,3.6267,3.6526,3.8653,3.8948,3.8441,3.9727,3.9591,3.8967,3.9597,3.98,3.997,4.0842,4.1105,4.0861,3.9779,3.906,3.8396,3.7536,3.7301,3.7575,3.8669,3.937,4.0034,4.0914,4.1109,4.1109,4.1109,4.0581,4.0366,4.0992,4.0894,4.0522,3.9897,3.9118,3.8298,3.7419,3.6539,3.6246,3.6872,3.6383,3.6265,3.6891,3.6363,3.5996,3.6004,3.6005,3.6005,3.6007,3.5995,3.6002,3.5995,3.5942,3.6248,3.6879,3.6871,3.7196,3.7828,3.8525,3.9204,0.0,0.0,0.0,2.4907,0.0,0.0,0.0,0.0,2.3193,0.0,0.0,0.0,0.0,0.0,0.0,0.0,0.0,0.0,0.0,0.0,0.0,0.0,0.0,0.0,0.0,0.0,0.0,0.0,0.0,0.0,3.9766,3.8912,3.8813,3.963,3.8835,3.8406,3.8445,3.8406,3.8406,3.8425,3.7566,3.7139,3.7061,3.6222,3.5834,3.5795,3.5795,3.5842,3.5901,3.5901,3.5892,3.5985,3.6838,3.7166,3.7271,3.8201,3.9571,4.0971,4.1029,4.0487,3.9769,3.9786,3.9791,3.9953,4.0834,4.1094,4.0764,3.9096,3.8611,3.8396,3.7536,3.7301,3.7711,3.937,3.978,4.0034,4.0914,4.1109,4.1109,4.1109,4.109,4.107,4.1109,4.0405,3.9839,3.98,3.9118,3.8298,3.7419,3.6539,3.6012,3.6031,3.6012,3.6012,3.6031,3.6012,3.5996,3.6004,3.5991,3.6004,3.5992,3.5997,3.6005,3.6005,3.6005,3.6013,3.6049,3.6039,3.6047,3.6131,3.8617,3.9779,0.0,0.0,2.3694,2.4373,0.0,0.0,0.0,0.0,0.0,0.0,0.0,0.0,0.0,0.0,0.0,0.0,0.0,0.0,0.0,0.0,0.0,0.0,0.0,0.0,0.0,0.0,0.0,0.0,0.0,0.0,0.0,3.7465,3.7488,3.7186,3.6865,3.6957,3.7528,3.6964,3.6964,3.7528,3.6653,3.6241,3.6222,3.5931,3.5795,3.5795,3.5795,3.5842,3.5901,3.5901,3.5892,3.5927,3.6225,3.669,3.7387,3.8825,3.9727,4.0312,4.0893,4.0526,3.9805,3.9803,3.9794,3.9865,4.0151,4.0649,4.0851,3.9722,3.939,3.9195,3.8376,3.8551,3.9097,3.9663,4.0249,4.0738,4.1031,4.1109,4.1109,4.1109,4.1109,4.1109,4.1109,4.0385,3.98,3.98,3.9118,3.8298,3.7419,3.6539,3.6226,3.6794,3.6344,3.6226,3.6813,3.6324,3.5994,3.5996,3.5992,3.6009,3.5992,3.6007,3.6001,3.5995,3.5995,3.6001,3.5992,3.5995,3.6298,3.6893,3.8336,3.9017,2.3166,2.3239,0.0,2.4109,2.3523,0.0,2.3913,0.0,0.0,0.0,0.0,0.0,0.0,0.0,0.0,0.0,0.0,0.0,0.0,2.9918,0.0,0.0,0.0,0.0,0.0,0.0,0.0,0.0,0.0,0.0,0.0,0.0,3.6622,3.6378,3.5997,3.6071,3.6623,3.6071,3.6086,3.6634,3.6067,3.5799,3.5807,3.5807,3.5807,3.5807,3.5834,3.5857,3.5901,3.5908,3.5898,3.5908,3.5894,3.6436,3.7368,3.8819,3.9721,4.0351,4.0912,4.0526,3.9808,3.9808,3.9797,3.9804,3.98,4.0414,4.0927,4.0049,3.9797,3.9683,3.9156,3.9409,3.9878,4.019,4.0698,4.1012,4.0698,4.0639,4.0639,4.0639,4.0639,4.0639,4.0639,4.0171,3.98,3.98,3.8843,3.7927,3.7379,3.6539,3.6228,3.6778,3.6346,3.6228,3.6798,3.6327,3.5994,3.5996,3.5994,3.5992,3.5992,3.5992,3.6147,3.6455,3.616,3.6145,3.6465,3.6467,3.6749,3.7323,3.8515,3.9062]}]]